     2              OBSERVATION DATA    GPS                 RINEX VERSION / TYPE
teqc 2000Jul20 Karen Wendt 20030425 19:01:32UTC             PGM / RUN BY / DATE
                                                            COMMENT
L2: 1 -> 1; 150 -> 5; 250 -> 9                              COMMENT
L2: 1 -> 1; 150 -> 5; 250 -> 9                              COMMENT
L2: 1 -> 1; 150 -> 5; 250 -> 9                              COMMENT
L2: 1 -> 1; 150 -> 5; 250 -> 9                              COMMENT
L2: 1 -> 1; 150 -> 5; 250 -> 9                              COMMENT
L2: 1 -> 1; 150 -> 5; 250 -> 9                              COMMENT
L2: 1 -> 1; 150 -> 5; 250 -> 9                              COMMENT
L2: 1 -> 1; 150 -> 5; 250 -> 9                              COMMENT
L2: 1 -> 1; 150 -> 5; 250 -> 9                              COMMENT
L2: 1 -> 1; 150 -> 5; 250 -> 9                              COMMENT
L2: 1 -> 1; 150 -> 5; 250 -> 9                              COMMENT
L2: 1 -> 1; 150 -> 5; 250 -> 9                              COMMENT
L2: 1 -> 1; 150 -> 5; 250 -> 9                              COMMENT
L2: 1 -> 1; 150 -> 5; 250 -> 9                              COMMENT
Original Marker Name: mont Montosa_1944_USC&GS              COMMENT
Campaign Name: USGS 2003                                    COMMENT
4-Character Station Name: MONT                              COMMENT
6-Character Antenna Code: DMRCHT                            COMMENT
Vertical Measurement Point: BCR                             COMMENT
Vertical Offset to Rinex Ref. Point: 0.0348                 COMMENT
Radial Measurement Point: ECF                               COMMENT
Radial Offset to Rinex Ref. Point: 0.1897                   COMMENT
Antenna Height from Field Measurement: 1.1810 m             COMMENT
Additional Antenna Identification Info.:                    COMMENT
Turborogue and Ashtech Choke Ring                           COMMENT
Original XYZ: -2639973.3008 -4444939.3901 3723954.2491      COMMENT
New XYZ position is based on association with SCEC monument COMMENT
E1F1N1C4+0011. Position of that monument is believed to be  COMMENT
valid to within 1 m horizontally; vertical accuracy         COMMENT
should be no worse than 3-times this value.                 COMMENT
                                                            COMMENT
Revised Rinex header created by UCSD GPS archive for        COMMENT
GSAC on 11-Jul-2003 (2003:192) 16:23:11 GMT                 COMMENT
For assistance contact dagnew@ucsd.edu                      COMMENT
or anderson@python.ucsd.edu                                 COMMENT
                                                            COMMENT
MONTOSA 1944                                                MARKER NAME
JMS US GEOLOGICAL SURVEY                                    OBSERVER / AGENCY
LP019992804 ASHTECH Z-XII3 CD00                             REC # / TYPE / VERS
CR14341 DORNE-MARGOL. TYPE T                                ANT # / TYPE
 -2639993.4439 -4444918.7120  3723951.4686                  APPROX POSITION XYZ
        1.1309        0.0000        0.0000                  ANTENNA: DELTA H/E/N
     1     1     0                                          WAVELENGTH FACT L1/2
     5    C1    L1    L2    P1    P2                        # / TYPES OF OBSERV
    30                                                      INTERVAL
  2003     4    11     0     1    0.000000                  TIME OF FIRST OBS
  2003     4    11    23    59   30.000000                  TIME OF LAST OBS
                                                            END OF HEADER
 03  4 11  0  1  0.0000000  0  8G31G14G 3G15G17G18G23G 9
  22927042.022    -7904591.77049  -6116057.69346  22927041.489    22927045.244
  21260490.096   -20818825.43149 -16203493.20847  21260489.529    21260492.058
  21697793.061   -17357669.12049 -13508597.96347  21697792.671    21697796.147
  20314330.014   -27902661.74849 -21725111.63848  20314329.192    20314332.521
  22204335.051   -17287707.78149 -13416722.95346  22204334.329    22204339.135
  21095105.589   -23073643.04749 -17955178.30047  21095105.033    21095107.164
  21646401.459   -17593753.43549 -13390811.05247  21646400.789    21646404.152
  23593499.070    -8287787.66249  -6244230.61545  23593498.641    23593504.117
 03  4 11  0  1 30.0000000  0  8G31G14G 3G15G17G18G23G 9
  22916176.687    -7961689.53049  -6160549.42146  22916176.151    22916179.885
  21246377.641   -20892986.53149 -16261281.02747  21246377.069    21246379.588
  21696268.494   -17365681.07849 -13514841.04147  21696268.086    21696271.550
  20317806.470   -27884393.01949 -21710876.26948  20317805.656    20317808.983
  22216939.704   -17221469.58949 -13365108.83346  22216939.043    22216943.842
  21103629.040   -23028852.15049 -17920276.30747  21103628.492    21103630.570
  21655130.197   -17547883.38949 -13355068.16747  21655129.556    21655132.933
  23588567.098    -8313705.02749  -6264425.90845  23588566.715    23588572.135
 03  4 11  0  2  0.0000000  0  8G31G14G 3G15G17G18G23G 9
  22905405.636    -8018291.01849  -6204654.43246  22905405.068    22905408.874
  21232348.489   -20966709.93249 -16318727.77847  21232347.942    21232350.423
  21694851.764   -17373125.71049 -13520642.04047  21694851.357    21694854.878
  20321357.158   -27865734.02549 -21696336.79548  20321356.338    20321359.649
  22229602.677   -17154925.28949 -13313256.17046  22229602.006    22229606.840
  21112187.946   -22983874.72049 -17885228.96347  21112187.377    21112189.454
  21663879.483   -17501905.56149 -13319241.28847  21663878.859    21663882.260
  23583733.632    -8339105.62349  -6284218.51145  23583733.031    23583738.537
 03  4 11  0  2 30.0000000  0  8G31G14G 3G15G17G18G23G 9
  22894729.707    -8074393.13749  -6248370.31546  22894729.119    22894732.970
  21218403.236   -21039992.57249 -16375831.08247  21218402.665    21218405.147
  21693543.278   -17380001.78149 -13526000.01647  21693542.893    21693546.368
  20324982.528   -27846682.48649 -21681491.44248  20324981.688    20324985.017
  22242324.053   -17088074.31049 -13261164.54746  22242323.360    22242328.147
  21120782.390   -22938710.40249 -17850035.99347  21120781.847    21120783.943
  21672649.313   -17455819.91649 -13283330.40447  21672648.668    21672652.077
  23578998.811    -8363986.63349  -6303606.26845  23578998.469    23579003.682
 03  4 11  0  3  0.0000000  0  8G31G14G 3G15G17G18G23G 9
  22884149.142    -8129994.37949  -6291695.93346  22884148.594    22884152.372
  21204542.110   -21112832.83249 -16432589.67447  21204541.571    21204544.064
  21692342.903   -17386309.66749 -13530915.24547  21692342.524    21692346.032
  20328682.675   -27827238.27349 -21666340.11048  20328681.836    20328685.153
  22255103.660   -17020917.29249 -13208834.44646  22255102.973    22255107.736
  21129412.084   -22893360.71849 -17814698.57947  21129411.553    21129413.681
  21681439.400   -17409627.72049 -13247336.49047  21681438.772    21681442.222
  23574363.471    -8388346.17449  -6322587.67845  23574362.998    23574368.133
 03  4 11  0  3 30.0000000  0  8G31G14G 3G15G17G18G23G 9
  22873664.171    -8185092.91249  -6334629.81146  22873663.652    22873667.449
  21190765.580   -21185228.84449 -16489002.09847  21190765.019    21190767.513
  21691250.742   -17392049.09449 -13535387.51847  21691250.340    21691253.827
  20332457.623   -27807400.62649 -21650882.20148  20332456.813    20332460.140
  22267941.428   -16953454.42149 -13156266.01746  22267940.746    22267945.564
  21138077.011   -22847826.67049 -17779217.50947  21138076.454    21138078.525
  21690249.631   -17363329.60749 -13211260.04447  21690249.003    21690252.436
  23569827.414    -8412182.44149  -6341161.34245  23569827.208    23569832.222
 03  4 11  0  4  0.0000000  0  8G31G14G 3G15G17G18G23G 9
  22863275.248    -8239686.65149  -6377170.34946  22863274.694    22863278.519
  21177074.022   -21257178.22349 -16545066.50047  21177073.447    21177075.934
  21690266.761   -17397219.94849 -13539416.74847  21690266.351    21690269.855
  20336307.677   -27787168.48749 -21635116.90548  20336306.858    20336310.175
  22280837.377   -16885685.52049 -13103459.12946  22280836.718    22280841.580
  21146776.769   -22802109.03649 -17743593.38547  21146776.221    21146778.278
  21699079.863   -17316926.23649 -13175101.58647  21699079.230    21699082.697
  23565391.448    -8435493.36149  -6359325.65145  23565391.129    23565396.241
 03  4 11  0  4 30.0000000  0  8G31G14G 3G15G17G18G23G 9
  22852982.745    -8293773.96849  -6419316.27246  22852982.210    22852985.946
  21163467.711   -21328679.57049 -16600781.78547  21163467.157    21163469.676
  21689390.934   -17401822.20949 -13543002.91947  21689390.547    21689394.048
  20340232.820   -27766541.51049 -21619043.93948  20340232.030    20340235.335
  22293791.667   -16817610.88549 -13050414.01546  22293790.950    22293795.798
  21155511.225   -22756209.21949 -17707827.29747  21155510.705    21155512.761
  21707929.948   -17270418.76349 -13138862.00447  21707929.333    21707932.791
  23561055.774    -8458277.37849  -6377079.38245  23561055.421    23561060.481
 03  4 11  0  5  0.0000000  0  8G31G14G 3G15G17G18G23G 9
  22842787.068    -8347352.72949  -6461065.92646  22842786.528    22842790.190
  21149947.123   -21399730.59449 -16656146.16947  21149946.547    21149949.054
  21688623.412   -17405855.63049 -13546145.84847  21688623.039    21688626.476
  20344233.411   -27745518.52149 -21602662.39048  20344232.591    20344235.890
  22306804.098   -16749229.97849 -12997130.23546  22306803.421    22306808.308
  21164280.284   -22710127.53949 -17671919.50147  21164279.744    21164281.833
  21716799.738   -17223807.63549 -13102541.65047  21716799.143    21716802.606
  23556820.880    -8480532.12049  -6394420.70245  23556820.503    23556825.568
 03  4 11  0  5 30.0000000  0  8G31G14G 3G15G17G18G23G 9
  22832688.227    -8400422.46849  -6502418.91846  22832687.679    22832691.361
  21136512.272   -21470330.70849 -16711159.19347  21136511.727    21136514.251
  21687963.833   -17409321.51449 -13548846.51847  21687963.445    21687966.930
  20348309.185   -27724100.15149 -21585972.74548  20348308.339    20348311.657
  22319874.587   -16680544.41349 -12943609.06046  22319873.933    22319878.784
  21173083.474   -22663866.28349 -17635871.77247  21173082.960    21173085.087
  21725688.922   -17177094.89249 -13066142.11647  21725688.299    21725691.756
  23552686.744    -8502256.84749  -6411349.01145  23552686.305    23552691.385
 03  4 11  0  6  0.0000000  0  8G31G14G 3G15G17G18G23G 9
  22822686.707    -8452980.52549  -6543373.21246  22822686.163    22822689.825
  21123163.780   -21540477.26549 -16765818.80747  21123163.238    21123165.736
  21687412.381   -17412219.28749 -13551104.51947  21687412.017    21687415.511
  20352460.398   -27702285.19449 -21568974.08148  20352459.575    20352462.900
  22333003.129   -16611553.16849 -12889849.70346  22333002.524    22333007.440
  21181920.771   -22617425.72149 -17599684.32847  21181920.252    21181922.432
  21734597.378   -17130280.70949 -13029663.54047  21734596.752    21734600.234
  23548653.963    -8523448.92949  -6427862.27145  23548653.567    23548658.627
 03  4 11  0  6 30.0000000  0  8G31G14G 3G15G17G18G23G 9
  22812782.803    -8505025.58849  -6583927.76346  22812782.270    22812785.936
  21109901.956   -21610168.70249 -16820123.77547  21109901.370    21109903.825
  21686969.024   -17414549.22249 -13552920.05247  21686968.654    21686972.132
  20356687.213   -27680073.13649 -21551665.98748  20356686.399    20356689.726
  22346189.635   -16542257.77049 -12835853.34046  22346189.045    22346193.982
  21190792.004   -22570807.25449 -17563358.25447  21190791.490    21190793.632
  21743524.897   -17083366.22649 -12993106.81147  21743524.281    21743527.775
  23544722.663    -8544107.19349  -6443959.58245  23544722.328    23544727.491
 03  4 11  0  7  0.0000000  0  8G31G14G 3G15G17G18G23G 9
  22802976.729    -8556556.68949  -6624081.82946  22802976.248    22802979.895
  21096726.836   -21679403.91649 -16874073.25047  21096726.300    21096728.758
  21686633.558   -17416312.06549 -13554293.69047  21686633.176    21686636.629
  20360989.597   -27657463.89049 -21534048.39848  20360988.781    20360992.119
  22359433.941   -16472658.97349 -12781620.56046  22359433.317    22359438.230
  21199696.826   -22524012.46349 -17526894.79047  21199696.276    21199698.342
  21752471.174   -17036352.96149 -12956473.10247  21752470.558    21752474.082
  23540893.396    -8564230.47349  -6459639.99845  23540893.079    23540898.081
 03  4 11  0  7 30.0000000  0  8G31G14G 3G15G17G18G23G 9
  22793269.032    -8607570.85449  -6663833.08046  22793268.528    22793272.188
  21083639.135   -21748180.10249 -16927665.03847  21083638.611    21083641.088
  21686406.183   -17417506.90649 -13555224.73747  21686405.804    21686409.232
  20365367.877   -27634455.78049 -21516119.99848  20365367.090    20365370.443
  22372736.255   -16402755.32549 -12727150.24446  22372735.558    22372740.489
  21208635.236   -22477040.92449 -17490293.60047  21208634.698    21208636.776
  21761436.323   -16989240.61349 -12919762.19147  21761435.722    21761439.255
  23537166.308    -8583815.93249  -6474901.34545  23537165.949    23537171.095
 03  4 11  0  8  0.0000000  0  8G31G14G 3G15G17G18G23G 9
  22783659.887    -8658067.02649  -6703180.70046  22783659.351    22783663.009
  21070639.026   -21816495.98149 -16980898.14747  21070638.490    21070640.969
  21686286.783   -17418134.39049 -13555713.67647  21686286.377    21686289.843
  20369822.125   -27611048.60649 -21497880.63748  20369821.316    20369824.655
  22386096.325   -16332547.87849 -12672443.19246  22386095.639    22386100.551
  21217606.872   -22429894.39149 -17453556.04747  21217606.357    21217608.449
  21770420.050   -16942030.59649 -12882975.17647  21770419.432    21770422.984
  23533541.723    -8602862.26449  -6489742.59645  23533541.598    23533546.637
 03  4 11  0  8 30.0000000  0  8G31G14G 3G15G17G18G23G 9
  22774149.633    -8708043.82849  -6742123.64146  22774149.075    22774152.674
  21057726.806   -21884350.01649 -17033771.37547  21057726.240    21057728.705
  21686275.221   -17418194.92249 -13555760.84547  21686274.844    21686278.274
  20374352.346   -27587242.01249 -21479330.03748  20374351.560    20374354.926
  22399514.100   -16262036.95949 -12617499.67546  22399513.429    22399518.367
  21226611.578   -22382574.23849 -17416683.21147  21226611.073    21226613.189
  21779422.261   -16894724.00549 -12846112.89947  21779421.600    21779425.152
  23530020.264    -8621368.29049  -6504162.82045  23530019.907    23530024.904
 03  4 11  0  9  0.0000000  0  8G31G14G 3G15G17G18G23G 9
  22764738.561    -8757499.13249  -6780660.20246  22764738.000    22764741.625
  21044902.853   -21951740.07549 -17086283.07147  21044902.297    21044904.746
  21686371.624   -17417688.31149 -13555366.08347  21686371.257    21686374.681
  20378958.790   -27563034.90449 -21460467.35348  20378958.011    20378961.362
  22412989.657   -16191222.66849 -12562319.76546  22412989.001    22412993.969
  21235649.279   -22335080.81349 -17379675.35747  21235648.756    21235650.888
  21788442.728   -16847321.12549 -12809175.59747  21788442.095    21788445.609
  23526601.858    -8639331.70249  -6518160.24645  23526601.602    23526606.727
 03  4 11  0  9 30.0000000  0  8G31G14G 3G15G17G18G23G 9
  22755426.945    -8806431.68649  -6818789.42846  22755426.336    22755429.993
  21032167.469   -22018664.84249 -17138432.19247  21032166.924    21032169.333
  21686575.798   -17416615.26449 -13554529.94147  21686575.446    21686578.898
  20383641.494   -27538427.11349 -21441292.44548  20383640.699    20383644.069
  22426522.847   -16120105.62749 -12506903.95046  22426522.162    22426527.126
  21244719.737   -22287415.45049 -17342533.52147  21244719.217    21244721.328
  21797481.275   -16799823.20349 -12772164.23647  21797480.638    21797484.185
  23523287.092    -8656751.38249  -6531733.96945  23523286.608    23523291.788
 03  4 11  0 10  0.0000000  0  8G31G14G 3G15G17G18G23G 9
  22746215.168    -8854840.02749  -6856510.18546  22746214.583    22746218.148
  21019520.947   -22085122.59549 -17190217.41247  21019520.399    21019522.789
  21686887.767   -17414976.03549 -13553252.62647  21686887.390    21686890.825
  20388400.625   -27513417.90149 -21421804.75748  20388399.815    20388403.163
  22440113.623   -16048686.00349 -12451252.34246  22440112.913    22440117.921
  21253822.715   -22239579.18849 -17305258.52347  21253822.175    21253824.285
  21806537.777   -16752231.14349 -12735079.52747  21806537.158    21806540.702
  23520075.919    -8673625.59049  -6544882.68645  23520075.550    23520080.592
 03  4 11  0 10 30.0000000  0  8G31G14G 3G15G17G18G23G 9
  22737103.356    -8902722.88449  -6893821.46846  22737102.762    22737106.338
  21006963.527   -22151111.90649 -17241637.60447  21006962.992    21006965.394
  21687307.308   -17412771.44249 -13551534.75947  21687306.930    21687310.380
  20393236.064   -27488007.25549 -21402004.25048  20393235.277    20393238.634
  22453761.752   -15976964.56449 -12395365.55746  22453761.055    22453766.066
  21262957.987   -22191573.16349 -17267851.23847  21262957.441    21262959.484
  21815612.007   -16704545.99449 -12697922.27547  21815611.337    21815614.846
  23516968.927    -8689953.21249  -6557605.44845  23516968.561    23516973.566
 03  4 11  0 11  0.0000000  0  8G31G14G 3G15G17G18G23G 9
  22728091.851    -8950078.25949  -6930721.72746  22728091.260    22728094.836
  20994495.671   -22216630.93449 -17292691.35347  20994495.124    20994497.511
  21687834.489   -17410000.93949 -13549375.93647  21687834.115    21687837.553
  20398148.139   -27462194.13249 -21381890.13248  20398147.346    20398150.721
  22467467.453   -15904941.16849 -12339243.49046  22467466.736    22467471.708
  21272125.400   -22143398.00749 -17230312.17047  21272124.844    21272126.942
  21824703.813   -16656768.13549 -12660692.79147  21824703.182    21824706.645
  23513966.173    -8705732.38449  -6569900.88845  23513965.830    23513970.849
 03  4 11  0 11 30.0000000  0  8G31G14G 3G15G17G18G23G 9
  22719181.025    -8996904.45849  -6967209.63146  22719180.459    22719184.114
  20982117.630   -22281677.66049 -17343377.06447  20982117.123    20982119.484
  21688469.337   -17406664.77549 -13546776.32747  21688468.975    21688472.370
  20403137.000   -27435977.69949 -21361461.73848  20403136.203    20403139.550
  22481230.567   -15832615.69549 -12282886.02746  22481229.868    22481234.833
  21281324.830   -22095054.34049 -17192641.77747  21281324.316    21281326.453
  21833813.155   -16608898.04349 -12623391.42547  21833812.526    21833816.001
  23511068.218    -8720961.39649  -6581767.60245  23511067.926    23511072.787
 03  4 11  0 12  0.0000000  0  8G31G14G 3G15G17G18G23G 9
  22710371.085    -9043200.86649  -7003284.72646  22710370.507    22710374.095
  20969829.626   -22346251.54049 -17393694.32847  20969829.089    20969831.435
  21689211.605   -17402764.10949 -13543736.84947  21689211.222    21689214.694
  20408202.423   -27409358.54749 -21340719.55048  20408201.626    20408204.985
  22495050.753   -15759990.02049 -12226294.63946  22495050.091    22495055.089
  21290556.050   -22046544.11449 -17154841.61447  21290555.495    21290557.673
  21842939.786   -16560937.41549 -12586019.51647  21842939.178    21842942.601
  23508274.910    -8735639.65949  -6593205.18645  23508274.630    23508279.602
 03  4 11  0 12 30.0000000  0  8G31G14G 3G15G17G18G23G 9
  22701662.612    -9088964.10549  -7038944.35746  22701662.056    22701665.603
  20957632.264   -22410348.98549 -17443640.33847  20957631.714    20957634.059
  21690061.546   -17398297.64649 -13540256.48647  21690061.163    21690064.639
  20413344.945   -27382334.29349 -21319661.69547  20413344.176    20413347.518
  22508928.355   -15687062.32949 -12169467.92046  22508927.774    22508932.834
  21299819.157   -21997866.22649 -17116910.80147  21299818.622    21299820.770
  21852083.862   -16512885.20549 -12548576.24647  21852083.218    21852086.670
  23505587.328    -8749763.62249  -6604210.81345  23505587.041    23505591.811
 03  4 11  0 13  0.0000000  0  8G31G14G 3G15G17G18G23G 9
  22693055.178    -9134196.55649  -7074190.39546  22693054.605    22693058.137
  20945525.116   -22473972.16349 -17493216.79447  20945524.575    20945526.916
  21691018.327   -17393269.71049 -13536338.61247  21691017.941    21691021.458
  20418563.996   -27354908.03749 -21298290.58847  20418563.223    20418566.559
  22522862.942   -15613836.50149 -12112408.88746  22522862.237    22522867.314
  21309113.251   -21949025.53549 -17078853.12447  21309112.698    21309114.812
  21861244.488   -16464746.14049 -12511065.29247  21861243.816    21861247.220
  23503004.532    -8763335.70049  -6614786.43945  23503004.259    23503009.111
 03  4 11  0 13 30.0000000  0  8G31G14G 3G15G17G18G23G 9
  22684549.613    -9178893.32749  -7109019.02246  22684549.064    22684552.624
  20933509.163   -22537116.20349 -17542419.89647  20933508.604    20933510.959
  21692082.472   -17387677.44249 -13531980.99947  21692082.104    21692085.617
  20423860.264   -27327075.94149 -21276603.24947  20423859.496    20423862.820
  22536854.541   -15540309.72749 -12055115.35446  22536854.020    22536859.049
  21318438.743   -21900019.54849 -17040666.64647  21318438.212    21318440.324
  21870422.120   -16416517.50649 -12473484.54847  21870421.452    21870424.801
  23500527.800    -8776351.16849  -6624928.33445  23500527.463    23500532.298
 03  4 11  0 14  0.0000000  0  8G31G14G 3G15G17G18G23G 9
  22676146.191    -9223053.34149  -7143429.39346  22676145.681    22676149.185
  20921584.598   -22599779.96549 -17591248.75147  20921584.079    20921586.422
  21693253.897   -17381521.59349 -13527184.23547  21693253.503    21693257.023
  20429233.794   -27298837.75749 -21254599.46747  20429233.006    20429236.373
  22550903.434   -15466482.59049 -11997587.76346  22550902.865    22550907.914
  21327795.482   -21850849.44549 -17002352.28247  21327794.945    21327797.109
  21879616.488   -16368200.37549 -12435834.83947  21879615.857    21879619.251
  23498157.000    -8788809.03449  -6634635.73545  23498156.635    23498161.636
 03  4 11  0 14 30.0000000  0  8G31G14G 3G15G17G18G23G 9
  22667844.843    -9266677.12349  -7177421.92646  22667844.328    22667847.855
  20909751.405   -22661963.64249 -17639703.52447  20909750.871    20909753.209
  21694532.154   -17374804.17249 -13521949.88647  21694531.778    21694535.304
  20434684.416   -27270194.58649 -21232280.12047  20434683.633    20434686.987
  22565009.123   -15392357.33349 -11939827.88146  22565008.480    22565013.524
  21337182.914   -21801517.98649 -16963912.19347  21337182.396    21337184.589
  21888827.248   -16319797.30149 -12398118.16147  21888826.631    21888830.083
  23495892.370    -8800709.72349  -6643908.97545  23495892.122    23495896.928
 03  4 11  0 15  0.0000000  0  8G31G14G 3G15G17G18G23G 9
  22659646.091    -9309761.88349  -7210994.42946  22659645.564    22659649.042
  20898010.108   -22723664.36749 -17687781.96647  20898009.589    20898011.907
  21695917.386   -17367524.77549 -13516277.62947  21695916.989    21695920.511
  20440212.430   -27241144.65949 -21209643.81147  20440211.626    20440215.010
  22579171.577   -15317933.02649 -11881834.96746  22579170.905    22579176.033
  21346601.186   -21752024.84049 -16925346.11047  21346600.656    21346602.839
  21898054.539   -16271307.63849 -12360334.01547  21898053.913    21898057.393
  23493734.282    -8812050.56849  -6652745.96645  23493733.897    23493738.800
 03  4 11  0 15 30.0000000  0  8G31G14G 3G15G17G18G23G 9
  22651549.985    -9352306.78049  -7244146.27446  22651549.469    22651553.001
  20886360.905   -22784881.26749 -17735483.40747  20886360.374    20886362.677
  21697409.367   -17359684.33949 -13510168.20547  21697408.976    21697412.516
  20445817.792   -27211688.48749 -21186690.95947  20445816.985    20445820.346
  22593390.824   -15243210.85549 -11823609.95846  22593390.101    22593395.200
  21356049.902   -21702371.68949 -16886655.35047  21356049.375    21356051.505
  21907298.018   -16222732.79549 -12322483.49547  21907297.374    21907300.875
  23491682.801    -8822830.77449  -6661146.10745  23491682.546    23491687.270
 03  4 11  0 16  0.0000000  0  8G31G14G 3G15G17G18G23G 9
  22643557.070    -9394309.79949  -7276875.86546  22643556.562    22643560.081
  20874804.143   -22845612.14649 -17782806.12847  20874803.614    20874805.908
  21699008.158   -17351282.78649 -13503621.54647  21699007.750    21699011.224
  20451500.578   -27181824.88949 -21163420.61947  20451499.811    20451503.194
  22607666.710   -15168190.66649 -11765152.71646  22607665.999    22607671.113
  21365529.106   -21652558.29649 -16847839.72447  21365528.572    21365530.657
  21916557.714   -16174072.70249 -12284566.54647  21916557.073    21916560.593
  23489738.546    -8833048.50949  -6669107.95145  23489738.154    23489742.932
 03  4 11  0 16 30.0000000  0  8G31G14G 3G15G17G18G23G 9
  22635667.372    -9435770.48349  -7309182.86346  22635666.884    22635670.371
  20863339.982   -22905856.55549 -17829749.78147  20863339.451    20863341.739
  21700713.410   -17342321.54849 -13496638.76447  21700713.019    21700716.491
  20457260.894   -27151554.40949 -21139833.23947  20457260.114    20457263.485
  22621999.123   -15092873.41049 -11706463.99446  22621998.396    22622003.572
  21375038.392   -21602586.49849 -16808900.66947  21375037.869    21375039.981
  21925833.309   -16125329.01649 -12246584.46247  21925832.712    21925836.246
  23487901.183    -8842703.23649  -6676631.09845  23487900.895    23487905.667
 03  4 11  0 17  0.0000000  0  8G31G14G 3G15G17G18G23G 9
  22627881.090    -9476687.57349  -7341066.29246  22627880.564    22627884.047
  20851968.655   -22965612.96549 -17876313.17847  20851968.133    20851970.434
  21702525.061   -17332801.20149 -13489220.31947  21702524.675    21702528.169
  20463098.691   -27120876.37349 -21115928.28747  20463097.922    20463101.289
  22636388.113   -15017259.63749 -11647544.22546  22636387.335    22636392.425
  21384577.597   -21552457.19349 -16769838.88347  21384577.095    21384579.286
  21935124.745   -16076502.30649 -12208537.69547  21935124.129    21935127.642
  23486171.508    -8851793.58549  -6683714.46345  23486171.173    23486175.811
 03  4 11  0 17 30.0000000  0  8G31G14G 3G15G17G18G23G 9
  22620198.583    -9517059.11349  -7372524.60246  22620198.063    22620201.576
  20840690.661   -23024879.09649 -17922494.53747  20840690.121    20840692.416
  21704443.092   -17322721.79649 -13481366.24147  21704442.747    21704446.184
  20469014.312   -27089789.68549 -21091704.89547  20469013.547    20469016.891
  22650833.364   -14941349.11349 -11588393.21846  22650832.625    22650837.796
  21394146.834   -21502170.64449 -16730654.56847  21394146.321    21394148.543
  21944431.997   -16027592.75849 -12170426.36347  21944431.356    21944434.840
  23484549.173    -8860317.59849  -6690356.54245  23484548.885    23484553.702
 03  4 11  0 18  0.0000000  0  8G31G14G 3G15G17G18G23G 9
  22612620.035    -9556884.56449  -7403557.40046  22612619.529    22612623.002
  20829506.036   -23083654.51349 -17968293.52647  20829505.493    20829507.785
  21706467.307   -17312084.42049 -13473077.37947  21706466.946    21706470.430
  20475007.629   -27058294.68249 -21067163.34547  20475006.868    20475010.191
  22665335.067   -14865142.91949 -11529011.82346  22665334.285    22665339.447
  21403745.650   -21451728.35549 -16691348.90447  21403745.166    21403747.358
  21953754.654   -15978601.75149 -12132251.57147  21953754.002    21953757.543
  23483034.907    -8868274.97249  -6696557.07545  23483034.723    23483039.505
 03  4 11  0 18 30.0000000  0  8G31G14G 3G15G17G18G23G 9
  22605145.614    -9596162.78649  -7434163.77246  22605145.123    22605148.654
  20818415.025   -23141937.90449 -18013709.11347  20818414.482    20818416.770
  21708597.512   -17300890.02849 -13464354.47847  21708597.181    21708600.665
  20481078.669   -27026390.98149 -21042303.32547  20481077.925    20481081.268
  22679892.679   -14788641.96849 -11469400.73546  22679891.897    22679897.174
  21413373.985   -21401131.34449 -16651922.67247  21413373.480    21413375.634
  21963092.691   -15929529.88549 -12094013.76247  21963092.077    21963095.593
  23481628.755    -8875664.59049  -6702315.19445  23481628.497    23481633.248
 03  4 11  0 19  0.0000000  0  8G31G14G 3G15G17G18G23G 9
  22597775.643    -9634892.22549  -7464342.52546  22597775.145    22597778.666
  20807418.021   -23199727.44249 -18058739.88047  20807417.485    20807419.751
  21710833.722   -17289138.88549 -13455197.75147  21710833.343    21710836.773
  20487227.652   -26994077.94349 -21017124.33747  20487226.908    20487230.226
  22694506.392   -14711846.07149 -11409559.83546  22694505.621    22694510.977
  21423031.610   -21350380.02749 -16612376.20547  21423031.114    21423033.281
  21972446.170   -15880377.53649 -12055713.24747  21972445.503    21972448.999
  23480330.802    -8882485.15249  -6707629.89645  23480330.566    23480335.362
 03  4 11  0 19 30.0000000  0  8G31G14G 3G15G17G18G23G 9
  22590510.376    -9673071.66849  -7494092.71246  22590509.836    22590513.377
  20796515.213   -23257021.97249 -18103384.92747  20796514.673    20796516.954
  21713175.654   -17276832.11549 -13445608.06547  21713175.271    21713178.688
  20493454.586   -26961355.17249 -20991626.08447  20493453.857    20493457.174
  22709176.343   -14634755.81049 -11349489.55946  22709175.525    22709180.801
  21432718.476   -21299475.44249 -16572710.30647  21432717.978    21432720.145
  21981814.713   -15831145.43349 -12017350.58247  21981814.047    21981817.583
  23479141.377    -8888735.59949  -6712500.35045  23479141.189    23479145.889
 03  4 11  0 20  0.0000000  0  8G31G14G 3G15G17G18G23G 9
  22583349.844    -9710700.40149  -7523413.78046  22583349.293    22583352.770
  20785706.776   -23313820.47649 -18147643.46347  20785706.245    20785708.504
  21715623.086   -17263970.65449 -13435586.14647  21715622.707    21715626.168
  20499759.538   -26928222.70949 -20965808.58747  20499758.782    20499762.094
  22723901.923   -14557372.31449 -11289190.77246  22723901.140    22723906.438
  21442434.300   -21248418.54849 -16532925.72447  21442433.782    21442435.952
  21991198.223   -15781834.60649 -11978926.57347  21991197.601    21991201.167
  23478060.548    -8894414.92149  -6716925.77545  23478060.347    23478065.055
 03  4 11  0 20 30.0000000  0  8G31G14G 3G15G17G18G23G 9
  22576294.454    -9747776.73949  -7552304.41146  22576293.897    22576297.347
  20774993.057   -23370121.25849 -18191514.16047  20774992.542    20774994.776
  21718176.064   -17250554.78549 -13425132.22847  21718175.699    21718179.117
  20506142.555   -26894679.78749 -20939671.25347  20506141.784    20506145.116
  22738683.386   -14479695.66349 -11228663.56146  22738682.598    22738687.864
  21452179.042   -21197209.68049 -16493022.72647  21452178.536    21452180.684
  22000596.712   -15732445.32149 -11940441.42747  22000596.094    22000599.642
  23477088.709    -8899521.73249  -6720905.08945  23477088.540    23477093.151
 03  4 11  0 21  0.0000000  0  8G31G14G 3G15G17G18G23G 9
  22569344.359    -9784299.67349  -7580763.80746  22569343.818    22569347.218
  20764374.336   -23425922.95149 -18234995.95547  20764373.803    20764376.022
  21720834.338   -17236585.36749 -13414246.97247  21720833.980    21720837.351
  20512603.687   -26860726.24449 -20913213.96247  20512602.911    20512606.236
  22753520.473   -14401726.07049 -11167908.09046  22753519.716    22753525.037
  21461952.438   -21145850.12649 -16453002.30547  21461951.940    21461954.041
  22010009.979   -15682978.13149 -11901895.57747  22010009.377    22010012.934
  23476226.191    -8904055.21949  -6724437.65645  23476225.958    23476230.448
 03  4 11  0 21 30.0000000  0  8G31G14G 3G15G17G18G23G 9
  22562499.556    -9820269.15549  -7608791.94846  22562499.007    22562502.456
  20753850.548   -23481225.58249 -18278088.87647  20753850.029    20753852.237
  21723597.594   -17222064.19749 -13402931.77247  21723597.267    21723600.687
  20519142.859   -26826362.68949 -20886437.17147  20519142.103    20519145.451
  22768413.054   -14323465.22849 -11106925.66646  22768412.376    22768417.639
  21471754.223   -21094341.48149 -16412865.71247  21471753.724    21471755.820
  22019437.785   -15633434.69249 -11863290.31547  22019437.191    22019440.735
  23475472.481    -8908014.99549  -6727523.16845  23475472.279    23475476.901
 03  4 11  0 22  0.0000000  0  8G31G14G 3G15G17G18G23G 9
  22555760.562    -9855682.81549  -7636386.98446  22555760.002    22555763.421
  20743422.263   -23536026.29249 -18320790.68447  20743421.758    20743423.955
  21726465.941   -17206991.04649 -13391186.46247  21726465.581    21726469.030
  20525760.361   -26791587.49049 -20859339.62547  20525759.602    20525762.932
  22783361.201   -14244912.71649 -11045715.97246  22783360.498    22783365.717
  21481584.471   -21042683.19849 -16372612.51847  21481583.969    21481586.083
  22028880.275   -15583814.48949 -11824625.23747  22028879.654    22028883.150
  23474828.372    -8911399.26849  -6730160.24445  23474828.255    23474832.786
 03  4 11  0 22 30.0000000  0  8G31G14G 3G15G17G18G23G 9
  22549127.450    -9890539.77149  -7663548.22346  22549126.894    22549130.303
  20733089.737   -23590324.17349 -18363100.68447  20733089.221    20733091.375
  21729439.126   -17191366.96449 -13379011.85847  21729438.772    21729442.211
  20532456.242   -26756400.45849 -20831921.17347  20532455.487    20532458.828
  22798364.413   -14166069.48049 -10984279.74246  22798363.821    22798369.166
  21491442.972   -20990876.48249 -16332243.66947  21491442.464    21491444.593
  22038337.080   -15534118.26649 -11785900.91647  22038336.487    22038339.992
  23474294.171    -8914207.03149  -6732348.06745  23474293.875    23474298.604
 03  4 11  0 23  0.0000000  0  8G31G14G 3G15G17G18G23G 9
  22542600.468    -9924839.20949  -7690275.04546  22542599.923    22542603.281
  20722853.045   -23644118.33149 -18405018.16847  20722852.518    20722854.661
  21732516.968   -17175192.85049 -13366408.65147  21732516.612    21732520.116
  20539230.453   -26720801.64549 -20804181.85247  20539229.697    20539233.061
  22813423.061   -14086935.60649 -10922617.05546  22813422.486    22813427.870
  21501329.534   -20938922.22649 -16291759.84847  21501329.020    21501331.207
  22047808.216   -15484346.81749 -11747117.98347  22047807.670    22047811.212
  23473869.515    -8916437.73549  -6734086.26445  23473869.299    23473874.118
 03  4 11  0 23 30.0000000  0  8G31G14G 3G15G17G18G23G 9
  22536179.748    -9958580.34049  -7716566.80846  22536179.188    22536182.555
  20712712.348   -23697407.79749 -18446542.38847  20712711.858    20712713.980
  21735699.191   -17158470.06649 -13353377.91647  21735698.839    21735702.293
  20546083.087   -26684791.06249 -20776121.67547  20546082.333    20546085.685
  22828536.990   -14007512.18449 -10860728.73946  22828536.313    22828541.727
  21511243.939   -20886821.48549 -16251161.88347  21511243.436    21511245.683
  22057293.650   -15434501.13349 -11708277.20847  22057293.063    22057296.556
  23473555.048    -8918090.80849  -6735374.34145  23473554.706    23473559.464
 03  4 11  0 24  0.0000000  0  8G31G14G 3G15G17G18G23G 9
  22529865.219    -9991763.04049  -7742423.43646  22529864.659    22529868.016
  20702667.837   -23750192.14049 -18487673.00547  20702667.312    20702669.421
  21738985.533   -17141200.48449 -13339921.10147  21738985.154    21738988.595
  20553013.945   -26648369.21649 -20747741.02447  20553013.165    20553016.548
  22843705.558   -13927800.78049 -10798616.01846  22843704.952    22843710.418
  21521185.913   -20834575.90849 -16210451.06147  21521185.433    21521187.673
  22066792.861   -15384582.44849 -11669379.54847  22066792.258    22066795.795
  23473350.454    -8919165.94749  -6736212.08745  23473350.177    23473354.868
 03  4 11  0 24 30.0000000  0  8G31G14G 3G15G17G18G23G 9
  22523657.555   -10024384.81849  -7767842.98046  22523656.976    22523660.323
  20692719.811   -23802469.01449 -18528408.19447  20692719.289    20692721.396
  21742375.979   -17123383.46449 -13326037.71147  21742375.596    21742379.094
  20560023.423   -26611534.21449 -20719038.44047  20560022.643    20560026.006
  22858929.266   -13847800.37449 -10736278.10646  22858928.623    22858934.070
  21531155.678   -20782184.64749 -16169626.72247  21531155.201    21531157.419
  22076306.002   -15334589.95449 -11630424.36847  22076305.472    22076309.066
  23473256.239    -8919660.90849  -6736597.74445  23473255.833    23473260.577
 03  4 11  0 25  0.0000000  0  8G31G14G 3G15G17G18G23G 9
  22517556.540   -10056445.85649  -7792825.57846  22517555.951    22517559.247
  20682868.483   -23854238.09449 -18568747.69947  20682867.988    20682870.054
  21745870.230   -17105021.07349 -13311729.35947  21745869.848    21745873.326
  20567111.352   -26574286.99549 -20690014.64347  20567110.576    20567113.930
  22874207.413   -13767512.97249 -10673716.55546  22874206.786    22874212.321
  21541152.781   -20729649.65249 -16128690.37347  21541152.291    21541154.536
  22085833.064   -15284525.29849 -11591412.96847  22085832.476    22085835.999
  23473272.329    -8919575.67649  -6736531.29845  23473272.121    23473276.840
 03  4 11  0 25 30.0000000  0  8G31G14G 3G15G17G18G23G 9
  22511562.448   -10087944.63149  -7817370.05046  22511561.880    22511565.270
  20673114.087   -23905497.71349 -18608690.22447  20673113.551    20673115.619
  21749468.198   -17086113.63649 -13296996.30147  21749467.837    21749471.297
  20574277.825   -26536627.03949 -20660669.23847  20574277.044    20574280.402
  22889540.367   -13686938.31449 -10610931.18345  22889539.681    22889545.218
  21551177.173   -20676971.04949 -16087642.13347  21551176.701    21551178.937
  22095373.803   -15234388.50349 -11552345.35447  22095373.192    22095376.713
  23473399.227    -8918909.13149  -6736011.89545  23473398.915    23473403.760
 03  4 11  0 26  0.0000000  0  8G31G14G 3G15G17G18G23G 9
  22505675.498   -10118880.50649  -7841475.90346  22505674.966    22505678.344
  20663456.793   -23956247.09549 -18648235.15947  20663456.247    20663458.298
  21753169.624   -17066662.56649 -13281839.62547  21753169.274    21753172.725
  20581522.824   -26498554.12149 -20631002.04347  20581522.069    20581525.429
  22904927.865   -13606076.71649 -10547922.20445  22904927.159    22904932.761
  21561228.764   -20624149.97949 -16046482.87347  21561228.262    21561230.416
  22104928.085   -15184180.42149 -11513222.18047  22104927.477    22104930.996
  23473636.813    -8917660.81649  -6735039.14845  23473636.540    23473641.071
 03  4 11  0 26 30.0000000  0  8G31G14G 3G15G17G18G23G 9
  22499895.861   -10149252.90449  -7865142.68646  22499895.307    22499898.637
  20653896.716   -24006485.40549 -18687381.85747  20653896.185    20653898.239
  21756974.256   -17046669.12649 -13266260.32547  21756973.890    21756977.325
  20588846.516   -26460068.18349 -20601013.01347  20588845.739    20588849.107
  22920369.688   -13524929.82949 -10484690.94545  22920368.978    22920374.546
  21571307.285   -20571187.37549 -16005213.32447  21571306.765    21571308.884
  22114495.798   -15133901.71449 -11474043.98747  22114495.213    22114498.704
  23473985.125    -8915830.21649  -6733612.70945  23473984.878    23473989.513
 03  4 11  0 27  0.0000000  0  8G31G14G 3G15G17G18G23G 9
  22494223.553   -10179061.06349  -7888369.80846  22494222.984    22494226.281
  20644434.056   -24056211.84349 -18726129.69947  20644433.526    20644435.566
  21760881.878   -17026134.48449 -13250259.30947  21760881.515    21760884.993
  20596248.739   -26421169.22249 -20570702.15147  20596247.964    20596251.333
  22935865.492   -13443498.60549 -10421238.10645  22935864.821    22935870.391
  21581412.509   -20518084.00949 -15963834.09047  21581411.989    21581414.172
  22124076.914   -15083553.09649 -11434811.31447  22124076.301    22124079.761
  23474444.477    -8913416.90249  -6731732.17145  23474444.171    23474448.683
 03  4 11  0 27 30.0000000  0  8G31G14G 3G15G17G18G23G 9
  22488658.933   -10208302.97849  -7911155.69846  22488658.376    22488661.722
  20635069.207   -24105424.15349 -18764476.91247  20635068.679    20635070.725
  21764892.464   -17005058.85449 -13233836.74347  21764892.099    21764895.512
  20603729.874   -26381855.90749 -20540068.41147  20603729.065    20603732.442
  22951415.551   -13361781.72449 -10357562.68345  22951415.005    22951420.626
  21591544.550   -20464839.63749 -15922344.97747  21591544.055    21591546.271
  22133671.350   -15033133.92749 -11395523.65247  22133670.739    22133674.232
  23475014.991    -8910418.93749  -6729396.07545  23475014.606    23475019.234
 03  4 11  0 28  0.0000000  0  8G31G14G 3G15G17G18G23G 9
  22483202.093   -10236978.77349  -7933500.46246  22483201.543    22483204.829
  20625802.291   -24154122.15349 -18802423.37047  20625801.745    20625803.799
  21769005.593   -16983444.29549 -13216994.23747  21769005.221    21769008.631
  20611289.615   -26342129.04049 -20509112.42947  20611288.852    20611292.207
  22967019.879   -13279781.56649 -10293666.53145  22967019.213    22967024.764
  21601703.229   -20411455.72249 -15880747.13347  21601702.722    21601704.893
  22143278.854   -14982645.62849 -11356182.13447  22143278.287    22143281.842
  23475696.626    -8906836.62649  -6726604.64045  23475696.314    23475700.919
 03  4 11  0 28 30.0000000  0  8G31G14G 3G15G17G18G23G 9
  22477853.230   -10265087.02049  -7955402.96746  22477852.676    22477855.983
  20616633.513   -24202304.18549 -18839967.78147  20616632.972    20616634.999
  21773221.204   -16961291.01649 -13199731.94847  21773220.803    21773224.292
  20618928.261   -26301987.76949 -20477833.53147  20618927.493    20618930.877
  22982677.985   -13197497.59749 -10229549.21845  22982677.353    22982682.928
  21611888.400   -20357932.48349 -15839040.72347  21611887.851    21611890.011
  22152899.708   -14932088.11449 -11316786.68447  22152899.107    22152902.673
  23476489.649    -8902668.43949  -6723356.70145  23476489.295    23476494.039
 03  4 11  0 29  0.0000000  0  8G31G14G 3G15G17G18G23G 9
  22472612.135   -10292629.24049  -7976864.40946  22472611.535    22472614.904
  20607562.643   -24249971.75149 -18877111.29948  20607562.112    20607564.105
  21777538.708   -16938602.47549 -13182052.56547  21777538.324    21777541.775
  20626645.323   -26261434.39449 -20446233.50847  20626644.561    20626647.939
  22998389.720   -13114933.12949 -10165213.35045  22998388.986    22998394.516
  21622099.440   -20304272.94149 -15797228.09747  21622098.913    21622101.059
  22162533.217   -14881464.19849 -11277339.48447  22162532.598    22162536.134
  23477394.131    -8897916.18749  -6719653.62445  23477393.798    23477398.307
 03  4 11  0 29 30.0000000  0  8G31G14G 3G15G17G18G23G 9
  22467479.140   -10319603.58249  -7997883.36546  22467478.538    22467481.828
  20598590.066   -24297122.80649 -18913852.34748  20598589.533    20598591.525
  21781958.040   -16915378.81549 -13163956.21247  21781957.644    21781961.116
  20634441.025   -26220467.61749 -20414311.35547  20634440.274    20634443.660
  23014154.751   -13032087.66449 -10100658.50945  23014154.033    23014159.563
  21632336.570   -20250476.60649 -15755308.88347  21632336.045    21632338.122
  22172179.386   -14830773.14449 -11237839.96747  22172178.760    22172182.315
  23478409.936    -8892578.27749  -6715494.20445  23478409.515    23478414.095
 03  4 11  0 30  0.0000000  0  8G31G14G 3G15G17G18G23G 9
  22462454.439   -10346008.26449  -8018458.42446  22462453.857    22462457.134
  20589716.218   -24343755.15249 -18950189.20348  20589715.667    20589717.654
  21786479.109   -16891620.16349 -13145442.98347  21786478.734    21786482.211
  20642315.706   -26179086.05149 -20382065.98847  20642314.943    20642318.295
  23029973.322   -12948960.92249 -10035884.49345  23029972.592    23029978.153
  21642599.786   -20196543.00149 -15713282.69647  21642599.260    21642601.368
  22181838.462   -14780014.31349 -11198287.63547  22181837.833    22181841.370
  23479537.454    -8886653.06849  -6710877.13345  23479537.045    23479541.686
 03  4 11  0 30 30.0000000  0  8G31G14G 3G15G17G18G23G 9
  22457538.180   -10371843.11549  -8038589.45346  22457537.640    22457540.938
  20580941.147   -24389868.30549 -18986121.49948  20580940.621    20580942.590
  21791101.711   -16867328.44149 -13126514.37047  21791101.325    21791104.773
  20650269.239   -26137290.03749 -20349497.67547  20650268.477    20650271.850
  23045845.162   -12865554.29549  -9970892.38545  23045844.404    23045849.924
  21652888.870   -20142473.50349 -15671150.62747  21652888.357    21652890.475
  22191510.185   -14729188.92449 -11158683.44847  22191509.578    22191513.144
  23480776.767    -8880140.52949  -6705802.41045  23480776.277    23480780.988
 03  4 11  0 31  0.0000000  0  8G31G14G 3G15G17G18G23G 9
  22452730.501   -10397107.62249  -8058276.06846  22452729.949    22452733.272
  20572264.916   -24435462.01049 -19021649.02748  20572264.378    20572266.341
  21795825.429   -16842505.00449 -13107171.43247  21795825.064    21795828.566
  20658301.566   -26095079.79749 -20316606.58547  20658300.816    20658304.185
  23061770.185   -12781868.50749  -9905682.74145  23061769.399    23061774.881
  21663203.809   -20088268.81249 -15628913.21647  21663203.246    21663205.282
  22201194.409   -14678297.73949 -11119027.98247  22201193.833    22201197.398
  23482127.874    -8873040.24149  -6700269.69945  23482127.461    23482132.148
 03  4 11  0 31 30.0000000  0  8G31G14G 3G15G17G18G23G 9
  22448031.514   -10421800.86649  -8077517.53746  22448030.952    22448034.262
  20563687.880   -24480534.58549 -19056770.48348  20563687.356    20563689.304
  21800650.234   -16817150.63349 -13087414.78947  21800649.854    21800653.279
  20666412.793   -26052454.96049 -20283392.43147  20666412.070    20666415.438
  23077748.235   -12697903.61649  -9840255.62545  23077747.408    23077752.955
  21673544.305   -20033929.23349 -15586570.69547  21673543.728    21673545.779
  22210891.320   -14627340.60349 -11079321.13647  22210890.710    22210894.245
  23483590.875    -8865351.48349  -6694278.43745  23483590.568    23483595.253
 03  4 11  0 32  0.0000000  0  8G31G14G 3G15G17G18G23G 9
  22443441.271   -10445922.84949  -8096313.87546  22443440.729    22443443.956
  20555209.954   -24525086.27749 -19091486.05248  20555209.425    20555211.361
  21805575.588   -16791267.45049 -13067246.07547  21805575.225    21805578.654
  20674602.791   -26009416.43949 -20249855.92547  20674602.051    20674605.422
  23093779.016   -12613661.34949  -9774612.36345  23093778.150    23093783.807
  21683910.080   -19979456.46849 -15544124.39447  21683909.522    21683911.599
  22220600.432   -14576318.86549 -11039563.94747  22220599.809    22220603.347
  23485165.922    -8857074.50049  -6687828.81845  23485165.657    23485170.274
 03  4 11  0 32 30.0000000  0  8G31G14G 3G15G17G18G23G 9
  22438959.796   -10469473.24449  -8114664.81446  22438959.222    22438962.503
  20546831.337   -24569116.26949 -19125795.10448  20546830.785    20546832.721
  21810601.347   -16764857.16749 -13046666.64547  21810600.995    21810604.403
  20682871.509   -25965964.11849 -20215996.98847  20682870.756    20682874.137
  23109862.440   -12529142.55549  -9708753.63145  23109861.546    23109867.246
  21694301.120   -19924851.22649 -15501574.86947  21694300.598    21694302.661
  22230321.722   -14525233.08749 -10999756.86247  22230321.129    22230324.675
  23486852.981    -8848208.99849  -6680920.61345  23486852.610    23486857.305
 03  4 11  0 33  0.0000000  0  8G31G14G 3G15G17G18G23G 9
  22434587.279   -10492450.73449  -8132569.32146  22434586.729    22434590.031
  20538552.222   -24612622.99349 -19159696.41448  20538551.696    20538553.622
  21815727.262   -16737920.30949 -13025676.88147  21815726.916    21815730.345
  20691219.119   -25922097.17349 -20181814.95647  20691218.358    20691221.747
  23125998.504   -12444347.25549  -9642679.43745  23125997.585    23126003.306
  21704717.361   -19870113.35249 -15458921.98947  21704716.827    21704718.922
  22240055.330   -14474083.05249 -10959899.70547  22240054.691    22240058.229
  23488652.119    -8838754.00549  -6673553.04345  23488651.895    23488656.461
 03  4 11  0 33 30.0000000  0  8G31G14G 3G15G17G18G23G 9
  22430323.761   -10514855.69749  -8150027.73046  22430323.250    22430326.437
  20530372.710   -24655606.52449 -19193190.04548  20530372.169    20530374.092
  21820952.962   -16710459.14249 -13004278.57947  21820952.639    21820956.014
  20699645.398   -25877816.70749 -20147310.71047  20699644.644    20699648.031
  23142186.928   -12359277.36749  -9576391.27145  23142185.938    23142191.632
  21715158.604   -19815244.61049 -15416167.14047  21715158.079    21715160.123
  22249800.801   -14422870.07349 -10919993.50147  22249800.194    22249803.741
  23490563.580    -8828710.00349  -6665726.52145  23490563.262    23490567.791
 03  4 11  0 34  0.0000000  0  8G31G14G 3G15G17G18G23G 9
  22426169.388   -10536686.94349  -8167039.06746  22426168.867    22426172.113
  20522292.991   -24698065.59449 -19226275.00448  20522292.463    20522294.370
  21826278.320   -16682474.25849 -12982472.18247  21826277.962    21826281.380
  20708150.553   -25833121.80349 -20112483.51847  20708149.796    20708153.204
  23158427.434   -12273933.00149  -9509889.22845  23158426.535    23158432.261
  21725624.733   -19760245.00549 -15373310.32047  21725624.163    21725626.237
  22259558.347   -14371593.82349 -10880037.99547  22259557.749    22259561.283
  23492586.832    -8818075.99549  -6657440.28145  23492586.700    23492591.383
 03  4 11  0 34 30.0000000  0  8G31G14G 3G15G17G18G23G 9
  22422124.300   -10557943.83649  -8183602.85546  22422123.777    22422127.055
  20514313.259   -24739999.43149 -19258950.68748  20514312.717    20514314.582
  21831703.042   -16653967.14749 -12960258.86047  21831702.697    21831706.087
  20716734.653   -25788012.29149 -20077333.25047  20716733.864    20716737.295
  23174720.078   -12188314.69749  -9443173.73045  23174719.255    23174724.960
  21736115.566   -19705114.95749 -15330351.85347  21736115.021    21736117.099
  22269327.949   -14320254.66249 -10840033.47147  22269327.335    22269330.824
  23494723.035    -8806851.55849  -6648693.90945  23494722.852    23494727.248
 03  4 11  0 35  0.0000000  0  8G31G14G 3G15G17G18G23G 9
  22418188.459   -10578626.80449  -8199719.44946  22418187.941    22418191.170
  20506433.446   -24781407.90049 -19291217.00348  20506432.912    20506434.785
  21837226.656   -16624940.24049 -12937640.49747  21837226.293    21837229.752
  20725397.398   -25742489.12049 -20041860.66147  20725396.636    20725400.071
  23191064.630   -12102424.26949  -9376246.18645  23191063.751    23191069.395
  21746631.065   -19649855.69149 -15287292.70147  21746630.531    21746632.621
  22279109.166   -14268853.88649 -10799980.93547  22279108.564    22279112.078
  23496971.183    -8795037.13349  -6639487.86345  23496970.956    23496975.517
 03  4 11  0 35 30.0000000  0  8G31G14G 3G15G17G18G23G 9
  22414362.165   -10598734.21249  -8215387.55646  22414361.660    22414364.810
  20498653.994   -24822289.19349 -19323072.52748  20498653.467    20498655.333
  21842849.239   -16595393.38249 -12914616.98547  21842848.890    21842852.325
  20734139.138   -25696551.08549 -20006064.80147  20734138.375    20734141.805
  23207460.774   -12016261.32249  -9309106.28745  23207460.089    23207465.728
  21757171.244   -19594466.82449 -15244132.56747  21757170.694    21757172.844
  22288902.357   -14217390.71049 -10759879.77347  22288901.734    22288905.250
  23499331.852    -8782631.53949  -6629821.15645  23499331.691    23499336.052
 03  4 11  0 36  0.0000000  0  8G31G14G 3G15G17G18G23G 9
  22410645.170   -10618266.83149  -8230607.75646  22410644.654    22410647.867
  20490974.722   -24862643.87449 -19354517.70348  20490974.194    20490976.018
  21848570.344   -16565329.11349 -12891190.29347  21848569.970    21848573.351
  20742959.568   -25650199.39049 -19969946.60747  20742958.788    20742962.250
  23223908.512   -11929827.95049  -9241755.67545  23223907.832    23223913.520
  21767735.667   -19538950.35549 -15200872.99447  21767735.131    21767737.277
  22298707.112   -14165866.73149 -10719731.23947  22298706.497    22298710.005
  23501805.025    -8769635.64549  -6619694.47945  23501804.630    23501809.167
 03  4 11  0 36 30.0000000  0  8G31G14G 3G15G17G18G23G 9
  22407037.776   -10637223.71249  -8245379.34046  22407037.251    22407040.462
  20483395.905   -24902470.64949 -19385551.52448  20483395.381    20483397.203
  21854389.562   -16534748.62549 -12867361.34947  21854389.201    21854392.613
  20751858.810   -25603433.56749 -19933505.71147  20751858.038    20751861.474
  23240407.781   -11843124.17849  -9174194.36545  23240407.131    23240412.835
  21778324.407   -19483306.23749 -15157513.95447  21778323.870    21778325.951
  22308523.375   -14114281.77549 -10679535.18047  22308522.781    22308526.316
  23504390.444    -8756048.78349  -6609107.30845  23504390.129    23504394.645
 03  4 11  0 37  0.0000000  0  8G31G14G 3G15G17G18G23G 9
  22403539.974   -10655604.96849  -8259702.38546  22403539.443    22403542.617
  20475917.602   -24941769.45549 -19416173.94048  20475917.078    20475918.877
  21860306.703   -16503653.96149 -12843131.75047  21860306.345    21860309.767
  20760836.766   -25556254.22249 -19896742.59847  20760835.982    20760839.439
  23256958.202   -11756151.37649  -9106423.41745  23256957.483    23256963.278
  21788937.257   -19427535.42849 -15114056.20047  21788936.703    21788938.779
  22318351.192   -14062636.52549 -10639292.15347  22318350.577    22318354.067
  23507088.568    -8741871.16749  -6598059.79345  23507088.012    23507092.426
 03  4 11  0 37 30.0000000  0  8G31G14G 3G15G17G18G23G 9
  22400151.860   -10673409.56849  -8273576.09246  22400151.348    22400154.492
  20468539.971   -24980539.17749 -19446384.08248  20468539.415    20468541.236
  21866321.562   -16472045.83549 -12818502.05447  21866321.181    21866324.581
  20769893.563   -25508660.66749 -19859656.71847  20769892.772    20769896.196
  23273559.792   -11668909.83149  -9038443.06045  23273559.081    23273564.816
  21799574.263   -19371637.83949 -15070499.65347  21799573.689    21799575.836
  22328190.489   -14010930.84749 -10599002.03547  22328189.846    22328193.339
  23509898.967    -8727102.03149  -6586551.39945  23509898.486    23509903.101
 03  4 11  0 38  0.0000000  0  8G31G14G 3G15G17G18G23G 9
  22396873.316   -10690638.46949  -8287001.19146  22396872.788    22396875.918
  20461262.824   -25018780.44949 -19476182.44548  20461262.303    20461264.115
  21872433.503   -16439927.42049 -12793474.72447  21872433.129    21872436.537
  20779028.811   -25460654.35449 -19822249.20947  20779028.048    20779031.485
  23290212.028   -11581401.68449  -8970254.95845  23290211.352    23290217.178
  21810235.027   -19315615.50549 -15026845.90447  21810234.449    21810236.560
  22338040.923   -13959166.57549 -10558666.25147  22338040.296    22338043.767
  23512821.972    -8711742.67449  -6574583.05045  23512821.263    23512825.723
 03  4 11  0 38 30.0000000  0  8G31G14G 3G15G17G18G23G 9
  22393704.518   -10707290.28349  -8299976.62346  22393704.011    22393707.152
  20454086.650   -25056491.48549 -19505567.64048  20454086.101    20454087.902
  21878642.482   -16407299.20549 -12768050.15547  21878642.081    21878645.446
  20788242.859   -25412234.31449 -19784519.31447  20788242.099    20788245.526
  23306915.248   -11493626.38549  -8901858.68245  23306914.499    23306920.253
  21820919.446   -19259467.98949 -14983094.61447  21820918.902    21820921.034
  22347902.666   -13907342.70149 -10518284.03147  22347902.070    22347905.538
  23515857.013    -8695791.68749  -6562153.73445  23515856.481    23515860.992
 03  4 11  0 39  0.0000000  0  8G31G14G 3G15G17G18G23G 9
  22390645.747   -10723364.52749  -8312501.99846  22390645.239    22390648.342
  20447011.508   -25093671.46149 -19534539.02348  20447010.979    20447012.761
  21884948.187   -16374162.50149 -12742229.35847  21884947.796    21884951.176
  20797535.641   -25363400.50049 -19746467.00447  20797534.876    20797538.312
  23323668.986   -11405585.40349  -8833255.38245  23323668.190    23323673.966
  21831627.768   -19203195.48049 -14939245.92747  21831627.249    21831629.389
  22357775.733   -13855459.51649 -10477855.60246  22357775.124    22357778.572
  23519005.165    -8679248.87649  -6549263.21845  23519004.612    23519008.988
 03  4 11  0 39 30.0000000  0  8G31G14G 3G15G17G18G23G 9
  22387696.622   -10738861.95749  -8324577.90046  22387696.091    22387699.257
  20440037.378   -25130320.84649 -19563096.95448  20440036.817    20440038.594
  21891350.210   -16340519.67749 -12716014.17247  21891349.814    21891353.228
  20806906.980   -25314153.83549 -19708092.99047  20806906.189    20806909.633
  23340473.047   -11317279.93449  -8764445.99345  23340472.277    23340478.059
  21842359.569   -19146799.87049 -14895301.31947  21842359.020    21842361.152
  22367659.799   -13803518.31349 -10437381.95446  22367659.202    22367662.679
  23522265.472    -8662115.07049  -6535912.22345  23522264.965    23522269.472
 03  4 11  0 40  0.0000000  0  8G31G14G 3G15G17G18G23G 9
  22384857.480   -10753782.07449  -8336203.96246  22384856.936    22384860.055
  20433164.293   -25166438.88649 -19591240.85448  20433163.745    20433165.515
  21897848.273   -16306372.25349 -12689405.79947  21897847.875    21897851.292
  20816356.914   -25264494.24349 -19669397.21347  20816356.146    20816359.563
  23357327.263   -11228710.93049  -8695431.25545  23357326.469    23357332.224
  21853114.688   -19090281.36349 -14851260.93947  21853114.144    21853116.295
  22377554.979   -13751519.16249 -10396863.16146  22377554.361    22377557.804
  23525638.381    -8644390.19349  -6522100.63645  23525637.979    23525642.489
 03  4 11  0 40 30.0000000  0  8G31G14G 3G15G17G18G23G 9
  22382128.197   -10768124.23349  -8347379.66046  22382127.685    22382130.799
  20426392.487   -25202024.75749 -19618970.07448  20426391.963    20426393.727
  21904442.128   -16271721.28249 -12662405.05247  21904441.750    21904445.167
  20825885.437   -25214421.38649 -19630379.41147  20825884.670    20825888.122
  23374231.331   -11139879.05749  -8626211.66845  23374230.597    23374236.452
  21863893.272   -19033639.66349 -14807124.56747  21863892.692    21863894.882
  22387461.110   -13699461.85949 -10356299.04246  22387460.504    22387463.997
  23529123.668    -8626073.73949  -6507828.10745  23529123.416    23529128.130
 03  4 11  0 41  0.0000000  0  8G31G14G 3G15G17G18G23G 9
  22379508.894   -10781888.65749  -8358105.17946  22379508.399    22379511.552
  20419722.031   -25237078.21549 -19646284.43148  20419721.511    20419723.256
  21911131.399   -16236569.20449 -12635013.83347  21911131.000    21911134.403
  20835492.476   -25163936.01349 -19591040.17147  20835491.719    20835495.186
  23391185.393   -11050785.15049  -8556787.92245  23391184.650    23391190.595
  21874695.016   -18976876.09849 -14762893.23847  21874694.474    21874696.685
  22397378.195   -13647347.20649 -10315690.24046  22397377.578    22397381.128
  23532721.785    -8607166.22049  -6493094.96545  23532721.505    23532726.096
 03  4 11  0 41 30.0000000  0  8G31G14G 3G15G17G18G23G 9
  22376999.538   -10795075.58649  -8368380.69046  22376998.986    22377002.188
  20413152.841   -25271599.36849 -19673184.00148  20413152.319    20413154.070
  21917915.600   -16200917.95149 -12607233.63847  21917915.193    21917918.606
  20845177.985   -25113038.54549 -19551379.81647  20845177.214    20845180.660
  23408189.026   -10961430.30449  -8487160.82845  23408188.308    23408194.336
  21885519.870   -18919991.27249 -14718567.42047  21885519.340    21885521.555
  22407306.093   -13595175.79149 -10275037.20646  22407305.475    22407309.067
  23536432.099    -8587668.02849  -6477901.59045  23536431.847    23536436.617
 03  4 11  0 42  0.0000000  0  8G31G14G 3G15G17G18G23G 9
  22374600.171   -10807684.08849  -8378205.49946  22374599.627    22374602.828
  20406685.237   -25305586.94749 -19699667.80348  20406684.706    20406686.435
  21924794.689   -16164768.15049 -12579064.97147  21924794.281    21924797.725
  20854942.008   -25061728.18549 -19511397.72647  20854941.245    20854944.728
  23425242.332   -10871815.24649  -8417330.99245  23425241.553    23425247.618
  21896367.789   -18862985.08049 -14674147.02647  21896367.270    21896369.485
  22417244.893   -13542946.98949 -10234339.46546  22417244.265    22417247.922
  23540255.112    -8567578.25749  -6462247.25245  23540254.821    23540259.553
 03  4 11  0 42 30.0000000  0  8G31G14G 3G15G17G18G23G 9
  22372310.725   -10819715.56749  -8387580.66746  22372310.152    22372313.326
  20400318.893   -25339042.09249 -19725736.72048  20400318.383    20400320.082
  21931767.965   -16128123.33649 -12550510.57647  21931767.553    21931770.991
  20864784.301   -25010006.85549 -19471095.40447  20864783.511    20864786.981
  23442344.756   -10781942.09649  -8347300.03445  23442343.903    23442349.935
  21907238.488   -18805859.64949 -14629633.72247  21907237.935    21907240.062
  22427194.298   -13490662.88249 -10193598.61546  22427193.637    22427197.284
  23544190.312    -8546898.70149  -6446133.33345  23544190.116    23544194.778
 03  4 11  0 43  0.0000000  0  8G31G14G 3G15G17G18G23G 9
  22370131.418   -10831167.91749  -8396504.55746  22370130.841    22370134.038
  20394054.413   -25371962.25849 -19751388.77048  20394053.880    20394055.548
  21938835.476   -16090983.36049 -12521570.34647  21938835.071    21938838.527
  20874705.104   -24957872.75449 -19430471.43447  20874704.313    20874707.788
  23459496.286   -10691810.30149  -8277067.53245  23459495.539    23459501.524
  21918132.102   -18748613.44949 -14585026.30847  21918131.563    21918133.704
  22437154.549   -13438321.52149 -10152813.15946  22437153.892    22437157.543
  23548238.166    -8525627.72249  -6429558.55645  23548237.964    23548242.511
 03  4 11  0 43 30.0000000  0  8G31G14G 3G15G17G18G23G 9
  22368061.844   -10842043.26449  -8404978.85246  22368061.264    22368064.476
  20387891.363   -25404349.38349 -19776625.46548  20387890.827    20387892.470
  21945996.538   -16053351.89149 -12492247.13547  21945996.143    21945999.612
  20884704.059   -24905328.07449 -19389527.54147  20884703.251    20884706.710
  23476696.422   -10601422.34849  -8206635.43945  23476695.831    23476701.904
  21929048.210   -18691249.00649 -14540326.75647  21929047.656    21929049.803
  22447125.197   -13385925.47149 -10111985.07946  22447124.569    22447128.215
  23552397.965    -8503767.48149  -6412524.60945  23552397.814    23552402.266
 03  4 11  0 44  0.0000000  0  8G31G14G 3G15G17G18G23G 9
  22366102.510   -10852339.97449  -8413002.25946  22366101.960    22366105.093
  20381830.103   -25436201.50349 -19801445.27648  20381829.553    20381831.227
  21953251.039   -16015229.25449 -12462541.19247  21953250.621    21953254.135
  20894781.362   -24852371.53849 -19348262.71947  20894780.534    20894783.993
  23493945.608   -10510778.09749  -8136003.60745  23493944.980    23493951.034
  21939986.960   -18633765.53649 -14495534.45547  21939986.384    21939988.523
  22457106.536   -13333473.24949 -10071113.22946  22457105.859    22457109.516
  23556670.318    -8481316.66549  -6395030.47145  23556670.087    23556674.608
 03  4 11  0 44 30.0000000  0  8G31G14G 3G15G17G18G23G 9
  22364252.955   -10862059.27549  -8420575.72146  22364252.440    22364255.619
  20375870.469   -25467519.45649 -19825848.85048  20375869.939    20375871.582
  21960598.450   -15976618.38849 -12432454.81347  21960598.034    21960601.501
  20904936.712   -24799004.88549 -19306678.33147  20904935.904    20904939.357
  23511243.232   -10419879.47549  -8065173.60145  23511242.445    23511248.411
  21950948.058   -18576164.66849 -14450650.67547  21950947.475    21950949.621
  22467098.299   -13280966.44049 -10030198.84846  22467097.622    22467101.267
  23561054.644    -8458276.65249  -6377077.21245  23561054.422    23561058.993
 03  4 11  0 45  0.0000000  0  8G31G14G 3G15G17G18G23G 9
  22362513.385   -10871200.50349  -8427698.74946  22362512.865    22362516.067
  20370012.680   -25498302.27349 -19849835.44048  20370012.124    20370013.786
  21968038.549   -15937520.22549 -12401988.73347  21968038.134    21968041.625
  20915170.215   -24745227.39349 -19264773.80947  20915169.419    20915172.874
  23528589.035   -10328726.89549  -7994145.67645  23528588.207    23528594.249
  21961931.546   -18518446.17249 -14405675.25347  21961930.961    21961933.099
  22477100.484   -13228404.64149  -9989241.62646  22477099.798    22477103.461
  23565551.018    -8434647.29049  -6358664.73645  23565550.859    23565555.420
 03  4 11  0 45 30.0000000  0  8G31G14G 3G15G17G18G23G 9
  22360883.936   -10879763.50349  -8434371.21746  22360883.402    22360886.541
  20364256.810   -25528549.46449 -19873404.65848  20364256.269    20364257.916
  21975571.086   -15897936.54049 -12371144.31847  21975570.669    21975574.142
  20925481.879   -24691039.32349 -19222549.35647  20925481.061    20925484.511
  23545982.976   -10237321.14849  -7922920.49145  23545982.265    23545988.228
  21972937.327   -18460610.33849 -14360608.38347  21972936.772    21972938.903
  22487113.058   -13175787.94249  -9948241.61446  22487112.407    22487116.033
  23570159.721    -8410428.44749  -6339792.89645  23570159.508    23570164.145
 03  4 11  0 46  0.0000000  0  8G31G14G 3G15G17G18G23G 9
  22359364.265   -10887749.60749  -8440594.13946  22359363.715    22359366.868
  20358602.720   -25558261.98149 -19896557.23848  20358602.163    20358603.760
  21983195.356   -15857870.70149 -12339924.19147  21983194.931    21983198.426
  20935871.392   -24636442.02149 -19180006.00647  20935870.598    20935874.063
  23563424.734   -10145664.39249  -7851499.70845  23563423.971    23563430.059
  21983965.082   -18402659.04449 -14315451.55047  21983964.548    21983966.694
  22497135.873   -13123117.90449  -9907200.04746  22497135.227    22497138.805
  23574880.319    -8385621.64549  -6320462.93545  23574880.100    23574884.828
 03  4 11  0 46 30.0000000  0  8G31G14G 3G15G17G18G23G 9
  22357954.490   -10895157.95149  -8446366.86646  22357953.911    22357957.103
  20353050.551   -25587438.71249 -19919292.33048  20353049.997    20353051.576
  21990911.225   -15817323.63149 -12308329.09047  21990910.829    21990914.316
  20946338.917   -24581434.98749 -19137143.39247  20946338.112    20946341.583
  23580914.317   -10053756.76949  -7779883.43145  23580913.493    23580919.549
  21995015.008   -18344591.53749 -14270204.15947  21995014.448    21995016.595
  22507169.001   -13070393.51849  -9866116.13046  22507168.352    22507172.017
  23579713.064    -8360226.29049  -6300674.32545  23579712.724    23579717.386
 03  4 11  0 47  0.0000000  0  8G31G14G 3G15G17G18G23G 9
  22356654.732   -10901988.33149  -8451689.22546  22356654.160    22356657.317
  20347600.481   -25616078.88649 -19941609.32548  20347599.960    20347601.540
  21998718.433   -15776296.66749 -12276360.04447  21998718.024    21998721.487
  20956884.352   -24526018.28149 -19093961.55947  20956883.571    20956887.030
  23598451.246    -9961599.39549  -7708072.55945  23598450.423    23598456.555
  22006086.925   -18286408.11749 -14224866.45247  22006086.403    22006088.589
  22517212.511   -13017614.81449  -9824989.88546  22517211.858    22517215.484
  23584657.569    -8334242.12549  -6280426.92145  23584657.292    23584662.044
 03  4 11  0 47 30.0000000  0  8G31G14G 3G15G17G18G23G 9
  22355464.798   -10908241.63449  -8456561.92046  22355464.184    22355467.386
  20342252.356   -25644183.33249 -19963508.86848  20342251.822    20342253.411
  22006616.385   -15734792.75649 -12244019.34847  22006615.987    22006619.464
  20967507.597   -24470192.84849 -19050461.23547  20967506.827    20967510.302
  23616035.624    -9869193.27449  -7636067.85345  23616034.778    23616040.902
  22017180.775   -18228109.77749 -14179439.19647  22017180.204    22017182.403
  22527266.126   -12964782.84749  -9783822.15546  22527265.468    22527268.981
  23589714.016    -8307670.55149  -6259721.77745  23589713.681    23589718.436
 03  4 11  0 48  0.0000000  0  8G31G14G 3G15G17G18G23G 9
  22354384.516   -10913918.40749  -8460985.36546  22354383.902    22354387.172
  20337006.179   -25671752.19449 -19984991.07748  20337005.634    20337007.229
  22014604.695   -15692813.95649 -12211308.61247  22014604.287    22014607.799
  20978208.519   -24413959.54849 -19006643.09847  20978207.719    20978211.183
  23633666.978    -9776540.00849  -7563870.56845  23633666.113    23633672.416
  22028296.197   -18169697.77549 -14133923.37647  22028295.668    22028297.827
  22537329.775   -12911898.27649  -9742613.41746  22537329.112    22537332.661
  23594882.014    -8280512.53649  -6238559.68045  23594881.604    23594886.377
 03  4 11  0 48 30.0000000  0  8G31G14G 3G15G17G18G23G 9
  22353414.050   -10919018.23449  -8464959.25346  22353413.444    22353416.657
  20331862.030   -25698784.76049 -20006055.39448  20331861.505    20331863.081
  22022683.246   -15650361.31749 -12178228.65247  22022682.814    22022686.287
  20988987.047   -24357317.96849 -18962506.80747  20988986.237    20988989.743
  23651345.118    -9683640.44149  -7491481.36245  23651344.325    23651350.607
  22039433.417   -18111171.53649 -14088318.53947  22039432.838    22039435.087
  22547403.501   -12858960.46749  -9701363.20446  22547402.848    22547406.494
  23600161.681    -8252767.90749  -6216940.46745  23600161.338    23600165.962
 03  4 11  0 49  0.0000000  0  8G31G14G 3G15G17G18G23G 9
  22352553.313   -10923541.59249  -8468483.94246  22352552.720    22352555.866
  20326819.950   -25725281.12649 -20026701.88948  20326819.386    20326820.942
  22030851.366   -15607437.32449 -12144781.39747  22030850.949    22030854.471
  20999843.141   -24300268.80049 -18918052.92247  20999842.342    20999845.818
  23669070.081    -9590496.01349  -7418901.36245  23669069.254    23669075.520
  22050592.081   -18052531.96949 -14042625.39147  22050591.543    22050593.850
  22557487.261   -12805969.99949  -9660071.94746  22557486.607    22557490.206
  23605552.802    -8224437.53949  -6194864.85345  23605552.426    23605557.036
 03  4 11  0 49 30.0000000  0  8G31G14G 3G15G17G18G23G 9
  22351802.207   -10927488.35949  -8471559.33346  22351801.650    22351804.841
  20321880.009   -25751240.64949 -20046930.06348  20321879.446    20321880.987
  22039108.926   -15564043.74649 -12110968.23647  22039108.503    22039111.976
  21010776.825   -24242812.05849 -18873281.44247  21010776.022    21010779.480
  23686841.344    -9497107.07649  -7346130.82345  23686840.701    23686846.731
  22061772.414   -17993778.95649 -13996843.84547  22061771.893    22061774.164
  22567581.118   -12752926.55849  -9618739.42146  22567580.459    22567584.070
  23611055.328    -8195521.21749  -6172332.63945  23611054.907    23611059.647
 03  4 11  0 50  0.0000000  0  8G31G14G 3G15G17G18G23G 9
  22351160.906   -10930858.70549  -8474185.57246  22351160.304    22351163.480
  20317042.260   -25776663.02549 -20066739.68948  20317041.695    20317043.253
  22047455.497   -15520182.34849 -12076790.54147  22047455.035    22047458.502
  21021788.013   -24184947.87049 -18828192.47747  21021787.210    21021790.705
  23704659.067    -9403474.43249  -7273170.39145  23704658.406    23704664.563
  22072974.326   -17934912.82749 -13950974.15147  22072973.778    22072976.093
  22577685.110   -12699830.26649  -9577365.71246  22577684.404    22577687.962
  23616669.386    -8166019.31649  -6149344.12945  23616669.009    23616673.578
 03  4 11  0 50 30.0000000  0  8G31G14G 3G15G17G18G23G 9
  22350628.591   -10933655.65949  -8476365.01146  22350628.032    22350631.191
  20312306.200   -25801551.15249 -20086133.01648  20312305.643    20312307.198
  22055890.114   -15475858.11449 -12042252.19047  22055889.655    22055893.133
  21032876.136   -24126679.44749 -18782788.53747  21032875.343    21032878.858
  23722522.627    -9309602.23149  -7200023.30445  23722521.690    23722527.906
  22084197.077   -17875936.92049 -13905018.92947  22084196.569    22084198.895
  22587798.506   -12646684.10049  -9535953.13646  22587797.843    22587801.351
  23622394.403    -8135935.19349  -6125901.93145  23622393.887    23622398.359
 03  4 11  0 51  0.0000000  0  8G31G14G 3G15G17G18G23G 9
  22350205.972   -10935876.66349  -8478095.66246  22350205.395    22350208.541
  20307672.318   -25825902.26549 -20105107.89048  20307671.741    20307673.300
  22064412.971   -15431069.98249 -12007352.36647  22064412.545    22064416.058
  21044041.631   -24068004.41849 -18737067.76047  21044040.844    21044044.355
  23740431.874    -9215488.62249  -7126688.08245  23740430.942    23740437.282
  22095441.208   -17816848.77749 -13858976.24147  22095440.665    22095442.969
  22597921.905   -12593485.37649  -9494499.61646  22597921.235    22597924.687
  23628230.234    -8105266.58849  -6102004.31445  23628229.847    23628234.406
 03  4 11  0 51 30.0000000  0  8G31G14G 3G15G17G18G23G 9
  22349892.898   -10937521.80249  -8479377.58746  22349892.321    22349895.478
  20303140.736   -25849715.74549 -20123663.83148  20303140.179    20303141.716
  22073023.856   -15385819.74249 -11972092.46147  22073023.444    22073026.936
  21055284.487   -24008922.87549 -18691030.21247  21055283.681    21055287.194
  23758386.822    -9121134.47849  -7053165.44445  23758385.931    23758392.246
  22106706.684   -17757648.51449 -13812846.19447  22106706.145    22106708.430
  22608055.360   -12540233.87349  -9453004.95046  22608054.709    22608058.152
  23634177.301    -8074013.87549  -6077651.54345  23634177.020    23634181.543
 03  4 11  0 52  0.0000000  0  8G31G14G 3G15G17G18G23G 9
  22349689.084   -10938592.82449  -8480212.14546  22349688.513    22349691.684
  20298711.204   -25872993.05949 -20141801.97948  20298710.665    20298712.187
  22081721.988   -15340110.81849 -11936475.13147  22081721.562    22081725.064
  21066604.357   -23949436.55349 -18644677.25447  21066603.554    21066607.094
  23776387.162    -9026541.95549  -6979457.05445  23776386.281    23776392.622
  22117993.111   -17698337.80749 -13766630.08447  22117992.573    22117994.950
  22618198.518   -12486931.15049  -9411470.38646  22618197.867    22618201.336
  23640235.148    -8042178.91849  -6052845.06845  23640234.976    23640239.402
 03  4 11  0 52 30.0000000  0  8G31G14G 3G15G17G18G23G 9
  22349594.557   -10939089.25049  -8480598.97546  22349594.008    22349597.217
  20294383.876   -25895733.37449 -20159521.69248  20294383.311    20294384.815
  22090507.140   -15293944.40349 -11900501.32147  22090506.740    22090510.304
  21078001.326   -23889545.18149 -18598008.67647  21078000.524    21078004.079
  23794432.728    -8931711.54149  -6905563.29145  23794431.987    23794438.304
  22129300.706   -17638916.25049 -13720327.60546  22129300.164    22129302.489
  22628351.528   -12433576.38149  -9369895.26646  22628350.909    22628354.435
  23646404.021    -8009761.55249  -6027584.76245  23646403.846    23646408.252
 03  4 11  0 53  0.0000000  0  8G31G14G 3G15G17G18G23G 9
  22349608.867   -10939014.38949  -8480540.64246  22349608.308    22349611.490
  20290158.107   -25917939.73749 -20176825.33548  20290157.546    20290159.052
  22099378.472   -15247325.44449 -11864174.88347  22099378.039    22099381.617
  21089474.728   -23829252.20049 -18551027.14947  21089473.911    21089477.462
  23812522.979    -8836647.10249  -6831487.17845  23812522.304    23812528.489
  22140628.723   -17579387.17449 -13673941.33946  22140628.202    22140630.440
  22638514.000   -12380172.57449  -9328281.94346  22638513.334    22638516.888
  23652682.851    -7976765.48349  -6001873.53945  23652682.729    23652687.252
 03  4 11  0 53 30.0000000  0  8G31G14G 3G15G17G18G23G 9
  22349732.254   -10938365.61649  -8480035.10946  22349731.713    22349734.897
  20286034.532   -25939609.18949 -20193710.60448  20286033.991    20286035.479
  22108336.080   -15200252.86949 -11827494.97147  22108335.687    22108339.249
  21101025.050   -23768554.90049 -18503730.56747  21101024.225    21101027.781
  23830658.145    -8741346.96049  -6757227.40045  23830657.339    23830663.619
  22151977.766   -17519747.91249 -13627469.20946  22151977.215    22151979.453
  22648686.207   -12326716.84249  -9286628.14746  22648685.601    22648689.237
  23659072.727    -7943188.35149  -5975709.52145  23659072.316    23659076.708
 03  4 11  0 54  0.0000000  0  8G31G14G 3G15G17G18G23G 9
  22349964.580   -10937144.57549  -8479083.64846  22349964.042    22349967.257
  20282012.997   -25960742.66849 -20210178.23648  20282012.405    20282013.896
  22117379.409   -15152730.14149 -11790464.29647  22117378.997    22117382.561
  21112652.000   -23707454.92949 -18456120.22447  21112651.196    21112654.741
  23848837.541    -8645813.56649  -6682785.86045  23848836.744    23848843.107
  22163347.439   -17460000.01449 -13580912.42646  22163346.894    22163349.114
  22658868.196   -12273210.33049  -9244934.79246  22658867.572    22658871.229
  23665572.283    -7909031.96049  -5949094.14045  23665571.925    23665576.453
 03  4 11  0 54 30.0000000  0  8G31G14G 3G15G17G18G23G 9
  22350305.810   -10935351.59049  -8477686.51746  22350305.276    22350308.504
  20278093.392   -25981340.15649 -20226228.20448  20278092.848    20278094.312
  22126507.947   -15104759.38449 -11753084.50247  22126507.527    22126511.093
  21124355.489   -23645952.63349 -18408196.37247  21124354.684    21124358.251
  23867061.073    -8550047.60349  -6608163.10445  23867060.198    23867066.759
  22174737.844   -17400143.35849 -13534270.90446  22174737.259    22174739.449
  22669059.779   -12219653.09749  -9203201.90046  22669059.167    22669062.903
  23672182.336    -7874296.80149  -5922027.75945  23672181.980    23672186.283
 03  4 11  0 55  0.0000000  0  8G31G14G 3G15G17G18G23G 9
  22350755.632   -10932987.69649  -8475844.52846  22350755.094    22350758.336
  20274275.696   -26001402.41249 -20241861.11348  20274275.111    20274276.567
  22135721.262   -15056343.24649 -11715357.66547  22135720.809    22135724.435
  21136135.449   -23584048.87449 -18359959.70447  21136134.599    21136138.161
  23885328.766    -8454050.84349  -6533360.51845  23885327.931    23885334.519
  22186148.662   -17340179.28549 -13487545.67946  22186148.079    22186150.263
  22679260.994   -12166045.70849  -9161429.94546  22679260.335    22679264.100
  23678902.019    -7838984.13449  -5894511.40245  23678901.707    23678906.026
 03  4 11  0 55 30.0000000  0  8G31G14G 3G15G17G18G23G 9
  22351314.095   -10930053.30049  -8473557.99246  22351313.498    22351316.721
  20270559.815   -26020929.32249 -20257076.87148  20270559.254    20270560.730
  22145018.932   -15007483.45149 -11677285.11647  22145018.503    22145022.182
  21147991.606   -23521744.26349 -18311410.67347  21147990.791    21147994.380
  23903640.169    -8357824.25849  -6458378.82745  23903639.425    23903645.908
  22197579.899   -17280107.77649 -13440736.73746  22197579.345    22197581.517
  22689471.775   -12112388.21149  -9119618.93146  22689471.086    22689474.777
  23685731.573    -7803094.82849  -5866545.69945  23685731.279    23685735.572
 03  4 11  0 56  0.0000000  0  8G31G14G 3G15G17G18G23G 9
  22351981.096   -10926548.20749  -8470826.75646  22351980.506    22351983.734
  20266945.961   -26039920.23049 -20271874.96248  20266945.386    20266946.842
  22154400.820   -14958181.49949 -11638868.03747  22154400.348    22154404.034
  21159924.183   -23459038.43249 -18262549.01447  21159923.350    21159926.896
  23921995.105    -8261368.35649  -6383218.45845  23921994.368    23922000.892
  22209031.635   -17219928.60249 -13393843.90046  22209031.058    22209033.231
  22699692.049   -12058680.00349  -9077768.40946  22699691.401    22699695.210
  23692670.824    -7766628.95649  -5838130.72545  23692670.417    23692674.763
 03  4 11  0 56 30.0000000  0  8G31G14G 3G15G17G18G23G 9
  22352756.341   -10922474.05649  -8467652.09846  22352755.769    22352759.033
  20263433.795   -26058376.60349 -20286256.53648  20263433.227    20263434.676
  22163866.152   -14908440.91349 -11600109.16947  22163865.705    22163869.398
  21171932.751   -23395933.15549 -18213376.10047  21171931.926    21171935.454
  23940393.534    -8164684.95149  -6307880.81145  23940392.641    23940399.247
  22220503.668   -17159642.94849 -13346868.09846  22220503.096    22220505.191
  22709921.923   -12004922.16349  -9035879.20946  22709921.288    22709924.997
  23699719.225    -7729588.44349  -5809267.99445  23699718.936    23699723.399
 03  4 11  0 57  0.0000000  0  8G31G14G 3G15G17G18G23G 9
  22353639.843   -10917831.36049  -8464034.41746  22353639.267    22353642.564
  20260023.440   -26076298.34149 -20300221.50348  20260022.868    20260024.275
  22173414.551   -14858263.77449 -11561010.12247  22173414.105    22173417.778
  21184017.214   -23332428.84849 -18163892.24547  21184016.421    21184019.959
  23958834.784    -8067775.75449  -6232367.22545  23958834.014    23958840.520
  22231995.841   -17099251.04749 -13299809.49446  22231995.260    22231997.437
  22720161.234   -11951114.52949  -8993951.20746  22720160.560    22720164.252
  23706876.986    -7691973.83649  -5779957.91045  23706876.621    23706881.187
 03  4 11  0 57 30.0000000  0  8G31G14G 3G15G17G18G23G 9
  22354631.448   -10912620.23449  -8459973.80846  22354630.911    22354634.193
  20256714.792   -26093685.31849 -20313769.78148  20256714.209    20256715.648
  22183045.766   -14807651.64849 -11521572.12347  22183045.317    22183048.988
  21196177.595   -23268525.66749 -18114097.57747  21196176.772    21196180.321
  23977318.953    -7970641.39649  -6156678.18145  23977318.178    23977324.620
  22243508.367   -17038752.65949 -13252667.92546  22243507.780    22243509.930
  22730410.012   -11897256.69149  -8951984.08146  22730409.375    22730413.052
  23714143.909    -7653785.71649  -5750200.93245  23714143.580    23714148.008
 03  4 11  0 58  0.0000000  0  8G31G14G 3G15G17G18G23G 9
  22355731.020   -10906841.67549  -8455471.04246  22355730.480    22355733.797
  20253507.784   -26110538.13449 -20326901.82448  20253507.199    20253508.639
  22192759.175   -14756607.26349 -11481797.29747  22192758.762    22192762.442
  21208413.749   -23204224.48449 -18063992.78147  21208412.911    21208416.453
  23995845.742    -7873283.17149  -6080814.71045  23995844.962    23995851.382
  22255040.940   -16978148.44149 -13205443.87846  22255040.356    22255042.558
  22740668.338   -11843349.16049  -8909978.23746  22740667.683    22740671.361
  23721519.783    -7615025.37149  -5719998.06745  23721519.463    23721523.885
 03  4 11  0 58 30.0000000  0  8G31G14G 3G15G17G18G23G 9
  22356938.444   -10900497.01549  -8450527.16446  22356937.854    22356941.143
  20250402.353   -26126857.26749 -20339618.01448  20250401.779    20250403.190
  22202554.373   -14705133.35149 -11441687.77947  22202553.932    22202557.552
  21220725.407   -23139526.39949 -18013578.70847  21220724.588    21220728.124
  24014414.703    -7775702.75549  -6004778.09845  24014413.967    24014420.458
  22266593.539   -16917439.30449 -13158138.08346  22266592.939    22266595.159
  22750936.003   -11789392.51949  -8867934.12646  22750935.325    22750939.073
  23729004.319    -7575694.32449  -5689350.49745  23729004.061    23729008.317
 03  4 11  0 59  0.0000000  0  8G31G14G 3G15G17G18G23G 9
  22358253.473   -10893586.31749  -8445142.21846  22358252.933    22358256.203
  20247398.470   -26142642.69749 -20351918.33548  20247397.898    20247399.309
  22212430.966   -14653231.51549 -11401244.81647  22212430.544    22212434.166
  21233112.578   -23074431.63949 -17962855.54247  21233111.713    21233115.265
  24033025.859    -7677901.13049  -5928569.10845  24033025.112    24033031.469
  22278166.115   -16856625.27749 -13110750.55946  22278165.517    22278167.758
  22761213.115   -11735386.17449  -8825851.28846  22761212.440    22761216.187
  23736597.315    -7535792.82349  -5658258.42345  23736596.947    23736601.336
 03  4 11  0 59 30.0000000  0  8G31G14G 3G15G17G18G23G 9
  22359675.981   -10886111.25949  -8439317.49846  22359675.409    22359678.707
  20244495.914   -26157895.61549 -20363803.70648  20244495.318    20244496.776
  22222388.423   -14600905.01349 -11360470.94047  22222387.961    22222391.625
  21245574.853   -23008941.71649 -17911824.44747  21245574.035    21245577.592
  24051678.654    -7579880.05449  -5852189.10845  24051677.920    24051684.313
  22289758.448   -16795707.41549 -13063282.11546  22289757.842    22289760.095
  22771499.437   -11681331.03249  -8783730.42646  22771498.789    22771502.558
  23744298.413    -7495323.01349  -5626723.51945  23744298.155    23744302.474
 03  4 11  1  0  0.0000000  0  8G31G14G 3G15G17G18G23G 9
  22361205.950   -10878071.18749  -8433052.51746  22361205.390    22361208.726
  20241694.922   -26172614.68349 -20375273.10148  20241694.347    20241695.779
  22232426.489   -14548154.46549 -11319366.64346  22232426.052    22232429.707
  21258112.601   -22943055.59149 -17860484.63147  21258111.785    21258115.337
  24070373.157    -7481639.73849  -5775638.26745  24070372.428    24070378.941
  22301370.552   -16734684.77749 -13015732.03446  22301370.013    22301372.346
  22781795.345   -11627225.70849  -8741570.46146  22781794.682    22781798.508
  23752107.945    -7454284.21849  -5594745.24545  23752107.618    23752112.031
 03  4 11  1  0 30.0000000  0  8G31G14G 3G15G17G18G23G 9
  22362843.138   -10869467.85249  -8426348.63946  22362842.556    22362845.807
  20238995.332   -26186801.44449 -20386327.70548  20238994.706    20238996.121
  22242544.658   -14494983.43149 -11277934.70746  22242544.237    22242547.817
  21270725.390   -22876775.04149 -17808837.46947  21270724.564    21270728.139
  24089109.161    -7383182.23849  -5698918.20945  24089108.307    24089114.781
  22313002.620   -16673558.33949 -12968101.07346  22313002.050    22313004.315
  22792100.584   -11573071.21249  -8699372.18046  22792099.928    22792103.799
  23760025.099    -7412678.66249  -5562325.34045  23760024.887    23760029.312
 03  4 11  1  1  0.0000000  0  8G31G14G 3G15G17G18G23G 9
  22364587.326   -10860302.54049  -8419206.84846  22364586.679    22364589.908
  20236396.795   -26200456.62449 -20396968.09548  20236396.174    20236397.625
  22252742.210   -14441394.98049 -11236177.49546  22252741.777    22252745.355
  21283412.962   -22810101.31149 -17756883.93647  21283412.140    21283415.744
  24107886.078    -7284509.45249  -5622030.38845  24107885.169    24107891.671
  22324654.210   -16612328.78249 -12920389.76546  22324653.644    22324655.952
  22802415.185   -11518868.07749  -8657135.98946  22802414.526    22802418.281
  23768050.107    -7370507.69649  -5529464.84545  23768049.882    23768054.336
 03  4 11  1  1 30.0000000  0  8G31G14G 3G15G17G18G23G 9
  22366438.357   -10850575.20349  -8411627.11346  22366437.717    22366440.988
  20233899.491   -26213579.97049 -20407194.07048  20233898.893    20233900.318
  22263018.832   -14387390.65649 -11194096.23046  22263018.433    22263022.034
  21296175.450   -22743034.10749 -17704623.79847  21296174.615    21296178.215
  24126703.767    -7185621.58449  -5544974.97445  24126702.831    24126709.460
  22336325.445   -16550995.81549 -12872597.85346  22336324.914    22336327.241
  22812739.055   -11464615.39949  -8614861.19546  22812738.420    22812742.233
  23776182.389    -7327771.59749  -5496164.00845  23776182.042    23776186.817
 03  4 11  1  2  0.0000000  0  8G31G14G 3G15G17G18G23G 9
  22368396.034   -10840287.62649  -8403610.82546  22368395.402    22368398.651
  20231503.212   -26226172.37949 -20417006.32348  20231502.612    20231504.044
  22273374.161   -14332973.24349 -11151693.07946  22273373.754    22273377.379
  21309012.455   -22675575.17149 -17652058.41547  21309011.638    21309015.255
  24145561.959    -7086521.21549  -5467753.97045  24145561.065    24145567.701
  22348016.187   -16489560.37649 -12824726.10846  22348015.671    22348018.028
  22823072.292   -11410313.95849  -8572548.40646  22823071.656    22823075.486
  23784421.928    -7284472.53449  -5462424.47645  23784421.527    23784426.337
 03  4 11  1  2 30.0000000  0  8G31G14G 3G15G17G18G23G 9
  22370460.378   -10829439.62449  -8395157.85246  22370459.743    22370462.976
  20229207.950   -26238233.75649 -20426404.79348  20229207.401    20229208.834
  22283807.865   -14278144.09049 -11108969.09846  22283807.441    22283811.047
  21321924.084   -22607724.21549 -17599187.57147  21321923.270    21321926.874
  24164460.748    -6987208.25049  -5390367.30845  24164459.902    24164466.271
  22359726.646   -16428021.85849 -12776774.03846  22359726.094    22359728.492
  22833415.040   -11355962.87549  -8530196.93746  22833414.386    22833418.109
  23792768.660    -7240610.61149  -5428246.37345  23792768.239    23792773.007
 03  4 11  1  3  0.0000000  0  8G31G14G 3G15G17G18G23G 9
  22372630.972   -10818033.05349  -8386269.62146  22372630.351    22372633.605
  20227013.621   -26249765.14549 -20435390.27848  20227013.050    20227014.464
  22294319.261   -14222906.52049 -11065926.85646  22294318.825    22294322.378
  21334910.023   -22539482.78849 -17546012.45547  21334909.220    21334912.835
  24183399.512    -6887684.54249  -5312816.44245  24183398.882    24183405.182
  22371456.411   -16366381.28449 -12728742.43646  22371455.883    22371458.339
  22843766.989   -11301562.92549  -8487807.38046  22843766.319    22843770.066
  23801222.055    -7196187.85049  -5393631.24345  23801221.697    23801226.312
 03  4 11  1  3 30.0000000  0  9G31G25G14G 3G15G17G18G23G 9
  22374906.915   -10806072.73149  -8376949.89446  22374906.305    22374909.552
  24527282.540    -3736920.01959  -2888489.68245  24527282.176    24527288.749
  20224919.328   -26260770.80749 -20443966.10848  20224918.720    20224920.144
  22304907.102   -14167267.07149 -11022571.46246  22304906.664    22304910.224
  21347969.424   -22470855.48649 -17492536.67147  21347968.579    21347972.177
  24202377.021    -6787956.04149  -5235105.97645  24202376.294    24202382.789
  22383204.848   -16304643.05949 -12680634.75046  22383204.310    22383206.738
  22854127.454   -11247118.14749  -8445382.89746  22854126.798    22854130.556
  23809781.024    -7151209.27449  -5358583.02945  23809780.731    23809785.422
 03  4 11  1  4  0.0000000  0  9G31G25G14G 3G15G17G18G23G 9
  22377289.239   -10793553.75149  -8367194.86146  22377288.596    22377291.798
  24508663.810    -3834760.98149  -2964729.20145  24508663.516    24508670.120
  20222925.974   -26271245.53249 -20452128.22548  20222925.410    20222926.832
  22315572.086   -14111222.28349 -10978900.22246  22315571.691    22315575.260
  21361103.156   -22401837.06949 -17438756.11347  21361102.357    21361105.961
  24221394.734    -6688017.94249  -5157232.20145  24221393.998    24221400.310
  22394972.869   -16242801.52849 -12632446.56146  22394972.343    22394974.838
  22864497.637   -11192622.58549  -8402918.84146  22864497.018    22864500.730
  23818446.866    -7105670.52349  -5323098.29545  23818446.592    23818451.108
 03  4 11  1  4 30.0000000  0  9G31G25G14G 3G15G17G18G23G 9
  22379777.407   -10780478.38649  -8357006.26546  22379776.763    22379780.033
  24490034.658    -3932656.55949  -3041011.28545  24490034.373    24490041.067
  20221033.403   -26281191.00849 -20459877.93748  20221032.840    20221034.250
  22326313.579   -14054775.54049 -10934915.77346  22326313.185    22326316.757
  21374311.013   -22332429.67349 -17384672.46347  21374310.183    21374313.805
  24240451.814    -6587872.05249  -5079196.51445  24240450.985    24240457.625
  22406760.400   -16180858.14649 -12584179.00646  22406759.813    22406762.335
  22874877.275   -11138077.37149  -8360416.10046  22874876.632    22874880.345
  23827218.742    -7059573.81149  -5287178.78645  23827218.460    23827222.966
 03  4 11  1  5  0.0000000  0  9G31G25G14G 3G15G17G18G23G 9
  22382371.284   -10766847.45149  -8346384.77646  22382370.677    22382373.880
  24471395.506    -4030604.37249  -3117334.04145  24471395.366    24471402.001
  20219241.438   -26290607.70649 -20467215.61848  20219240.881    20219242.323
  22337131.094   -13997929.15649 -10890619.91946  22337130.696    22337134.266
  21387592.677   -22262633.94849 -17330286.21447  21387591.858    21387595.485
  24259548.317    -6487520.31649  -5001000.43145  24259547.374    24259554.016
  22418567.209   -16118813.00449 -12535832.16646  22418566.649    22418569.076
  22885266.401   -11083482.42649  -8317874.59246  22885265.760    22885269.493
  23836096.642    -7012920.42849  -5250825.51145  23836096.354    23836100.793
 03  4 11  1  5 30.0000000  0  9G31G25G14G 3G15G17G18G23G 9
  22385070.584   -10752662.60349  -8335331.66446  22385069.959    22385073.198
  24452747.059    -4128602.28549  -3193695.85445  24452746.657    24452753.461
  20217549.955   -26299496.67049 -20474142.08048  20217549.402    20217550.806
  22348024.039   -13940686.31049 -10846015.13446  22348023.645    22348027.236
  21400947.962   -22192451.43549 -17275598.57147  21400947.173    21400950.801
  24278683.486    -6386964.61249  -4922645.40945  24278682.487    24278689.205
  22430393.258   -16056666.98549 -12487406.71846  22430392.712    22430395.113
  22895664.784   -11028838.34249  -8275294.81046  22895664.182    22895667.937
  23845080.140    -6965712.09849  -5214039.78845  23845079.865    23845084.352
 03  4 11  1  6  0.0000000  0  8G31G25G14G 3G15G18G23G 9
  22387874.841   -10737925.87049  -8323848.49846  22387874.257    22387877.491
  24434089.426    -4226648.13549  -3270095.02445  24434089.012    24434095.807
  20215958.621   -26307859.34449 -20480658.43948  20215958.023    20215959.426
  22358991.847   -13883050.43049 -10801104.08246  22358991.472    22358995.037
  21414376.583   -22121883.79049 -17220610.82447  21414375.756    21414379.401
  22442238.284   -15994421.21249 -12438903.53146  22442237.722    22442240.112
  22906072.331   -10974146.01749  -8232677.41746  22906071.687    22906075.543
  23854168.768    -6917951.13149  -5176823.44345  23854168.433    23854173.021
 03  4 11  1  6 30.0000000  0  8G31G25G14G 3G15G18G23G 9
  22390784.049   -10722638.03549  -8311935.91046  22390783.463    22390786.675
  24415423.219    -4324739.45949  -3346529.62045  24415422.705    24415429.310
  20214467.259   -26315696.32649 -20486765.17448  20214466.686    20214468.100
  22370033.949   -13825023.99049 -10755888.70446  22370033.548    22370037.159
  21427878.345   -22050931.53549 -17165323.38147  21427877.549    21427881.223
  22454102.247   -15932075.67749 -12390322.61246  22454101.679    22454104.077
  22916489.215   -10919405.15149  -8190022.22846  22916488.594    22916492.439
  23863362.291    -6869638.67649  -5139177.38745  23863361.898    23863366.521
 03  4 11  1  7  0.0000000  0  8G31G25G14G 3G15G18G23G 9
  22393798.261   -10706798.52849  -8299593.44346  22393797.676    22393800.881
  24396749.032    -4422871.89649  -3422996.25245  24396748.643    24396755.076
  20213076.189   -26323006.27449 -20492461.22848  20213075.629    20213077.064
  22381150.212   -13766607.48449 -10710369.38146  22381149.822    22381153.474
  21441453.455   -21979593.80949 -17109735.56347  21441452.661    21441456.366
  22465985.552   -15869628.91949 -12341662.83246  22465984.952    22465987.297
  22926915.700   -10864614.08849  -8147327.90946  22926915.007    22926918.839
  23872660.872    -6820774.31849  -5101101.24945  23872660.431    23872665.074
 03  4 11  1  7 30.0000000  0  8G31G25G14G 3G15G18G23G 9
  22396916.690   -10690410.78149  -8286823.78346  22396916.098    22396919.363
  24378067.326    -4521045.26249  -3499494.76145  24378066.954    24378073.062
  20211784.874   -26329792.19549 -20497748.95248  20211784.303    20211785.716
  22392339.918   -13707805.41549 -10664549.62046  22392339.476    22392343.132
  21455101.319   -21907873.72049 -17053849.80447  21455100.553    21455104.279
  22477887.492   -15807083.47549 -12292926.13046  22477886.903    22477889.289
  22937351.215   -10809774.94749  -8104596.12046  22937350.542    22937354.408
  23882063.780    -6771361.56649  -5062597.79645  23882063.482    23882068.112
 03  4 11  1  8  0.0000000  0  8G31G25G14G 3G15G18G23G 9
  22400140.044   -10673472.09049  -8273624.82046  22400139.476    22400142.697
  24359378.796    -4619252.90949  -3576019.98645  24359378.613    24359384.626
  20210593.889   -26336050.84949 -20502625.81448  20210593.307    20210594.722
  22403603.134   -13648616.84249 -10618428.67446  22403602.728    22403606.441
  21468822.621   -21835768.36749 -16997663.84847  21468821.774    21468825.484
  22489809.043   -15744435.77149 -12244109.76946  22489808.380    22489810.783
  22947796.740   -10754883.79349  -8061823.81446  22947796.031    22947799.877
  23891571.499    -6721398.10849  -5023665.22545  23891571.200    23891575.728
 03  4 11  1  8 30.0000000  0  8G31G25G14G 3G15G18G23G 9
  22403467.166   -10655987.92549  -8260000.80646  22403466.573    22403469.871
  24340683.438    -4717496.67449  -3652573.36945  24340683.266    24340689.221
  20209502.293   -26341787.19649 -20507095.68348  20209501.733    20209503.133
  22414938.633   -13589048.44049 -10572011.76746  22414938.231    22414941.936
  21482616.157   -21763282.94749 -16941181.72547  21482615.295    21482619.009
  22501749.106   -15681689.98949 -12195216.97446  22501748.514    22501750.936
  22958251.224   -10699944.80349  -8019014.23946  22958250.554    22958254.462
  23901182.884    -6670889.80649  -4984308.09045  23901182.665    23901187.167
 03  4 11  1  9  0.0000000  0  8G31G25G14G 3G15G18G23G 9
  22406897.989   -10637958.91649  -8245952.24346  22406897.367    22406900.647
  24321981.898    -4815773.66349  -3729152.62845  24321981.463    24321987.626
  20208510.026   -26347001.42049 -20511158.71048  20208509.460    20208510.849
  22426346.012   -13529102.37249 -10525300.57846  22426345.604    22426349.331
  21496481.867   -21690417.81349 -16884403.72747  21496481.076    21496484.803
  22513707.958   -15618846.11349 -12146247.74246  22513707.354    22513709.683
  22968715.007   -10644957.43449  -7976166.95446  22968714.331    22968718.239
  23910897.861    -6619837.79249  -4944527.27445  23910897.581    23910902.142
 03  4 11  1  9 30.0000000  0  8G31G25G14G 3G15G18G23G 9
  22410432.221   -10619386.34249  -8231480.11946  22410431.611    22410434.870
  24303274.422    -4914080.74549  -3805755.34745  24303274.044    24303280.226
  20207617.016   -26351694.09749 -20514815.32748  20207616.468    20207617.845
  22437824.741   -13468781.13449 -10478297.04146  22437824.367    22437828.090
  21510419.824   -21617173.87849 -16827330.55247  21510418.967    21510422.682
  22525685.458   -15555904.32949 -12097202.21846  22525684.823    22525687.124
  22979187.976   -10589921.62049  -7933281.93946  22979187.279    22979191.176
  23920715.949    -6568243.17649  -4904323.66945  23920715.593    23920720.254
 03  4 11  1 10  0.0000000  0  8G31G25G14G 3G15G18G23G 9
  22414069.916   -10600270.17949  -8216584.42046  22414069.343    22414072.622
  24284561.905    -5012414.12649  -3882378.56145  24284561.768    24284567.704
  20206823.330   -26355864.94249 -20518065.32848  20206822.788    20206824.127
  22449374.768   -13408085.74949 -10431001.97246  22449374.361    22449378.102
  21524429.897   -21543550.62049 -16769961.80947  21524429.048    21524432.750
  22537681.678   -15492863.50049 -12048079.51946  22537681.068    22537683.447
  22989670.402   -10534836.01549  -7890358.11246  22989669.743    22989673.624
  23930637.349    -6516106.26949  -4863697.51045  23930637.064    23930641.490
 03  4 11  1 10 30.0000000  0  9G31G25G14G11G 3G15G18G23G 9
  22417810.224   -10580614.77849  -8201268.52746  22417809.633    22417812.916
  24265844.313    -5110774.31049  -3959022.65745  24265844.266    24265850.244
  20206128.269   -26359517.56549 -20520911.51348  20206127.719    20206129.089
  24673110.178    -1726231.60759  -1326343.23045  24673109.912    24673112.470
  22460994.780   -13347022.21349 -10383420.02046  22460994.377    22460998.135
  21538511.325   -21469552.14949 -16712300.69247  21538510.489    21538514.202
  22549696.049   -15429727.07549 -11998882.33146  22549695.511    22549697.929
  23000161.693   -10479703.77849  -7847397.95646  23000161.059    23000164.951
  23940661.052    -6463431.62149  -4822652.31645  23940660.646    23940665.147
 03  4 11  1 11  0.0000000  0  9G31G25G14G11G 3G15G18G23G 9
  22421652.764   -10560422.16049  -8185534.03846  22421652.183    22421655.438
  24247122.089    -5209159.04649  -4035685.87545  24247122.097    24247128.101
  20205531.517   -26362653.51349 -20523355.09848  20205530.992    20205532.336
  24654026.490    -1826517.34249  -1404487.89845  24654026.173    24654028.928
  22472684.195   -13285593.84949 -10335553.79046  22472683.815    22472687.569
  21552663.847   -21395180.25049 -16654348.59247  21552662.992    21552666.718
  22561728.601   -15366495.91949 -11949611.33046  22561728.031    22561730.418
  23010661.852   -10424525.27649  -7804401.74846  23010661.211    23010665.045
  23950786.482    -6410221.57949  -4781189.94745  23950786.156    23950790.866
 03  4 11  1 11 30.0000000  0  9G31G25G14G11G 3G15G18G23G 9
  22425598.405   -10539687.51249  -8169377.18946  22425597.822    22425601.143
  24228397.130    -5307559.67249  -4112361.48245  24228396.940    24228402.871
  20205034.108   -26365267.43649 -20525391.91148  20205033.556    20205034.926
  24634953.856    -1926744.52249  -1482586.95845  24634953.467    24634956.265
  22484443.742   -13223796.82849 -10287400.30646  22484443.374    22484447.193
  21566888.429   -21320429.64649 -16596101.39647  21566887.614    21566891.348
  22573780.152   -15303163.96749 -11900261.77646  22573779.628    22573782.110
  23021171.959   -10369294.22549  -7761364.58146  23021171.355    23021175.198
  23961014.694    -6356471.68249  -4739306.90445  23961014.265    23961019.057
 03  4 11  1 12  0.0000000  0  9G31G25G14G11G 3G15G18G23G 9
  22429646.156   -10518416.55349  -8152802.42546  22429645.580    22429648.847
  24209668.695    -5405978.11249  -4189050.97245  24209668.375    24209674.228
  20204635.014   -26367364.61449 -20527026.06348  20204634.463    20204635.806
  24615891.864    -2026915.77049  -1560642.41545  24615891.393    24615894.230
  22496272.191   -13161638.13049 -10238964.98746  22496271.835    22496275.633
  21581183.998   -21245305.80449 -16537563.36247  21581183.218    21581186.986
  22585850.128   -15239735.96349 -11850837.38646  22585849.601    22585852.141
  23031691.246   -10314015.22249  -7718290.06246  23031690.592    23031694.410
  23971344.480    -6302187.89849  -4697007.85345  23971344.174    23971348.852
 03  4 11  1 12 30.0000000  0  9G31G25G14G11G 3G15G18G23G 9
  22433796.275   -10496607.74049  -8135808.55946  22433795.676    22433798.937
  24190937.936    -5504408.65849  -4265749.89645  24190937.572    24190943.316
  20204334.678   -26368942.89149 -20528255.87848  20204334.130    20204335.447
  24596841.440    -2127025.97649  -1638650.31545  24596841.071    24596843.856
  22508169.432   -13099117.87349 -10190247.93746  22508169.069    22508172.852
  21595551.062   -21169806.73949 -16478732.95047  21595550.272    21595553.981
  22597938.911   -15176209.11749 -11801335.96846  22597938.362    22597940.887
  23042220.260   -10258685.05549  -7675175.67146  23042219.573    23042223.443
  23981776.241    -6247368.77049  -4654291.67045  23981775.832    23981780.660
 03  4 11  1 13  0.0000000  0  9G31G25G14G11G 3G15G18G23G 9
  22438047.880   -10474265.44749  -8118398.98546  22438047.253    22438050.557
  24172204.902    -5602851.59749  -4342458.47545  24172204.361    24172210.084
  20204132.345   -26370006.05049 -20529084.30648  20204131.791    20204133.144
  24577802.467    -2227076.44549  -1716611.68045  24577802.162    24577804.859
  22520134.481   -13036241.29249 -10141253.23246  22520134.095    22520137.944
  21609988.691   -21093936.36849 -16419613.20547  21609987.907    21609991.658
  22610045.958   -15112586.46749 -11751759.90246  22610045.391    22610047.854
  23052758.428   -10203306.40549  -7632023.49846  23052757.798    23052761.714
  23992308.962    -6192018.82249  -4611161.83345  23992308.611    23992313.476
 03  4 11  1 13 30.0000000  0  9G31G25G14G11G 3G15G18G23G 9
  22442401.120   -10451389.16249  -8100573.32546  22442400.509    22442403.777
  24153470.087    -5701302.60849  -4419173.32945  24153469.531    24153475.304
  20204028.214   -26370553.17549 -20529510.63048  20204027.673    20204028.981
  24558775.578    -2327063.10749  -1794523.32045  24558775.224    24558778.051
  22532167.179   -12973009.13949 -10091981.45846  22532166.795    22532170.571
  21624497.182   -21017693.95049 -16360203.56347  21624496.403    21624500.122
  22622171.486   -15048866.40149 -11702107.92446  22622170.897    22622173.396
  23063306.335   -10147877.56349  -7588832.21446  23063305.656    23063309.490
  24002942.838    -6136138.01149  -4567618.34845  24002942.419    24002947.187
 03  4 11  1 14  0.0000000  0  9G31G25G14G11G 3G15G18G23G 9
  22446855.521   -10427981.22649  -8082333.38546  22446854.876    22446858.123
  24134734.311    -5799759.75149  -4495892.97645  24134733.582    24134739.367
  20204021.994   -26370585.95349 -20529536.16448  20204021.437    20204022.761
  24539761.065    -2426984.99549  -1872384.48845  24539760.797    24539763.633
  22544266.904   -12909425.03149 -10042435.44046  22544266.509    22544270.303
  21639076.116   -20941081.25949 -16300505.37947  21639075.310    21639079.055
  22634315.324   -14985050.20649 -11652381.03646  22634314.780    22634317.210
  23073863.581   -10092399.20649  -7545602.34846  23073862.857    23073866.635
  24013677.151    -6079728.78349  -4523663.10145  24013676.748    24013681.556
 03  4 11  1 14 30.0000000  0  9G31G25G14G11G 3G15G18G23G 9
  22451410.773   -10404043.11849  -8063680.33246  22451410.182    22451413.404
  24115997.675    -5898220.03949  -4572615.09245  24115997.134    24116002.819
  20204113.465   -26370105.10849 -20529161.47648  20204112.914    20204114.293
  24520759.259    -2526840.03049  -1950193.57045  24520758.992    24520761.740
  22556433.051   -12845491.67649  -9992617.27746  22556432.637    22556436.454
  21653725.269   -20864099.43449 -16240519.56847  21653724.478    21653728.239
  22646477.634   -14921137.39749 -11602578.87946  22646477.040    22646479.395
  23084430.156   -10036871.11549  -7502333.71946  23084429.462    23084433.334
  24024511.648    -6022792.98349  -4479297.56045  24024511.226    24024516.110
 03  4 11  1 15  0.0000000  0  9G31G25G14G11G 3G15G18G23G 9
  22456066.663   -10379576.38649  -8044615.36546  22456066.079    22456069.299
  24097260.876    -5996681.25149  -4649337.92545  24097260.453    24097266.038
  20204302.495   -26369111.85049 -20528387.50148  20204301.923    20204303.299
  24501770.561    -2626626.34049  -2027949.08445  24501770.268    24501773.125
  22568665.149   -12781211.58449  -9942528.92946  22568664.759    22568668.515
  21668444.470   -20786749.54349 -16180246.94647  21668443.669    21668447.457
  22658658.118   -14857128.82949 -11552702.08446  22658657.478    22658659.878
  23095006.283    -9981293.30249  -7459026.36146  23095005.600    23095009.490
  24035445.995    -5965332.35049  -4434523.05345  24035445.527    24035450.490
 03  4 11  1 15 30.0000000  0  9G31G25G14G11G 3G15G18G23G 9
  22460822.758   -10354582.84849  -8025139.88746  22460822.176    22460825.455
  24078524.561    -6095140.75949  -4726059.44145  24078524.125    24078529.687
  20204588.806   -26367607.30349 -20527215.11948  20204588.235    20204589.578
  24482795.246    -2726342.31349  -2105649.78045  24482794.904    24482797.726
  22580962.651   -12716588.03949  -9892172.95746  22580962.245    22580966.089
  21683233.446   -20709032.96349 -16119688.60247  21683232.650    21683236.449
  22670856.749   -14793024.77149 -11502750.90146  22670856.163    22670858.501
  23105591.742    -9925665.96649  -7415680.40146  23105591.072    23105594.970
  24046479.915    -5907348.74849  -4389341.02645  24046479.558    24046484.373
 03  4 11  1 16  0.0000000  0  9G31G25G14G11G 3G15G18G23G 9
  22465678.982   -10329063.25949  -8005254.50746  22465678.394    22465681.706
  24059789.122    -6193594.93149  -4802776.79045  24059788.675    24059794.314
  20204972.394   -26365591.56349 -20525644.40748  20204971.839    20204973.150
  24463833.825    -2825984.97949  -2183293.36945  24463833.590    24463836.379
  22593325.166   -12651622.83949  -9841550.76746  22593324.737    22593328.570
  21698092.275   -20630949.88049 -16058844.66647  21698091.434    21698095.191
  22683073.687   -14728824.44449 -11452724.68346  22683073.095    22683075.436
  23116186.893    -9869988.16149  -7372295.10746  23116186.208    23116190.149
  24057613.138    -5848843.41049  -4343752.47445  24057612.821    24057617.574
 03  4 11  1 16 30.0000000  0  9G31G25G14G11G 3G15G18G23G 9
  22470634.863   -10303020.17949  -7984961.21346  22470634.283    22470637.519
  24041054.893    -6292042.50449  -4879489.01145  24041054.545    24041060.221
  20205452.801   -26363066.93149 -20523677.15748  20205452.246    20205453.577
  24444886.535    -2925553.58249  -2260879.24645  24444886.218    24444889.043
  22605752.004   -12586319.55049  -9790665.12846  22605751.574    22605755.384
  21713020.334   -20552502.36849 -15997716.76647  21713019.539    21713023.303
  22695308.569   -14664529.26849 -11402624.56546  22695308.015    22695310.443
  23126791.503    -9814260.76049  -7328871.18246  23126790.846    23126794.735
  24068845.116    -5789819.16749  -4297759.55545  24068844.715    24068849.356
 03  4 11  1 17  0.0000000  0  9G31G25G14G11G 3G15G18G23G 9
  22475690.091   -10276454.77949  -7964260.91046  22475689.484    22475692.778
  24022322.449    -6390480.41049  -4956193.72545  24022322.332    24022327.997
  20206029.978   -26360033.76249 -20521313.64148  20206029.427    20206030.758
  24425953.935    -3025045.36349  -2338405.25545  24425953.544    24425956.268
  22618242.682   -12520680.63549  -9739517.95646  22618242.287    22618246.090
  21728017.554   -20473691.25249 -15936305.52847  21728016.817    21728020.602
  22707561.671   -14600138.96049 -11352450.30946  22707561.132    22707563.539
  23137405.626    -9758483.23149  -7285408.18546  23137405.008    23137408.843
  24080175.518    -5730277.15449  -4251363.20245  24080175.312    24080179.942
 03  4 11  1 17 30.0000000  0  9G31G25G14G11G 3G15G18G23G 9
  22480844.420   -10249368.57749  -7943154.79346  22480843.845    22480847.151
  24003592.600    -6488905.64449  -5032888.55845  24003592.459    24003598.017
  20206703.777   -26356493.08049 -20518554.66148  20206703.200    20206704.505
  24407036.220    -3124458.57449  -2415870.05645  24407035.821    24407038.551
  22630796.774   -12454708.50249  -9688111.12546  22630796.356    22630800.136
  21743083.876   -20394517.50249 -15874611.72147  21743083.087    21743086.866
  22719832.896   -14535653.39849 -11302201.85146  22719832.337    22719834.795
  23148029.312    -9702655.26249  -7241905.89146  23148028.713    23148032.639
  24091604.134    -5670219.04849  -4204564.68245  24091603.820    24091608.732
 03  4 11  1 18  0.0000000  0  9G31G25G14G11G 3G15G18G23G 9
  22486097.524   -10221763.24149  -7921644.15946  22486096.969    22486100.271
  23984865.639    -6587315.39649  -5109571.34245  23984865.603    23984871.003
  20207473.872   -26352446.10449 -20515401.16948  20207473.307    20207474.616
  24388133.713    -3223791.24449  -2493272.07645  24388133.147    24388136.130
  22643413.687   -12388405.92149  -9636446.81046  22643413.331    22643417.169
  21758218.958   -20314982.37849 -15812636.32847  21758218.149    21758221.941
  22732122.151   -14471073.00149 -11251879.48046  22732121.599    22732124.015
  23158662.725    -9646776.75049  -7198364.21546  23158662.082    23158666.051
  24103130.720    -5609646.79249  -4157365.53645  24103130.380    24103134.967
 03  4 11  1 18 30.0000000  0  9G31G25G14G11G 3G15G18G23G 9
  22491449.143   -10193640.71049  -7899730.50946  22491448.554    22491451.853
  23966142.299    -6685707.19349  -5186240.13445  23966142.105    23966147.395
  20208340.124   -26347893.95849 -20511854.03648  20208339.558    20208340.903
  24369246.959    -3323041.55649  -2570609.91345  24369246.482    24369249.269
  22656092.967   -12321776.32549  -9584527.67646  22656092.553    22656096.349
  21773422.485   -20235087.40649 -15750380.54347  21773421.674    21773425.472
  22744429.433   -14406398.29949 -11201483.62746  22744428.850    22744431.175
  23169305.639    -9590847.82849  -7154783.25646  23169304.995    23169308.961
  24114754.651    -5548562.59149  -4109767.43545  24114754.312    24114758.884
 03  4 11  1 19  0.0000000  0  9G31G25G14G11G 3G15G18G23G 9
  22496898.700   -10165002.94149  -7877415.38046  22496898.121    22496901.482
  23947422.747    -6784078.88449  -5262893.25045  23947422.475    23947427.718
  20209302.178   -26342838.08149 -20507914.38748  20209301.622    20209302.984
  24350376.232    -3422207.51349  -2647882.04245  24350375.776    24350378.703
  22668833.833   -12254822.69049  -9532356.04146  22668833.423    22668837.211
  21788694.240   -20154834.02849 -15687845.47647  21788693.421    21788697.221
  22756754.505   -14341629.60449 -11151014.53246  22756753.947    22756756.258
  23179958.147    -9534868.67749  -7111163.16346  23179957.509    23179961.431
  24126475.592    -5486968.73749  -4061772.25445  24126475.189    24126479.753
 03  4 11  1 19 30.0000000  0  9G31G25G14G11G 3G15G18G23G 9
  22502446.116   -10135851.19449  -7854699.74846  22502445.531    22502448.900
  23928707.612    -6882427.11649  -5339528.09245  23928707.202    23928712.445
  20210360.006   -26337279.12749 -20503582.72948  20210359.459    20210360.826
  24331522.108    -3521286.90749  -2725086.69345  24331521.597    24331524.449
  22681636.042   -12187547.15449  -9479933.57946  22681635.600    22681639.432
  21804033.993   -20074222.92249 -15625031.66047  21804033.212    21804037.027
  22769097.625   -14276766.32049 -11100471.73646  22769097.052    22769099.354
  23190620.278    -9478838.75449  -7067503.49946  23190619.648    23190623.639
  24138293.223    -5424866.55649  -4013380.93345  24138292.778    24138297.436
 03  4 11  1 20  0.0000000  0  9G31G25G14G11G 3G15G18G23G 9
  22508090.889   -10106187.54049  -7831585.22146  22508090.343    22508093.693
  23909997.409    -6980749.54249  -5416142.81045  23909996.984    23910002.104
  20211513.311   -26331218.41249 -20498860.08848  20211512.771    20211514.127
  24312684.817    -3620278.07349  -2802222.61145  24312684.269    24312687.133
  22694498.846   -12119952.87249  -9427262.75546  22694498.396    22694502.272
  21819441.609   -19993255.64649 -15561940.30547  21819440.786    21819444.612
  22781458.608   -14211809.16249 -11049855.79146  22781458.015    22781460.322
  23201292.004    -9422758.26049  -7023804.43946  23201291.410    23201295.381
  24150206.979    -5362258.46649  -3964595.39645  24150206.690    24150211.401
 03  4 11  1 20 30.0000000  0  9G31G25G14G11G 3G15G18G23G 9
  22513832.874   -10076013.32449  -7808072.86646  22513832.338    22513835.665
  23891292.786    -7079043.08049  -5492735.01845  23891292.293    23891297.377
  20212761.966   -26324656.65649 -20493747.03448  20212761.416    20212762.760
  24293864.662    -3719178.50149  -2879287.82745  24293864.068    24293866.788
  22707421.843   -12052042.15049  -9374345.34446  22707421.390    22707425.266
  21834916.812   -19911932.86949 -15498571.93947  21834916.032    21834919.840
  22793837.308   -14146758.00549 -10999166.58846  22793836.795    22793839.189
  23211973.554    -9366626.72049  -6980065.59846  23211972.965    23211976.894
  24162216.971    -5299146.13149  -3915416.97345  24162216.635    24162221.277
 03  4 11  1 21  0.0000000  0  9G31G25G14G11G 3G15G18G23G 9
  22519671.704   -10045329.98949  -7784163.78546  22519671.176    22519674.547
  23872594.031    -7177304.94149  -5569302.53745  23872593.577    23872598.559
  20214105.750   -26317594.99149 -20488244.43648  20214105.206    20214106.554
  24275062.079    -3817985.96849  -2956280.57145  24275061.465    24275064.305
  22720404.535   -11983817.45249  -9321183.28546  22720404.131    22720408.002
  21850459.541   -19830255.35849 -15434927.16447  21850458.742    21850462.588
  22806234.054   -14081612.52849 -10948403.91946  22806233.583    22806235.982
  23222664.857    -9310443.63749  -6936286.59646  23222664.264    23222668.229
  24174322.680    -5235531.05049  -3865846.75945  24174322.254    24174326.720
 03  4 11  1 21 30.0000000  0  9G31G25G14G11G 3G15G18G23G 9
  22525607.130   -10014139.43849  -7759859.48346  22525606.567    22525609.918
  23853901.733    -7275532.34249  -5645843.20545  23853901.388    23853906.481
  20215544.448   -26310034.71049 -20482353.30248  20215543.900    20215545.243
  24256277.529    -3916698.81449  -3033199.59445  24256276.849    24256279.806
  22733446.514   -11915281.88349  -9267778.97546  22733446.122    22733449.923
  21866069.510   -19748224.63749 -15371007.14447  21866068.676    21866072.529
  22818648.753   -14016373.13449 -10897568.04446  22818648.239    22818650.593
  23233365.940    -9254208.90349  -6892467.35146  23233365.346    23233369.334
  24186523.370    -5171415.38649  -3815886.52145  24186522.958    24186527.526
 03  4 11  1 22  0.0000000  0  9G31G25G14G11G 3G15G18G23G 9
  22531638.547    -9982444.22549  -7735161.92246  22531637.962    22531641.390
  23835216.398    -7373723.09849  -5722355.32245  23835216.133    23835221.322
  20217077.762   -26301977.31449 -20476074.80748  20217077.189    20217078.531
  24237511.396    -4015314.97149  -3110043.27745  24237510.840    24237513.707
  22746546.945   -11846438.85449  -9214135.09246  22746546.534    22746550.350
  21881746.341   -19665842.63549 -15306813.40447  21881745.473    21881749.318
  22831081.146   -13951040.24749 -10846659.33146  22831080.692    22831083.124
  23244076.791    -9197923.01549  -6848608.23746  23244076.201    23244080.221
  24198819.018    -5106801.72349  -3765538.21445  24198818.726    24198823.306
 03  4 11  1 22 30.0000000  0  9G31G25G14G11G 3G15G18G23G 9
  22537765.641    -9950246.00749  -7710072.42446  22537765.090    22537768.494
  23816538.597    -7471874.55649  -5798836.83845  23816538.453    23816543.498
  20218705.336   -26293424.05249 -20469409.92648  20218704.792    20218706.126
  24218764.040    -4113832.77349  -3186810.32245  24218763.619    24218766.380
  22759705.338   -11777291.00549  -9160253.68546  22759704.934    22759708.799
  21897489.694   -19583110.74749 -15242347.03647  21897488.864    21897492.745
  22843531.387   -13885614.27749 -10795678.08246  22843530.912    22843533.252
  23254797.478    -9141585.59949  -6804708.97446  23254796.869    23254800.922
  24211208.938    -5041692.06949  -3714803.41845  24211208.589    24211213.318
 03  4 11  1 23  0.0000000  0  9G31G25G14G11G 3G15G18G23G 9
  22543988.288    -9917545.94849  -7684591.88146  22543987.752    22543991.080
  23797868.973    -7569983.26049  -5875285.01645  23797868.958    23797873.849
  20220427.238   -26284375.56049 -20462359.15048  20220426.690    20220428.007
  24200035.962    -4212249.23949  -3263498.38845  24200035.474    24200038.257
  22772921.353   -11707840.39949  -9106136.36346  22772920.955    22772924.872
  21913299.521   -19500029.40349 -15177608.36747  21913298.729    21913302.610
  22855999.290   -13820094.66749 -10744623.86846  22855998.861    22856001.222
  23265528.135    -9085195.82749  -6760768.92446  23265527.500    23265531.572
  24223693.025    -4976087.90549  -3663683.27745  24223692.667    24223697.332
 03  4 11  1 23 30.0000000  0  9G31G25G14G11G 3G15G18G23G 9
  22550305.998    -9884346.07849  -7658721.86746  22550305.429    22550308.808
  23779207.955    -7668046.57949  -5951697.85945  23779207.977    23779212.786
  20222243.102   -26274833.33349 -20454923.64348  20222242.533    20222243.820
  24181327.608    -4310562.28049  -3340105.87545  24181327.176    24181329.862
  22786194.440   -11638090.06849  -9051785.49246  22786194.036    22786197.942
  21929175.672   -19416599.97449 -15112598.45747  21929174.868    21929178.731
  22868485.098   -13754481.75149 -10693496.95246  22868484.617    22868486.982
  23276268.787    -9028753.69949  -6716788.07546  23276268.135    23276272.167
  24236270.745    -4909991.39949  -3612179.51745  24236270.499    24236275.199
 03  4 11  1 24  0.0000000  0  9G31G25G14G11G 3G15G18G23G 9
  22556718.384    -9850649.06649  -7632464.48346  22556717.799    22556721.129
  23760556.104    -7766062.52749  -6028073.78745  23760556.109    23760560.779
  20224152.495   -26264799.23049 -20447104.85748  20224151.911    20224153.239
  24162639.111    -4408770.94649  -3416632.04245  24162638.683    24162641.181
  22799523.793   -11568043.81749  -8997204.03046  22799523.399    22799527.408
  21945117.669   -19332824.54249 -15047318.94547  21945116.822    21945120.715
  22880988.456   -13688776.27849 -10642297.91146  22880987.952    22880990.439
  23287019.224    -8972259.79649  -6672766.88446  23287018.573    23287022.655
  24248941.749    -4843405.42549  -3560294.32245  24248941.427    24248945.777
 03  4 11  1 24 30.0000000  0  9G31G25G14G11G 3G15G18G23G 9
  22563225.081    -9816456.05249  -7605820.59546  22563224.505    22563227.903
  23741913.862    -7864027.94849  -6104410.34945  23741913.825    23741918.450
  20226155.391   -26254273.81749 -20438903.23548  20226154.834    20226156.120
  24143970.932    -4506872.50549  -3493074.74345  24143970.528    24143973.081
  22812909.087   -11497703.70749  -8942393.59846  22812908.712    22812912.703
  21961125.249   -19248703.77249 -14981770.33247  21961124.460    21961128.369
  22893509.411   -13622977.81349 -10591026.41246  22893508.953    22893511.487
  23297779.687    -8915713.28949  -6628704.69346  23297779.043    23297783.123
  24261705.495    -4776331.23149  -3508028.73545  24261705.181    24261709.681
 03  4 11  1 25  0.0000000  0  9G31G25G14G11G 3G15G18G23G 9
  22569825.722    -9781769.45149  -7578792.09846  22569825.175    22569828.492
  23723281.639    -7961940.34149  -6180705.58545  23723281.604    23723286.129
  20228251.495   -26243258.88349 -20430320.16348  20228250.933    20228252.208
  24125323.458    -4604864.95249  -3569432.41445  24125323.097    24125325.621
  22826349.799   -11427072.93449  -8887356.67146  22826349.397    22826353.386
  21977198.380   -19164239.53449 -14915954.08646  21977197.522    21977201.411
  22906048.158   -13557086.68149 -10539682.70946  22906047.663    22906050.212
  23308550.061    -8859114.32449  -6584601.63146  23308549.457    23308553.576
  24274561.674    -4708771.48849  -3455384.77945  24274561.360    24274565.733
 03  4 11  1 25 30.0000000  0  9G31G25G14G11G 3G15G18G23G 9
  22576520.022    -9746590.92949  -7551380.28146  22576519.461    22576522.745
  23704660.008    -8059796.89349  -6256957.32545  23704660.025    23704664.594
  20230440.546   -26231755.26649 -20421356.30048  20230439.968    20230441.248
  24106697.182    -4702746.20249  -3645703.45145  24106696.761    24106699.375
  22839845.211   -11356153.96349  -8832095.17046  22839844.854    22839848.877
  21993336.648   -19079432.68249 -14849870.86146  21993335.770    21993339.625
  22918604.563   -13491102.59449 -10488266.56246  22918604.070    22918606.566
  23319330.669    -8802462.34849  -6540457.25046  23319330.024    23319334.108
  24287510.015    -4640727.89949  -3402363.82045  24287509.636    24287514.180
 03  4 11  1 26  0.0000000  0  9G31G25G14G11G 3G15G18G23G 9
  22583307.516    -9710922.55949  -7523586.76746  22583306.912    22583310.257
  23686049.710    -8157594.64549  -6333163.25245  23686049.639    23686054.151
  20232722.289   -26219764.70649 -20412013.00348  20232721.708    20232722.989
  24088092.486    -4800514.19649  -3721886.22945  24088092.001    24088094.689
  22853394.973   -11284950.03749  -8776611.62746  22853394.564    22853398.536
  22009539.797   -18994284.58249 -14783521.72846  22009538.963    22009542.797
  22931178.555   -13425026.21349 -10436778.48846  22931177.996    22931180.533
  23330121.284    -8745757.57249  -6496271.74046  23330120.613    23330124.651
  24300549.851    -4572202.81049  -3348967.65245  24300549.450    24300553.992
 03  4 11  1 26 30.0000000  0  9G31G25G14G11G 3G15G18G23G 9
  22590187.875    -9674766.14449  -7495412.96746  22590187.249    22590190.571
  23667451.168    -8255330.91449  -6409321.25445  23667450.975    23667455.481
  20235096.532   -26207288.09549 -20402290.96448  20235095.935    20235097.202
  24069509.880    -4898166.45949  -3797978.83445  24069509.395    24069512.048
  22866998.391   -11213463.54249  -8720907.90746  22866997.997    22867001.995
  22025807.615   -18908796.43149 -14716907.61746  22025806.811    22025810.681
  22943770.145   -13358857.08949 -10385218.16846  22943769.599    22943772.180
  23340922.045    -8688999.53249  -6452044.71546  23340921.386    23340925.399
  24313680.942    -4503198.23549  -3295197.83345  24313680.598    24313685.165
 03  4 11  1 27  0.0000000  0  9G31G25G14G11G 3G15G18G23G 9
  22597160.629    -9638124.10949  -7466860.75446  22597160.041    22597163.392
  23648864.585    -8353003.18149  -6485429.41445  23648864.432    23648868.964
  20237562.895   -26194327.17349 -20392191.54348  20237562.317    20237563.547
  24050949.582    -4995701.38749  -3873980.01445  24050949.174    24050951.806
  22880654.974   -11141698.00549  -8664986.75346  22880654.572    22880658.586
  22042139.802   -18822970.19749 -14650030.06446  22042139.044    22042142.924
  22956379.360   -13292595.77049 -10333585.99146  22956378.790    22956381.370
  23351732.890    -8632188.34749  -6407776.28046  23351732.202    23351736.222
  24326902.848    -4433716.71349  -3241056.40445  24326902.526    24326907.116
 03  4 11  1 27 30.0000000  0  9G31G25G14G11G 3G15G18G23G 9
  22604225.484    -9600998.15049  -7437931.46946  22604224.871    22604228.221
  23630291.038    -8450608.35449  -6561485.28945  23630290.701    23630295.241
  20240121.223   -26180883.10749 -20381715.64548  20240120.646    20240121.868
  24032412.110    -5093116.55549  -3949887.88445  24032411.608    24032414.279
  22894364.087   -11069656.02549  -8608850.17346  22894363.741    22894367.671
  22058536.217   -18736806.88649 -14582889.85446  22058535.404    22058539.284
  22969006.005   -13226242.20749 -10281881.93246  22969005.448    22969008.070
  23362553.943    -8575323.48549  -6363466.01546  23362553.270    23362557.277
  24340215.157    -4363760.31249  -3186544.90545  24340214.820    24340219.362
 03  4 11  1 28  0.0000000  0  9G31G25G14G11G 3G15G18G23G 9
  22611382.059    -9563390.28849  -7408626.66746  22611381.486    22611384.785
  23611730.566    -8548143.63449  -6637486.70645  23611730.270    23611734.696
  20242771.230   -26166957.23249 -20370864.31648  20242770.652    20242771.916
  24013897.705    -5190409.80349  -4025700.74445  24013897.185    24013899.935
  22908125.373   -10997340.32149  -8552500.32946  22908124.975    22908128.929
  22074996.515   -18650307.73249 -14515487.94646  22074995.688    22074999.595
  22981650.332   -13159796.27849 -10230105.91346  22981649.715    22981652.264
  23373385.247    -8518404.67249  -6319113.72346  23373384.573    23373388.632
  24353617.188    -4293331.07949  -3131665.01045  24353616.851    24353621.520
 03  4 11  1 28 30.0000000  0  8G31G25G14G11G 3G15G18G23
  22618629.988    -9525302.28749  -7378947.72246  22618629.369    22618632.753
  23593184.034    -8645606.20249  -6713431.47445  23593183.659    23593188.032
  20245512.712   -26152550.43849 -20359638.24048  20245512.154    20245513.428
  23995406.856    -5287578.72749  -4101416.72845  23995406.466    23995409.137
  22921938.199   -10924753.48449  -8495939.18646  22921937.783    22921941.836
  22091520.428   -18563474.03549 -14447825.34946  22091519.560    22091523.528
  22994312.123   -13093257.97549 -10178257.91046  22994311.549    22994314.118
  23384226.819    -8461431.51249  -6274719.07546  23384226.187    23384230.287
 03  4 11  1 29  0.0000000  0  8G31G25G14G11G 3G15G18G23
  22625968.940    -9486735.85249  -7348895.98646  22625968.338    22625971.666
  23574651.833    -8742992.64549  -6789316.92945  23574651.659    23574655.914
  20248345.511   -26137664.03049 -20348038.44248  20248344.943    20248346.223
  23976940.254    -5384621.04049  -4177034.06745  23976939.910    23976942.487
  22935802.053   -10851898.15849  -8439168.84946  22935801.665    22935805.701
  22108107.836   -18476306.66449 -14379902.75646  22108106.996    22108110.979
  23006991.549   -13026627.06549 -10126337.74746  23006990.981    23006993.567
  23395078.981    -8404403.36349  -6230281.57646  23395078.304    23395082.400
 03  4 11  1 29 30.0000000  0  8G31G25G14G11G 3G15G18G23
  22633398.285    -9447694.35549  -7318474.06746  22633397.705    22633401.066
  23556134.588    -8840301.38649  -6865141.83045  23556134.347    23556138.520
  20251269.072   -26122300.62049 -20336066.95448  20251268.498    20251269.754
  23958498.083    -5481535.59749  -4252551.86545  23958497.658    23958500.129
  22949716.347   -10778778.18749  -8382192.28446  22949715.922    22949719.997
  22124758.257   -18388808.38349 -14311722.30746  22124757.429    22124761.398
  23019688.411   -12959904.78349 -10074346.36446  23019687.861    23019690.437
  23405941.307    -8347321.25149  -6185802.02546  23405940.625    23405944.833
 03  4 11  1 30  0.0000000  0  8G31G25G14G11G 3G15G18G23
  22640917.852    -9408179.12749  -7287683.01746  22640917.239    22640920.587
  23537632.604    -8937529.13049  -6940903.61745  23537632.426    23537636.607
  20254283.305   -26106460.83049 -20323724.26048  20254282.712    20254283.977
  23940080.673    -5578319.44549  -4327967.79145  23940080.168    23940082.735
  22963680.508   -10705395.94449  -8325011.35546  22963680.105    22963684.189
  22141471.518   -18300979.68549 -14243284.40346  22141470.679    22141474.680
  23032402.831   -12893090.30049 -10022283.16746  23032402.260    23032404.745
  23416814.169    -8290184.09149  -6141279.58346  23416813.537    23416817.578
 03  4 11  1 30 30.0000000  0  8G31G25G14G11G 3G15G18G23
  22648526.983    -9368192.67749  -7256524.75246  22648526.381    22648529.816
  23519146.398    -9034673.78049  -7016600.66045  23519146.304    23519150.472
  20257387.775   -26090146.57049 -20311011.84748  20257387.213    20257388.471
  23921688.424    -5674970.61649  -4403280.33345  23921687.841    23921690.571
  22977694.019   -10631754.62849  -8267628.55746  22977693.594    22977697.708
  22158247.224   -18212822.59649 -14174590.61246  22158246.425    22158250.438
  23045134.569   -12826184.35549  -9970148.68146  23045133.957    23045136.528
  23427697.514    -8232992.02849  -6096714.35346  23427696.833    23427700.871
 03  4 11  1 31  0.0000000  0  8G31G25G14G11G 3G15G18G23
  22656225.543    -9327736.91449  -7225000.81746  22656224.922    22656228.333
  23500676.747    -9131731.89849  -7092230.27245  23500676.691    23500680.900
  20260582.375   -26073358.80649 -20297930.47248  20260581.811    20260583.096
  23903321.872    -5771487.04049  -4478487.88245  23903321.335    23903324.094
  22991756.265   -10557856.97849  -8210046.01446  22991755.859    22991760.019
  22175085.324   -18124338.13049 -14105641.71346  22175084.538    22175088.533
  23057883.884   -12759186.68249  -9917942.71746  23057883.210    23057885.802
  23438591.283    -8175744.69849  -6052106.06646  23438590.671    23438594.724
 03  4 11  1 31 30.0000000  0  8G31G25G14G11G 3G15G18G23
  22664012.837    -9286814.41849  -7193113.18046  22664012.201    22664015.628
  23482223.931    -9228701.29349  -7167790.76445  23482223.915    23482228.167
  20263866.669   -26056099.79749 -20284481.88948  20263866.097    20263867.352
  23884981.396    -5867866.94749  -4553589.06845  23884980.892    23884983.486
  23005866.783   -10483706.14649  -8152266.18746  23005866.330    23005870.460
  22191985.264   -18035528.49449 -14036439.43746  22191984.479    22191988.455
  23070650.431   -12692097.73749  -9865665.64246  23070649.822    23070652.359
  23449495.502    -8118442.35749  -6007454.92146  23449494.943    23449498.955
 03  4 11  1 32  0.0000000  0  8G31G25G14G11G 3G15G18G23
  22671888.709    -9245426.50749  -7160862.88746  22671888.088    22671891.526
  23463788.816    -9325578.19649  -7243279.18646  23463788.737    23463793.013
  20267240.531   -26038370.06849 -20270666.51348  20267239.962    20267241.228
  23866667.512    -5964107.29649  -4628581.51845  23866667.010    23866669.483
  23020025.008   -10409304.39749  -8094290.83446  23020024.548    23020028.681
  22208947.030   -17946394.17349 -13966984.16846  22208946.217    22208950.208
  23083434.566   -12624916.82849  -9813316.90346  23083434.001    23083436.554
  23460410.635    -8061083.81149  -5962759.96546  23460409.967    23460413.975
 03  4 11  1 32 30.0000000  0  8G31G25G14G11G 3G15G18G23
  22679852.507    -9203576.68449  -7128252.65746  22679851.895    22679855.336
  23445371.614    -9422361.41449  -7318694.60346  23445371.468    23445375.641
  20270703.451   -26020172.16849 -20256486.33048  20270702.884    20270704.168
  23848380.386    -6060206.89649  -4703464.28145  23848379.850    23848382.232
  23034230.123   -10334655.90249  -8036123.21746  23034229.685    23034233.768
  22225970.001   -17856937.75049 -13897277.89846  22225969.252    22225973.254
  23096236.017   -12557644.99949  -9760897.31046  23096235.439    23096237.952
  23471336.018    -8003669.89949  -5918021.86846  23471335.363    23471339.475
 03  4 11  1 33  0.0000000  0  8G31G25G14G11G 3G15G18G23
  22687903.941    -9161266.26149  -7095283.52646  22687903.322    22687906.744
  23426973.123    -9519046.73949  -7394033.75246  23426972.804    23426976.881
  20274255.318   -26001507.01249 -20241942.04948  20274254.766    20274256.054
  23830120.401    -6156163.11649  -4778235.31145  23830119.932    23830122.231
  23048481.975   -10259762.74249  -7977764.95946  23048481.478    23048485.517
  22243054.154   -17767159.91749 -13827321.18446  22243053.404    22243057.474
  23109054.797   -12490281.71449  -9708406.47646  23109054.196    23109056.812
  23482272.419    -7946199.62749  -5873239.86446  23482271.641    23482275.661
 03  4 11  1 33 30.0000000  0  8G31G25G14G11G 3G15G18G23
  22696042.546    -9118497.36349  -7061957.13446  22696041.967    22696045.363
  23408593.569    -9615631.75849  -7469294.73446  23408593.188    23408597.310
  20277895.857   -25982375.89749 -20227034.68248  20277895.295    20277896.599
  23811888.150    -6251973.32649  -4852892.55945  23811887.774    23811890.124
  23062779.651   -10184627.60749  -7919218.13346  23062779.230    23062783.327
  22260199.298   -17677062.07649 -13757115.10746  22260198.515    22260202.532
  23121890.949   -12422826.93649  -9655844.32846  23121890.388    23121893.006
  23493219.376    -7888672.56249  -5828413.59046  23493218.663    23493222.757
 03  4 11  1 34  0.0000000  0  8G31G25G14G11G 3G15G18G23
  22704268.054    -9075272.28749  -7028275.28946  22704267.473    22704270.844
  23390233.649    -9712113.50549  -7544475.25146  23390233.289    23390237.410
  20281624.767   -25962780.33549 -20211765.41148  20281624.194    20281625.494
  23793684.151    -6347635.50849  -4927434.45845  23793683.756    23793686.306
  23077122.930   -10109253.42649  -7860485.06746  23077122.500    23077126.593
  22277404.966   -17586645.75349 -13686660.86746  22277404.174    22277408.226
  23134744.578   -12355280.66149  -9603210.88146  23134744.011    23134746.601
  23504177.242    -7831088.65549  -5783543.02946  23504176.578    23504180.665
 03  4 11  1 34 30.0000000  0  8G31G25G14G11G 3G15G18G23
  22712579.909    -9031593.26349  -6994239.70546  22712579.309    22712582.719
  23371893.770    -9808489.35249  -7619573.24146  23371893.535    23371897.647
  20285441.757   -25942722.07049 -20196135.59148  20285441.181    20285442.470
  23775508.886    -6443147.37449  -5001859.24645  23775508.458    23775510.964
  23091511.101   -10033643.17349  -7801568.02446  23091510.660    23091514.772
  22294670.881   -17495912.43949 -13615959.62446  22294670.131    22294674.232
  23147615.698   -12287642.99249  -9550506.22346  23147615.089    23147617.712
  23515145.959    -7773447.56249  -5738627.90846  23515145.294    23515149.344
 03  4 11  1 35  0.0000000  0  8G31G25G14G11G 3G15G18G23
  22720977.596    -8987463.12849  -6959852.61046  22720977.005    22720980.463
  23353574.554    -9904757.28249  -7694587.14946  23353574.327    23353578.413
  20289346.391   -25922203.00549 -20180146.70848  20289345.798    20289347.102
  23757362.536    -6538507.34849  -5076165.66845  23757362.130    23757364.518
  23105943.488    -9957800.44149  -7742469.83746  23105943.068    23105947.191
  22311996.764   -17404864.14749 -13545012.95146  22311996.017    22312000.186
  23160504.068   -12219914.39649  -9497730.72146  23160503.457    23160505.975
  23526125.461    -7715749.48649  -5693668.39946  23526124.772    23526128.985
 03  4 11  1 35 30.0000000  0  8G31G25G14G11G 3G15G18G23
  22729460.824    -8942883.75449  -6925115.46246  22729460.232    22729463.689
  23335276.574   -10000913.58949  -7769514.07646  23335276.334    23335280.478
  20293338.484   -25901224.33649 -20163799.68948  20293337.914    20293339.229
  23739245.609    -6633712.74949  -5150351.65745  23739245.163    23739247.547
  23120419.742    -9881727.66449  -7683192.39446  23120419.336    23120423.411
  22329382.509   -17313502.18849 -13473821.85746  22329381.641    22329385.808
  23173409.820   -12152094.67949  -9444884.20946  23173409.172    23173411.713
  23537116.125    -7657993.90049  -5648664.05346  23537115.344    23537119.581
 03  4 11  1 36  0.0000000  0  8G31G25G14G11G 3G15G18G23
  22738028.992    -8897857.65649  -6890030.21646  22738028.430    22738031.884
  23317000.361   -10096955.60749  -7844351.95146  23317000.067    23317004.253
  20297417.769   -25879787.64449 -20147095.76848  20297417.190    20297418.468
  23721158.251    -6728761.42249  -5224415.50845  23721157.845    23721160.277
  23134939.086    -9805428.06849  -7623738.20746  23134938.755    23134942.834
  22346827.551   -17221828.19349 -13402387.62346  22346826.664    22346830.861
  23186332.759   -12084183.68349  -9391966.56346  23186332.166    23186334.762
  23548117.635    -7600180.57849  -5603614.72046  23548116.947    23548121.066
 03  4 11  1 36 30.0000000  0  8G31G25G14G11G 3G15G18G23
  22746681.918    -8852386.74949  -6854598.37246  22746681.350    22746684.736
  23298746.382   -10192880.55449  -7919098.59646  23298746.064    23298750.222
  20301583.887   -25857894.42149 -20130036.11248  20301583.296    20301584.588
  23703101.237    -6823651.06849  -5298355.42745  23703100.934    23703103.351
  23149501.251    -9728904.17349  -7564109.23846  23149500.854    23149504.898
  22364331.694   -17129843.49249 -13330711.26946  22364330.826    22364335.051
  23199273.188   -12016181.72149  -9338978.05446  23199272.518    23199275.099
  23559130.207    -7542308.91449  -5558519.94146  23559129.574    23559133.747
 03  4 11  1 37  0.0000000  0  8G31G25G14G11G 3G15G18G23
  22755419.010    -8806472.82149  -6818821.31246  22755418.442    22755421.874
  23280515.501   -10288684.97849  -7993751.33146  23280515.065    23280519.163
  20305836.720   -25835545.54049 -20112621.39648  20305836.162    20305837.432
  23685075.274    -6918378.63249  -5372169.07045  23685074.904    23685077.312
  23164105.595    -9652158.19449  -7504307.21346  23164105.154    23164109.255
  22381894.793   -17037548.89349 -13258793.43646  22381893.937    22381898.145
  23212230.923   -11948087.96649  -9285917.99546  23212230.338    23212232.956
  23570154.059    -7484378.06249  -5513379.04446  23570153.432    23570157.603
 03  4 11  1 37 30.0000000  0  8G31G25G14G11G 3G15G18G23
  22764239.489    -8760120.90649  -6782702.96246  22764238.935    22764242.358
  23262307.483   -10384368.66249  -8068309.97246  23262306.990    23262311.067
  20310175.434   -25812745.41749 -20094855.06348  20310174.869    20310176.151
  23667080.092    -7012944.44849  -5445856.68046  23667079.602    23667082.044
  23178751.055    -9575195.81649  -7444336.57546  23178750.595    23178754.785
  22399516.062   -16944948.66749 -13186637.45446  22399515.228    22399519.386
  23225205.752   -11879905.00549  -9232788.44746  23225205.165    23225207.844
  23581188.760    -7426390.39449  -5468193.85846  23581188.154    23581192.342
 03  4 11  1 38  0.0000000  0  8G31G25G14G11G 3G15G18G23
  22773143.560    -8713329.97349  -6746242.52846  22773142.981    22773146.436
  23244123.400   -10479925.62149  -8142769.89346  23244123.078    23244127.094
  20314600.316   -25789492.36949 -20076735.80348  20314599.755    20314601.043
  23649116.585    -7107343.19249  -5519414.10046  23649116.118    23649118.598
  23193437.802    -9498016.72949  -7384197.07446  23193437.367    23193441.558
  22417195.876   -16852040.95949 -13114241.88346  22417195.039    22417199.150
  23238198.162   -11811629.48449  -9179586.77746  23238197.601    23238200.325
  23592235.072    -7368342.16149  -5422961.49846  23592234.426    23592238.512
 03  4 11  1 38 30.0000000  0  8G31G25G14G11G 3G15G18G23
  22782130.231    -8666104.68349  -6709443.63346  22782129.650    22782133.057
  23225963.750   -10575355.16549  -8217130.53146  23225963.380    23225967.372
  20319110.668   -25765790.14649 -20058266.53548  20319110.113    20319111.427
  23631184.853    -7201574.77749  -5592841.26646  23631184.481    23631186.883
  23208164.716    -9420626.19449  -7323892.80946  23208164.312    23208168.472
  22434933.458   -16758829.64649 -13041609.73346  22434932.619    22434936.721
  23251207.715   -11743263.66849  -9126314.71946  23251207.114    23251209.922
  23603292.437    -7310235.40849  -5377683.53246  23603291.810    23603295.957
 03  4 11  1 39  0.0000000  0  8G31G25G14G11G 3G15G18G23
  22791199.396    -8618445.95249  -6672306.98346  22791198.811    22791202.284
  23207829.129   -10670652.93949  -8291388.48646  23207828.795    23207832.764
  20323706.517   -25741638.85349 -20039447.34348  20323705.981    20323707.286
  23613285.579    -7295635.40449  -5666135.21045  23613285.203    23613287.698
  23222931.617    -9343025.53449  -7263424.80046  23222931.199    23222935.430
  22452728.739   -16665314.76849 -12968741.04846  22452727.940    22452732.081
  23264234.822   -11674806.11649  -9072971.20546  23264234.275    23264237.026
  23614361.311    -7252068.26049  -5332358.51046  23614360.678    23614364.831
 03  4 11  1 39 30.0000000  0  8G31G25G14G11G 3G15G18G23
  22800350.497    -8570356.94149  -6634835.05446  22800349.926    22800353.361
  23189719.933   -10765817.25649  -8365542.44946  23189719.591    23189723.574
  20328387.347   -25717041.10349 -20020280.26548  20328386.771    20328388.100
  23595419.166    -7389523.47149  -5739294.70145  23595418.742    23595421.372
  23237737.933    -9265218.34849  -7202795.87846  23237737.549    23237741.765
  22470581.369   -16571498.72949 -12895637.69446  22470580.570    22470584.751
  23277279.208   -11606257.65649  -9019556.84846  23277278.646    23277281.400
  23625441.412    -7193841.18949  -5286986.78645  23625440.887    23625445.070
 03  4 11  1 40  0.0000000  0  8G31G25G14G11G 3G15G18G23
  22809582.725    -8521841.07849  -6597030.51246  22809582.135    22809585.574
  23171636.564   -10860846.11349  -8439590.85746  23171636.120    23171640.122
  20333152.610   -25691999.40049 -20000767.24748  20333152.042    20333153.366
  23577585.952    -7483237.91349  -5812318.87745  23577585.547    23577588.107
  23252582.720    -9187208.55249  -7142009.06346  23252582.312    23252586.601
  22488490.878   -16477384.14249 -12822301.69746  22488490.032    22488494.196
  23290340.638   -11537619.34049  -8966072.47346  23290340.122    23290342.838
  23636533.043    -7135554.93649  -5241568.96445  23636532.369    23636536.616
 03  4 11  1 40 30.0000000  0  8G31G25G14G11G 3G15G18G23
  22818896.139    -8472898.85249  -6558893.74046  22818895.587    22818898.975
  23153579.906   -10955734.68149  -8513529.94646  23153579.470    23153583.395
  20338002.399   -25666513.58449 -19980908.16648  20338001.834    20338003.157
  23559786.574    -7576774.42449  -5885204.44245  23559786.179    23559788.604
  23267465.854    -9108997.34149  -7081065.31446  23267465.459    23267469.767
  22506457.150   -16382970.73749 -12748732.84546  22506456.334    22506460.500
  23303419.604   -11468889.31249  -8912516.63846  23303419.089    23303421.730
  23647636.224    -7077207.30549  -5196103.29245  23647635.622    23647639.862
 03  4 11  1 41  0.0000000  0  8G31G25G14G11G 3G15G18G23
  22828289.958    -8423534.21549  -6520427.81346  22828289.354    22828292.792
  23135550.103   -11050481.54349  -8587358.62346  23135549.643    23135553.566
  20342936.057   -25640586.92349 -19960705.57248  20342935.499    20342936.827
  23542021.098    -7670132.24449  -5957950.75245  23542020.708    23542023.098
  23282386.489    -9030589.18149  -7019968.09246  23282386.029    23282390.371
  22524479.635   -16288261.82249 -12674933.73446  22524478.867    22524483.049
  23316515.639   -11400069.15549  -8858890.57546  23316515.112    23316517.859
  23658750.947    -7018799.60049  -5150590.82945  23658750.328    23658754.498
 03  4 11  1 41 30.0000000  0  8G31G25G14G11G 3G15G18G23
  22837763.871    -8373748.58649  -6481633.84846  22837763.286    22837766.700
  23117547.964   -11145083.07949  -8661074.05746  23117547.555    23117551.483
  20347953.522   -25614219.97349 -19940159.89548  20347952.975    20347954.326
  23524290.343    -7763307.93449  -6030555.14845  23524289.903    23524292.247
  23297344.277    -8951985.73949  -6958718.69546  23297343.834    23297348.138
  22542558.331   -16193257.62849 -12600904.53646  22542557.591    22542561.741
  23329629.048   -11331157.53149  -8805193.23246  23329628.504    23329631.304
  23669877.297    -6960330.30449  -5105030.38345  23669876.645    23669880.839
 03  4 11  1 42  0.0000000  0  8G31G25G14G11G 3G15G18G23
  22847317.203    -8323545.53549  -6442514.61246  22847316.572    22847320.036
  23099573.727   -11239537.64549  -8734674.95446  23099573.388    23099577.332
  20353054.214   -25587415.61549 -19919273.38148  20353053.644    20353054.991
  23506594.499    -7856300.33749  -6103016.71045  23506594.023    23506596.333
  23312338.361    -8873191.34449  -6897320.51546  23312337.894    23312342.311
  22560692.811   -16097960.95549 -12526647.43946  22560691.948    22560696.167
  23342759.763   -11262155.77349  -8751425.67246  23342759.154    23342761.934
  23681015.185    -6901800.25649  -5059422.56245  23681014.574    23681018.776
 03  4 11  1 42 30.0000000  0  8G31G25G14G11G 3G15G18G23
  22856949.748    -8272926.20349  -6403070.99346  22856949.143    22856952.588
  23081628.321   -11333840.86449  -8808157.91846  23081628.031    23081631.988
  20358238.093   -25560174.15649 -19898046.26448  20358237.526    20358238.849
  23488934.181    -7949105.95949  -6175332.73046  23488933.680    23488935.946
  23327368.434    -8794207.50849  -6835774.70446  23327367.979    23327372.430
  22578882.723   -16002372.40549 -12452162.89746  22578881.885    22578886.105
  23355907.742   -11193062.45249  -8697586.73046  23355907.183    23355909.944
  23692165.058    -6843207.73349  -5013766.09245  23692164.466    23692168.514
 03  4 11  1 43  0.0000000  0  8G31G25G14G11G 3G15G18G23
  22866660.805    -8221894.69349  -6363306.21246  22866660.130    22866663.572
  23063712.061   -11427991.53249  -8881522.01646  23063711.715    23063715.685
  20363504.521   -25532498.80349 -19876481.05048  20363503.950    20363505.267
  23471309.467    -8041723.91049  -6247502.51246  23471309.061    23471311.320
  23342433.794    -8715038.81349  -6774084.86346  23342433.339    23342437.778
  22597127.556   -15906495.15349 -12377453.39146  22597126.765    22597131.006
  23369072.944   -11123879.17049  -8643677.71546  23369072.368    23369075.117
  23703326.417    -6784554.01049  -4968061.90745  23703325.809    23703329.989
 03  4 11  1 43 30.0000000  0  8G31G25G14G11G 3G15G18G23
  22876449.954    -8170452.38049  -6323221.31746  22876449.343    22876452.805
  23045825.496   -11521985.73749  -8954764.17846  23045825.167    23045829.132
  20368853.375   -25504390.30649 -19854578.32748  20368852.817    20368854.181
  23453721.258    -8134150.89249  -6319523.49146  23453720.797    23453723.037
  23357533.955    -8635687.13749  -6712252.42146  23357533.546    23357537.938
  22615427.230   -15810329.66949 -12302519.29146  22615426.466    22615430.739
  23382255.425   -11054604.88749  -8589697.79245  23382254.871    23382257.587
  23714499.774    -6725837.75449  -4922309.00945  23714499.203    23714503.383
 03  4 11  1 44  0.0000000  0  8G31G25G14G11G 3G15G18G23
  22886316.832    -8118601.86049  -6282818.34446  22886316.183    22886319.649
  23027969.252   -11615820.78949  -9027882.34346  23027968.889    23027972.863
  20374284.312   -25475850.44949 -19832339.47448  20374283.747    20374285.133
  23436169.777    -8226384.62349  -6391393.87946  23436169.238    23436171.451
  23372668.394    -8556155.25549  -6650279.56946  23372668.018    23372672.331
  22633781.410   -15713877.57349 -12227361.86646  22633780.710    22633785.016
  23395455.148   -10985239.49049  -8535646.84945  23395454.633    23395457.414
  23725685.035    -6667058.53549  -4876507.04245  23725684.470    23725688.717
 03  4 11  1 44 30.0000000  0  8G31G25G14G11G 3G15G18G23
  22896260.770    -8066345.92449  -6242099.45346  22896260.169    22896263.632
  23010143.734   -11709494.20949  -9100874.53946  23010143.369    23010147.347
  20379796.957   -25446881.27249 -19809766.09148  20379796.411    20379797.784
  23418655.345    -8318423.02549  -6463112.07645  23418654.883    23418657.062
  23387836.393    -8476446.71349  -6588169.06546  23387836.048    23387840.353
  22652189.828   -15617141.02649 -12151982.78546  22652189.115    22652193.416
  23408672.188   -10915783.36549  -8481525.21945  23408671.674    23408674.488
  23736882.450    -6608216.32849  -4830655.99845  23736881.839    23736886.065
 03  4 11  1 45  0.0000000  0  8G31G25G14G11G 3G15G18G23
  22906281.571    -8013686.62449  -6201066.27046  22906280.972    22906284.396
  22992349.631   -11803002.76449  -9173738.27746  22992349.248    22992353.178
  20385391.113   -25417483.88749 -19786859.04148  20385390.548    20385391.931
  23401178.638    -8410263.40549  -6534675.96946  23401178.171    23401180.281
  23403037.660    -8396563.66249  -6525922.58146  23403037.264    23403041.543
  22670652.221   -15520121.03849 -12076382.84546  22670651.464    22670655.761
  23421906.775   -10846235.91749  -8427332.41145  23421906.182    23421908.941
  23748091.881    -6549310.19149  -4784755.12245  23748091.328    23748095.563
 03  4 11  1 45 30.0000000  0  8G31G25G14G11G 3G15G18G23
  22916378.266    -7960627.91349  -6159721.84246  22916377.681    22916381.150
  22974587.215   -11896344.98149  -9246472.40246  22974586.804    22974590.645
  20391066.105   -25387661.58549 -19763620.88348  20391065.539    20391066.914
  23383739.864    -8501904.48149  -6606084.55146  23383739.404    23383741.513
  23418271.387    -8316510.49949  -6463543.53446  23418270.948    23418275.242
  22689167.950   -15422820.83749 -12000564.54946  22689167.136    22689171.419
  23435158.261   -10776598.48649  -8373069.50245  23435157.777    23435160.500
  23759313.311    -6490341.35749  -4738805.40645  23759312.740    23759316.985
 03  4 11  1 46  0.0000000  0  8G31G25G14G11G 3G15G18G23
  22926550.785    -7907171.03049  -6118067.15246  22926550.200    22926553.684
  22956857.297   -11989516.32349  -9319073.37846  22956856.839    22956860.598
  20396821.852   -25357414.91149 -19740052.04348  20396821.265    20396822.663
  23366339.637    -8593343.01449  -6677335.30946  23366339.170    23366341.359
  23433537.091    -8236288.92849  -6401033.26746  23433536.640    23433540.999
  22707736.835   -15325240.84549 -11924528.23346  22707736.042    22707740.325
  23448427.309   -10706869.93849  -8318735.60045  23448426.782    23448429.413
  23770546.944    -6431308.11249  -4692805.49345  23770546.473    23770550.627
 03  4 11  1 46 30.0000000  0  8G31G25G14G11G 3G15G18G23
  22936798.369    -7853319.44649  -6076104.89246  22936797.765    22936801.348
  22939160.088   -12082515.30949  -9391540.05246  22939159.670    22939163.385
  20402657.884   -25326746.35549 -19716154.46348  20402657.314    20402658.704
  23348978.312    -8684577.27149  -6748426.89346  23348977.929    23348980.084
  23448834.119    -8155902.72249  -6338394.70946  23448833.680    23448838.025
  22726358.417   -15227383.57849 -11848275.86746  22726357.660    22726361.948
  23461713.404   -10637050.95849  -8264331.20445  23461712.824    23461715.605
  23781792.872    -6372210.81349  -4646755.67145  23781792.338    23781796.513
 03  4 11  1 47  0.0000000  0  8G31G25G14G11G 3G15G18G23
  22947120.827    -7799075.13849  -6033836.64646  22947120.209    22947123.682
  22921496.391   -12175338.36249  -9463869.61446  22921495.998    22921499.700
  20408573.948   -25295657.09249 -19691929.06448  20408573.399    20408574.790
  23331656.370    -8775604.72649  -6819357.33246  23331655.981    23331658.084
  23464161.953    -8075354.23549  -6275629.69046  23464161.569    23464165.931
  22745032.679   -15129250.06349 -11771808.25246  22745031.923    22745036.234
  23475016.837   -10567140.94249  -8209855.88945  23475016.194    23475019.014
  23793051.029    -6313048.60949  -4600655.26645  23793050.524    23793054.779
 03  4 11  1 47 30.0000000  0  8G31G25G14G11G 3G15G18G23
  22957517.365    -7744440.90749  -5991264.53646  22957516.752    22957520.231
  22903866.642   -12267982.95449  -9536060.14146  22903866.193    22903870.000
  20414569.743   -25264149.05049 -19667377.34048  20414569.188    20414570.564
  23314374.200    -8866422.80449  -6890124.61346  23314373.785    23314375.898
  23479520.164    -7994646.54249  -6212740.63646  23479519.776    23479524.094
  22763759.154   -15030842.26549 -11695126.89746  22763758.318    22763762.660
  23488337.472   -10497140.13049  -8155309.82445  23488336.932    23488339.699
  23804321.705    -6253821.35549  -4554504.18745  23804321.082    23804325.411
 03  4 11  1 48  0.0000000  0  8G31G25G14G11G 3G15G18G23
  22967987.618    -7689419.38449  -5948390.64746  22967987.054    22967990.503
  22886271.291   -12360446.23849  -9608109.37346  22886270.994    22886274.792
  20420644.873   -25232224.30449 -19642500.90848  20420644.302    20420645.651
  23297132.357    -8957029.26849  -6960727.00646  23297131.891    23297134.064
  23494908.077    -7913782.65449  -6149729.86746  23494907.724    23494912.010
  22782537.385   -14932161.96449 -11618233.19746  22782536.578    22782540.961
  23501675.486   -10427048.54649  -8100693.02145  23501674.859    23501677.699
  23815604.658    -6194528.58349  -4508302.03745  23815604.071    23815608.489
 03  4 11  1 48 30.0000000  0  8G31G25G14G11G 3G15G18G23
  22978531.097    -7634013.31849  -5905217.11346  22978530.484    22978533.952
  22868711.056   -12452725.50049  -9680015.24246  22868710.771    22868714.556
  20426798.875   -25199884.76349 -19617301.26448  20426798.302    20426799.667
  23279931.169    -9047422.00049  -7031162.85546  23279930.679    23279932.879
  23510325.163    -7832765.58549  -6086599.73346  23510324.840    23510329.137
  22801367.176   -14833211.01549 -11541128.61646  22801366.352    22801370.717
  23515030.870   -10356866.20549  -8046005.49945  23515030.174    23515033.062
  23826900.168    -6135170.25649  -4462048.81945  23826899.560    23826904.021
 03  4 11  1 49  0.0000000  0  8G31G25G14G11G 3G15G18G23
  22989147.236    -7578225.36349  -5861746.00846  22989146.625    22989150.122
  22851186.442   -12544817.84149  -9751775.44646  22851186.163    22851189.917
  20433031.446   -25167132.31049 -19591779.86648  20433030.877    20433032.266
  23262771.044    -9137598.64149  -7101430.32946  23262770.569    23262772.755
  23525770.896    -7751598.39149  -6023352.60946  23525770.517    23525774.827
  22820248.144   -14733991.36449 -11463814.66046  22820247.341    22820251.640
  23528403.258   -10286592.96149  -7991247.17045  23528402.705    23528405.690
  23838208.381    -6075746.03049  -4415744.24045  23838207.672    23838212.116
 03  4 11  1 49 30.0000000  0  8G31G25G14G11G 3G15G18G23
  22999835.476    -7522058.28149  -5817979.47146  22999834.836    22999838.389
  22833697.895   -12636720.48649  -9823387.83246  22833697.581    22833701.329
  20439342.288   -25133968.67049 -19565938.06648  20439341.728    20439343.090
  23245652.490    -9227556.85749  -7171527.61346  23245652.070    23245654.137
  23541244.503    -7670284.20549  -5959990.95946  23541244.116    23541248.451
  22839179.820   -14634504.85349 -11386292.75146  22839178.995    22839183.349
  23541793.244   -10216228.86749  -7936418.01945  23541792.586    23541795.505
  23849528.940    -6016255.70149  -4369388.16445  23849528.275    23849532.732
 03  4 11  1 50  0.0000000  0  8G31G25G14G11G 3G15G18G23
  23010595.449    -7465514.39949  -5773919.33746  23010594.877    23010598.351
  22816245.998   -12728430.56749  -9894850.18646  22816245.632    22816249.378
  20445731.053   -25100395.44549 -19539777.10848  20445730.485    20445731.854
  23228576.000    -9317293.85149  -7241452.49646  23228575.632    23228577.733
  23556745.638    -7588825.44149  -5896516.64846  23556745.254    23556749.589
  22858162.085   -14534752.84249 -11308563.96346  22858161.184    22858165.579
  23555200.348   -10145773.56349  -7881517.82445  23555199.834    23555202.723
  23860862.456    -5956698.55449  -4322980.01345  23860861.739    23860866.041
 03  4 11  1 50 30.0000000  0  8G31G25G14G11G 3G15G18G23
  23021426.480    -7408596.92449  -5729568.07846  23021425.889    23021429.367
  22798831.099   -12819946.06949  -9966160.88846  22798830.759    22798834.506
  20452197.316   -25066414.90149 -19513298.75948  20452196.769    20452198.109
  23211542.048    -9406807.85849  -7311203.63046  23211541.624    23211543.790
  23572273.644    -7507225.54349  -5832932.36246  23572273.274    23572277.524
  22877194.464   -14434737.48649 -11230629.96246  22877193.539    22877197.945
  23568624.972   -10075227.60449  -7826546.96745  23568624.371    23568627.190
  23872208.342    -5897074.54949  -4276519.77045  23872207.715    23872212.208
 03  4 11  1 51  0.0000000  0  8G31G25G14G11G 3G15G18G23
  23032328.292    -7351307.68949  -5684927.15346  23032327.692    23032331.219
  22781454.002   -12911263.14549 -10037317.01346  22781453.718    22781457.387
  20458740.909   -25032028.17049 -19486503.90148  20458740.359    20458741.687
  23194551.092    -9496095.91449  -7380778.70146  23194550.697    23194552.783
  23587828.001    -7425487.04649  -5769240.07645  23587827.686    23587831.859
  22896276.656   -14334459.82149 -11152491.57246  22896275.768    22896280.179
  23582066.813   -10004590.15949  -7771504.81245  23582066.285    23582069.204
  23883567.401    -5837382.71449  -4230006.67545  23883566.860    23883571.068
 03  4 11  1 51 30.0000000  0  8G31G25G14G11G 3G15G18G23
  23043300.094    -7293650.64049  -5639999.59946  23043299.496    23043302.999
  22764115.041   -13002380.12449 -10108317.19546  22764114.711    22764118.316
  20465361.188   -24997238.43949 -19459395.01748  20465360.626    20465361.965
  23177603.250    -9585157.15549  -7450177.02746  23177602.860    23177604.992
  23603407.968    -7343613.88049  -5705442.87145  23603407.631    23603411.841
  22915408.245   -14233922.91649 -11074151.17246  22915407.353    22915411.802
  23595525.859    -9933862.56449  -7716392.43145  23595525.258    23595528.255
  23894939.082    -5777623.97849  -4183441.44845  23894938.439    23894942.750
 03  4 11  1 52  0.0000000  0  8G31G25G14G11G 3G15G18G23
  23054341.552    -7235627.26549  -5594786.60646  23054340.972    23054344.588
  22746814.889   -13093292.87749 -10179158.23246  22746814.528    22746818.193
  20472058.021   -24962046.31649 -19431972.57748  20472057.450    20472058.804
  23160699.382    -9673987.33049  -7519395.29446  23160698.982    23160701.211
  23619013.331    -7261607.60349  -5641541.91645  23619012.917    23619017.196
  22934589.037   -14133127.18549 -10995609.09346  22934588.165    22934592.646
  23609002.285    -9863043.35249  -7661208.65545  23609001.858    23609004.606
  23906323.674    -5717796.65649  -4136822.77845  23906323.226    23906327.546
 03  4 11  1 52 30.0000000  0  8G31G25G14G11G 3G15G18G23
  23065452.181    -7177241.09649  -5549290.91346  23065451.560    23065455.213
  22729553.733   -13183999.68549 -10249838.80946  22729553.518    22729557.199
  20478830.961   -24926454.37549 -19404238.59848  20478830.381    20478831.724
  23143839.853    -9762585.08549  -7588432.48346  23143839.364    23143841.536
  23634643.284    -7179472.20249  -5577540.35745  23634642.817    23634647.112
  22953818.586   -14032075.48849 -10916867.56946  22953817.722    22953822.205
  23622496.040    -9792133.60149  -7605954.32045  23622495.497    23622498.219
  23917721.549    -5657901.09149  -4090150.91245  23917720.877    23917725.326
 03  4 11  1 53  0.0000000  0  8G31G25G14G11G 3G15G18G23
  23076631.240    -7118494.40049  -5503514.29146  23076630.641    23076634.281
  22712332.557   -13274497.04149 -10320356.15746  22712332.410    22712336.101
  20485679.637   -24890464.29549 -19376194.37748  20485679.059    20485680.391
  23127024.929    -9850947.76049  -7657286.47546  23127024.464    23127026.631
  23650297.191    -7097209.90749  -5513439.91645  23650296.771    23650301.220
  22973096.487   -13930769.22849 -10837927.65746  22973095.667    22973100.139
  23636007.028    -9721132.64449  -7550628.92745  23636006.583    23636009.245
  23929132.263    -5597936.58849  -4043425.35745  23929131.686    23929136.254
 03  4 11  1 53 30.0000000  0  8G31G25G14G11G 3G15G18G23
  23087878.439    -7059390.02149  -5457458.95146  23087877.835    23087881.498
  22695151.817   -13364782.70549 -10390708.57046  22695151.554    22695155.262
  20492603.787   -24854077.83249 -19347841.28548  20492603.196    20492604.520
  23110255.081    -9939073.05449  -7725955.48646  23110254.704    23110256.923
  23665974.816    -7014823.71749  -5449242.94845  23665974.367    23665978.871
  22992422.583   -13829210.01849 -10758790.66846  22992421.747    22992426.291
  23649535.344    -9650040.52749  -7495232.50445  23649534.877    23649537.669
  23940556.539    -5537902.82049  -3996645.81245  23940555.808    23940560.342
 03  4 11  1 54  0.0000000  0  8G31G25G14G11G 3G15G18G23
  23099193.266    -6999930.76549  -5411127.09246  23099192.642    23099196.333
  22678011.923   -13454853.72649 -10460893.71446  22678011.569    22678015.233
  20499602.958   -24817296.98549 -19319180.88348  20499602.351    20499603.696
  23093531.054   -10026958.70149  -7794437.77846  23093530.681    23093532.857
  23681675.479    -6932316.89949  -5384951.98145  23681674.977    23681679.541
  23011796.422   -13727399.96349 -10679458.18546  23011795.606    23011800.146
  23663081.135    -9578857.13149  -7439764.93445  23663080.620    23663083.350
  23951993.805    -5477799.42749  -3949812.01945  23951993.130    23951997.666
 03  4 11  1 54 30.0000000  0  8G31G25G14G11G 3G15G18G23
  23110574.808    -6940120.25549  -5364521.52746  23110574.202    23110577.914
  22660913.145   -13544708.02549 -10530909.99746  22660912.777    22660916.432
  20506676.634   -24780124.42349 -19290215.25448  20506676.034    20506677.422
  23076852.923   -10114602.85449  -7862731.88746  23076852.497    23076854.656
  23697398.256    -6849693.05849  -5320569.81345  23697397.763    23697402.378
  23031217.502   -13625341.62049 -10599932.27246  23031216.690    23031221.218
  23676644.207    -9507583.48149  -7384227.05245  23676643.580    23676646.303
  23963444.394    -5417626.81949  -3902924.29345  23963443.833    23963448.093
 03  4 11  1 55  0.0000000  0  8G31G25G14G11G 3G15G18G23
  23122023.000    -6879959.76549  -5317643.24746  23122022.407    23122026.091
  22643856.356   -13634341.50849 -10600754.21046  22643856.055    22643859.655
  20513824.785   -24742560.77549 -19260944.87948  20513824.195    20513825.554
  23060221.391   -10202001.95149  -7930835.04246  23060220.991    23060223.060
  23713142.998    -6766953.72649  -5256097.66745  23713142.583    23713147.144
  23050685.767   -13523035.52349 -10520213.26946  23050684.993    23050689.435
  23690224.637    -9436217.94649  -7328617.55545  23690223.959    23690226.684
  23974908.380    -5357383.27749  -3855981.30245  23974907.767    23974912.055
 03  4 11  1 55 30.0000000  0  8G31G25G14G11G 3G15G18G23
  23133537.010    -6819453.43649  -5270495.47446  23133536.435    23133540.127
  22626841.891   -13723752.82149 -10670425.29646  22626841.614    22626845.183
  20521046.753   -24704609.25049 -19231372.25848  20521046.155    20521047.485
  23043636.710   -10289154.92149  -7998746.41146  23043636.293    23043638.357
  23728909.016    -6684103.19749  -5191538.87945  23728908.568    23728913.200
  23070200.437   -13420484.93149 -10440303.74746  23070199.724    23070204.215
  23703822.100    -9364762.06649  -7272937.64845  23703821.655    23703824.374
  23986385.669    -5297069.81349  -3808983.80445  23986385.011    23986389.316
 03  4 11  1 56  0.0000000  0  8G31G25G14G11G 3G15G18G23
  23145116.426    -6758603.14149  -5223079.69046  23145115.870    23145119.548
  22609870.515   -13812938.20549 -10739920.33946  22609870.163    22609873.749
  20528342.306   -24666270.81349 -19201498.15448  20528341.695    20528343.052
  23027099.478   -10376058.45149  -8066463.39846  23027099.081    23027101.140
  23744695.737    -6601143.66649  -5126895.15145  23744695.300    23744699.894
  23089761.503   -13317690.61249 -10360204.35046  23089760.811    23089765.319
  23717437.189    -9293214.66949  -7217186.45345  23717436.690    23717439.458
  23997876.580    -5236685.26949  -3761930.91245  23997875.776    23997880.111
 03  4 11  1 56 30.0000000  0  8G31G25G14G11G 3G15G18G23
  23156760.832    -6697411.45049  -5175397.88446  23156760.259    23156763.928
  22592942.572   -13901894.69049 -10809237.02046  22592942.302    22592945.859
  20535711.104   -24627547.28749 -19171323.97848  20535710.514    20535711.878
  23010610.137   -10462710.08349  -8133984.10546  23010609.766    23010611.854
  23760502.519    -6518077.58649  -5062168.39045  23760502.206    23760506.899
  23109368.866   -13214654.13949 -10279916.22746  23109368.058    23109372.615
  23731069.736    -9221575.39349  -7161363.64345  23731069.282    23731071.988
  24009381.074    -5176228.80749  -3714821.99645  24009380.381    24009384.635
 03  4 11  1 57  0.0000000  0  8G31G25G14G11G 3G15G18G23
  23168469.317    -6635882.73949  -5127453.45446  23168468.792    23168472.486
  22576058.415   -13990621.22849 -10878374.52746  22576058.140    22576061.687
  20543152.487   -24588442.31749 -19140852.57348  20543151.902    20543153.298
  22994169.025   -10549108.98649  -8201307.89846  22994168.608    22994170.608
  23776329.072    -6434909.51749  -4997362.15545  23776328.680    23776333.293
  23129021.376   -13111379.19949 -10199442.30246  23129020.612    23129025.252
  23744719.411    -9149845.98149  -7105470.60345  23744718.923    23744721.660
  24020898.983    -5115701.89049  -3667658.18345  24020898.348    24020902.524
 03  4 11  1 57 30.0000000  0  8G31G25G14G11G 3G15G18G23
  23180241.755    -6574018.29249  -5079247.40946  23180241.173    23180244.925
  22559218.939   -14079113.34849 -10947329.36946  22559218.618    22559222.121
  20550666.505   -24548955.87149 -19110083.91448  20550665.910    20550667.299
  22977776.700   -10635251.13949  -8268431.61646  22977776.297    22977778.205
  23792174.565    -6351640.52649  -4932477.29445  23792174.221    23792178.951
  23148719.250   -13007866.26049 -10118782.93046  23148718.565    23148723.188
  23758386.607    -9078024.96249  -7049506.18945  23758386.091    23758388.642
  24032430.678    -5055102.46149  -3620437.85145  24032430.055    24032434.063
 03  4 11  1 58  0.0000000  0  8G31G25G14G11G 3G15G18G23
  23192077.528    -6511821.23549  -5030782.19646  23192076.919    23192080.651
  22542424.500   -14167368.89949 -11016099.86646  22542424.065    22542427.580
  20558252.653   -24509090.53249 -19079020.01348  20558252.068    20558253.454
  22961433.599   -10721134.56949  -8335353.73446  22961433.180    22961435.116
  23808038.675    -6268274.12349  -4867516.52945  23808038.318    23808043.125
  23168462.149   -12904117.38649 -10037939.69646  23168461.388    23168466.010
  23772071.162    -9006112.37449  -6993470.43245  23772070.658    23772073.137
  24043976.216    -4994430.45549  -3573160.98745  24043975.592    24043979.636
 03  4 11  1 58 30.0000000  0  8G31G25G14G11G 3G15G18G23
  23203975.930    -6449294.71449  -4982060.24846  23203975.272    23203979.037
  22525675.447   -14255385.36849 -11084684.06746  22525675.050    22525678.579
  20565910.470   -24468848.46149 -19047662.55548  20565909.877    20565911.260
  22945140.176   -10806757.39449  -8402072.76746  22945139.750    22945141.709
  23823920.694    -6184813.82349  -4802482.58745  23823920.332    23823925.077
  23188249.405   -12800134.75349  -9956914.33646  23188248.680    23188253.265
  23785772.951    -8934108.73449  -6937363.70245  23785772.483    23785775.009
  24055535.529    -4933685.78649  -3525827.49645  24055534.959    24055539.047
 03  4 11  1 59  0.0000000  0  8G31G25G14G11G 3G15G18G23
  23215936.521    -6386441.25549  -4933083.56246  23215935.882    23215939.564
  22508972.482   -14343159.32149 -11153079.30546  22508972.183    22508975.677
  20573639.615   -24428231.42049 -19016012.91048  20573639.016    20573640.412
  22928896.783   -10892116.72249  -8468586.48046  22928896.356    22928898.330
  23839820.246    -6101262.02149  -4737377.34245  23839819.836    23839824.476
  23208080.875   -12695919.88549  -9875707.98646  23208080.150    23208084.728
  23799492.222    -8862013.33949  -6881185.48345  23799491.704    23799494.252
  24067108.739    -4872867.77349  -3478436.83145  24067108.148    24067112.438
 03  4 11  1 59 30.0000000  0  8G31G25G14G11G 3G15G18G23
  23227958.749    -6323263.95949  -4883854.52346  23227958.169    23227961.893
  22492316.301   -14430688.38549 -11221283.71546  22492315.914    22492319.365
  20581439.683   -24387241.67449 -18984072.85148  20581439.086    20581440.522
  22912703.976   -10977210.13149  -8534892.99446  22912703.546    22912705.521
  23855736.371    -6017622.09449  -4672203.44345  23855735.987    23855740.657
  23227956.287   -12591474.86649  -9794322.32046  23227955.451    23227959.982
  23813228.907    -8789826.74449  -6824936.19645  23813228.326    23813231.030
  24078696.008    -4811976.39549  -3430989.01045  24078695.416    24078699.677
 03  4 11  2  0  0.0000000  0  8G31G25G14G11G 3G15G18G23
  23240042.136    -6259765.73149  -4834375.41346  23240041.564    23240045.276
  22475707.146   -14517970.07949 -11289295.36746  22475706.692    22475710.182
  20589310.325   -24345880.94749 -18951843.71148  20589309.757    20589311.184
  22896562.237   -11062035.54749  -8600990.68246  22896561.791    22896563.764
  23871668.882    -5933896.64249  -4606962.89445  23871668.468    23871673.153
  23247874.955   -12486801.86849  -9712759.00846  23247874.141    23247878.635
  23826982.887    -8717548.91649  -6768615.83345  23826982.362    23826985.018
  24090297.297    -4751011.22649  -3383483.69945  24090296.764    24090300.915
 03  4 11  2  0 30.0000000  0  8G31G25G14G11G 3G15G18G23
  23252185.986    -6195949.38949  -4784648.41946  23252185.397    23252189.170
  22459145.512   -14605001.46249 -11357111.98046  22459145.148    22459148.641
  20597251.180   -24304151.45749 -18919327.22748  20597250.610    20597252.052
  22880471.861   -11146590.83349  -8666877.88946  22880471.430    22880473.363
  23887617.088    -5850088.58849  -4541657.98245  23887616.677    23887621.417
  23267836.558   -12381902.76849  -9631019.48946  23267835.852    23267840.337
  23840754.330    -8645179.45049  -6712224.05845  23840753.879    23840756.481
  24101912.761    -4689971.88249  -3335920.59045  24101912.164    24101916.423
 03  4 11  2  1  0.0000000  0  8G31G25G14G11G 3G15G18G23
  23264389.762    -6131817.76449  -4734675.74046  23264389.178    23264393.025
  22442632.059   -14691780.14749 -11424731.68246  22442631.700    22442635.175
  20605261.883   -24262054.88849 -18886524.70648  20605261.314    20605262.753
  22864433.462   -11230873.18549  -8732552.42346  22864433.022    22864434.816
  23903580.527    -5766200.91249  -4476291.02945  23903580.066    23903584.738
  23287840.834   -12276779.31649  -9549105.15946  23287840.135    23287844.701
  23854543.139    -8572718.60549  -6655761.07145  23854542.604    23854545.348
  24113542.394    -4628858.08649  -3288299.45245  24113541.812    24113546.013
 03  4 11  2  1 30.0000000  0  8G31G25G14G11G 3G15G18G23
  23276653.145    -6067373.78549  -4684459.67646  23276652.569    23276656.269
  22426167.311   -14778303.27349 -11492152.24646  22426166.838    22426170.305
  20613342.020   -24219593.50449 -18853437.90848  20613341.451    20613342.876
  22848447.405   -11314880.56949  -8798012.67446  22848446.940    22848448.775
  23919558.333    -5682236.75749  -4410864.46745  23919557.944    23919562.656
  23307887.651   -12171433.47849  -9467017.56446  23307886.775    23307891.427
  23868349.433    -8500166.38749  -6599226.87045  23868348.886    23868351.668
  24125186.156    -4567669.48049  -3240620.05645  24125185.611    24125189.808
 03  4 11  2  2  0.0000000  0  8G31G25G14G11G 3G15G18G23
  23288975.499    -6002619.70149  -4634001.97146  23288974.888    23288978.555
  22409751.724   -14864567.48449 -11559371.06546  22409751.292    22409754.738
  20621491.333   -24176768.68549 -18820067.92048  20621490.759    20621492.163
  22832514.189   -11398610.01149  -8863256.36346  22832513.750    22832515.594
  23935550.412    -5598198.03849  -4345379.80945  23935550.073    23935554.717
  23327976.519   -12065866.66849  -9384757.75746  23327975.538    23327980.134
  23882173.179    -8427521.86149  -6542620.76745  23882172.716    23882175.587
  24136844.536    -4506404.95449  -3192881.46545  24136843.871    24136848.128
 03  4 11  2  2 30.0000000  0  8G31G25G14G11G 3G15G18G23
  23301356.066    -5937558.97249  -4583305.31746  23301355.458    23301359.271
  22393385.707   -14950570.75449 -11626386.55546  22393385.402    22393388.847
  20629709.359   -24133582.63749 -18786416.45248  20629708.770    20629710.164
  22816634.207   -11482059.30349  -8928281.74946  22816633.753    22816635.715
  23951556.093    -5514088.18949  -4279839.71745  23951555.773    23951560.319
  23348106.838   -11960081.36549  -9302327.71745  23348105.863    23348110.476
  23896014.483    -8354785.71849  -6485943.27345  23896013.924    23896016.903
  24148517.060    -4445064.80849  -3145083.95645  24148516.390    24148520.792
 03  4 11  2  3  0.0000000  0  8G31G25G14G11G 3G15G18G23
  23313794.540    -5872194.63949  -4532372.10146  23313793.946    23313797.736
  22377069.983   -15036310.11849 -11693196.40746  22377069.687    22377073.133
  20637995.631   -24090037.91049 -18752485.49948  20637995.053    20637996.450
  22800807.973   -11565226.56649  -8993087.38146  22800807.529    22800809.459
  23967574.560    -5429910.34149  -4214246.63745  23967574.264    23967578.825
  23368278.216   -11854079.61249  -9219728.99945  23368277.378    23368282.003
  23909873.233    -8281958.13449  -6429194.52945  23909872.669    23909875.566
  24160204.178    -4383648.75449  -3097227.30845  24160203.539    24160207.945
 03  4 11  2  3 30.0000000  0  8G31G25G14G11G 3G15G18G23
  23326290.300    -5806529.40249  -4481204.40446  23326289.716    23326293.387
  22360805.005   -15121783.12449 -11759798.69547  22360804.727    22360808.141
  20646349.844   -24046136.16949 -18718276.34648  20646349.270    20646350.704
  22785035.881   -11648109.19649  -9057671.22646  22785035.508    22785037.369
  23983605.453    -5345667.12349  -4148602.62745  23983605.155    23983609.873
  23388490.562   -11747863.18849  -9136963.00345  23388489.775    23388494.392
  23923749.373    -8209038.62749  -6372374.13845  23923748.764    23923751.556
  24171905.774    -4322156.22349  -3049311.05645  24171905.168    24171909.528
 03  4 11  2  4  0.0000000  0  8G31G25G14G11G 3G15G18G23
  23338842.761    -5740565.66149  -4429804.10946  23338842.195    23338845.874
  22344591.515   -15206986.14349 -11826190.60747  22344591.111    22344594.511
  20654771.684   -24001879.13249 -18683790.35048  20654771.129    20654772.544
  22769318.559   -11730704.09349  -9122030.86246  22769318.169    22769320.039
  23999648.512    -5261360.98449  -4082909.58645  23999648.099    23999652.895
  23408743.522   -11641433.65849  -9054030.96345  23408742.654    23408747.290
  23937643.080    -8136026.98249  -6315481.97745  23937642.455    23937645.162
  24183622.230    -4260586.25449  -3001334.47045  24183621.587    24183625.968
 03  4 11  2  4 30.0000000  0  8G31G25G14G11G 3G15G18G23
  23351451.321    -5674307.45049  -4378174.35846  23351450.727    23351454.372
  22328429.470   -15291918.01749 -11892371.24947  22328429.070    22328432.472
  20663260.609   -23957269.55949 -18649029.64448  20663260.053    20663261.476
  22753656.209   -11813010.01449  -9186165.31846  22753655.832    22753657.703
  24015702.690    -5176996.14049  -4017170.80345  24015702.295    24015706.980
  23429036.429   -11534794.15249  -8970935.30945  23429035.536    23429040.250
  23951553.877    -8062924.11649  -6258518.71345  23951553.365    23951556.265
  24195353.172    -4198939.68749  -2953298.18945  24195352.587    24195356.915
 03  4 11  2  5  0.0000000  0  8G31G25G14G11G 3G15G18G23
  23364115.494    -5607757.14649  -4326316.99546  23364114.900    23364118.533
  22312319.599   -15376575.47149 -11958338.05247  22312319.253    22312322.619
  20671816.291   -23912309.12149 -18613995.53548  20671815.710    20671817.143
  22738049.435   -11895024.07349  -9250072.33746  22738049.026    22738050.976
  24031767.616    -5092574.90449  -3951388.09245  24031767.183    24031771.980
  23449368.917   -11427946.04449  -8887677.07445  23449368.071    23449372.844
  23965482.318    -7989729.36449  -6201483.85945  23965481.722    23965484.893
  24207098.821    -4137215.57949  -2905201.50545  24207098.285    24207102.771
 03  4 11  2  5 30.0000000  0  8G31G25G14G11G 3G15G18G23
  23376834.818    -5540917.02249  -4274233.81046  23376834.185    23376837.852
  22296262.673   -15460955.30549 -12024088.52647  22296262.299    22296265.657
  20680438.540   -23866999.00549 -18578688.95448  20680437.981    20680439.400
  22722498.806   -11976743.47149  -9313749.75446  22722498.312    22722500.296
  24047842.828    -5008099.37949  -3885563.06345  24047842.415    24047847.291
  23469740.910   -11320890.36949  -8804257.12045  23469740.107    23469744.888
  23979428.446    -7916442.30649  -6144377.07545  23979427.767    23979430.919
  24218859.301    -4075413.03749  -2857043.68345  24218858.763    24218863.434
 03  4 11  2  6  0.0000000  0  8G31G25G14G11G 3G15G18G23
  23389608.170    -5473792.24149  -4221928.80446  23389607.552    23389611.263
  22280258.658   -15545056.60749 -12089621.96247  22280258.308    22280261.649
  20689126.501   -23821343.39149 -18543113.15648  20689125.936    20689127.391
  22707004.217   -12058167.74349  -9377197.21746  22707003.778    22707005.732
  24063927.434    -4923574.64149  -3819699.69445  24063927.050    24063931.888
  23490151.824   -11213631.41349  -8720678.77045  23490150.858    23490155.680
  23993391.862    -7843064.90549  -6087199.89845  23993391.141    23993394.236
  24230634.671    -4013533.80649  -2808826.11745  24230634.001    24230638.622
 03  4 11  2  6 30.0000000  0  8G31G25G14G11G 3G15G18G23
  23402435.778    -5406382.58449  -4169401.82846  23402435.231    23402438.832
  22264308.632   -15628873.98949 -12154934.16447  22264308.380    22264311.687
  20697880.379   -23775341.43649 -18507267.47948  20697879.816    20697881.252
  22691566.818   -12139291.64249  -9440410.62746  22691566.406    22691568.271
  24080021.449    -4839000.30149  -3753797.67645  24080021.099    24080025.919
  23510601.343   -11106168.26449  -8636941.30045  23510600.471    23510605.233
  24007372.828    -7769594.00549  -6029949.85345  24007372.172    24007375.325
  24242425.147    -3951574.38549  -2760546.06245  24242424.558    24242429.096
 03  4 11  2  7  0.0000000  0  8G31G25G14G11G 3G15G18G23
  23415316.716    -5338693.60549  -4116657.18946  23415316.104    23415319.705
  22248412.806   -15712407.33749 -12220025.04147  22248412.475    22248415.775
  20706699.358   -23728997.57049 -18471155.37948  20706698.781    20706700.220
  22676186.585   -12220115.26649  -9503390.05346  22676186.153    22676187.973
  24096123.775    -4754381.89449  -3687861.32245  24096123.381    24096128.318
  23531088.940   -10998505.52749  -8553048.31545  23531088.067    23531092.827
  24021371.230    -7696032.18249  -5972628.96345  24021370.511    24021373.711
  24254230.555    -3889537.08449  -2712205.33045  24254229.897    24254234.383
 03  4 11  2  7 30.0000000  0  8G31G25G14G11G 3G15G18G23
  23428250.322    -5270726.84849  -4063696.10246  23428249.740    23428253.405
  22232571.705   -15795652.59849 -12284891.42347  22232571.391    22232574.682
  20715583.277   -23682312.38749 -18434777.30848  20715582.700    20715584.088
  22660864.186   -12300634.82449  -9566132.53346  22660863.790    22660865.634
  24112234.207    -4669720.91249  -3621891.77945  24112233.798    24112238.860
  23551614.334   -10890643.68849  -8469000.18045  23551613.487    23551618.295
  24035387.231    -7622377.89849  -5915236.03045  24035386.509    24035389.868
  24266050.991    -3827419.94449  -2663802.38545  24266050.353    24266054.956
 03  4 11  2  8  0.0000000  0  8G31G25G14G11G 3G15G18G23
  23441236.300    -5202485.39549  -4010520.97446  23441235.650    23441239.341
  22216785.897   -15878607.26849 -12349531.37847  22216785.599    22216788.860
  20724531.725   -23635288.15649 -18398135.04848  20724531.126    20724532.504
  22645600.073   -12380848.24549  -9628636.46846  22645599.678    22645601.537
  24128352.396    -4585020.41549  -3555891.45745  24128351.830    24128356.827
  23572177.286   -10782584.87549  -8384798.56245  23572176.462    23572181.345
  24049420.722    -7548631.53349  -5857771.34145  24049419.933    24049423.287
  24277886.645    -3765222.88649  -2615337.14545  24277886.000    24277890.705
 03  4 11  2  8 30.0000000  0  8G31G25G14G11G 3G15G18G23
  23454273.871    -5133972.01249  -3957133.93246  23454273.304    23454277.070
  22201055.996   -15961268.18649 -12413942.43247  22201055.739    22201058.957
  20733544.311   -23587926.67949 -18361229.99748  20733543.706    20733545.088
  22630394.722   -12460752.87049  -9690899.77746  22630394.354    22630396.161
  24144477.426    -4500282.86449  -3489862.25745  24144476.916    24144481.900
  23592777.422   -10674330.73949  -8300444.73545  23592776.601    23592781.499
  24063471.863    -7474792.35449  -5800234.33045  24063471.116    24063474.374
  24289737.647    -3702945.17549  -2566809.06745  24289737.115    24289741.797
 03  4 11  2  9  0.0000000  0  8G31G25G14G11G 3G15G18G23
  23467362.637    -5065190.80549  -3903538.22046  23467362.034    23467365.777
  22185382.325   -16043634.31049 -12478123.77947  22185381.920    22185385.162
  20742620.474   -23540231.11649 -18324064.62448  20742619.883    20742621.261
  22615248.345   -12540347.50449  -9752921.54346  22615247.969    22615249.716
  24160608.684    -4415512.33549  -3423807.35445  24160608.189    24160613.325
  23613413.984   -10565884.58149  -8215941.28945  23613413.214    23613418.144
  24077540.432    -7400861.97549  -5742626.23645  24077539.657    24077542.920
  24301603.897    -3640587.81349  -2518218.92345  24301603.440    24301607.957
 03  4 11  2  9 30.0000000  0  8G31G25G14G11G 3G15G18G23
  23480501.808    -4996143.69749  -3849735.30946  23480501.207    23480505.052
  22169765.277   -16125701.76149 -12542072.39547  22169764.951    22169768.194
  20751759.985   -23492202.57149 -18286639.78648  20751759.376    20751760.799
  22600161.675   -12619628.65049  -9814699.04346  22600161.284    22600162.982
  24176745.956    -4330710.85649  -3357728.31845  24176745.427    24176750.571
  23634086.892   -10457247.35549  -8131288.97045  23634086.152    23634091.196
  24091626.452    -7326839.13449  -5684946.12645  24091625.674    24091629.021
  24313485.738    -3578149.35549  -2469565.57145  24313485.174    24313489.548
 03  4 11  2 10  0.0000000  0  8G31G25G14G11G 3G15G18G23
  23493690.848    -4926834.89849  -3795728.47146  23493690.257    23493694.159
  22154205.415   -16207469.24049 -12605787.26447  22154205.083    22154208.305
  20760962.274   -23443844.07749 -18248957.84148  20760961.685    20760963.129
  22585134.862   -12698595.32149  -9876231.48546  22585134.437    22585136.120
  24192888.368    -4245882.36149  -3291628.24845  24192887.842    24192893.002
  23654795.626   -10348422.37249  -8046490.32845  23654794.866    23654799.837
  24105729.891    -7252725.02449  -5627194.85745  24105729.181    24105732.403
  24325382.543    -3515630.46449  -2420849.54745  24325381.999    24325386.402
 03  4 11  2 10 30.0000000  0  8G31G25G14G11G 3G15G18G23
  23506929.500    -4857265.42449  -3741518.51346  23506928.922    23506932.848
  22138703.489   -16288932.05449 -12669264.73447  22138703.185    22138706.386
  20770227.350   -23395155.79449 -18211018.92248  20770226.751    20770228.203
  22570168.586   -12777243.01249  -9937515.36546  22570168.188    22570169.947
  24209035.700    -4161027.58449  -3225507.69345  24209035.273    24209040.325
  23675540.080   -10239409.69449  -7961545.42345  23675539.366    23675544.342
  24119851.166    -7178517.58149  -5569370.88145  24119850.474    24119853.585
  24337295.221    -3453028.94549  -2372069.14245  24337294.721    24337299.189
 03  4 11  2 11  0.0000000  0  8G31G25G14G11G 3G15G18G23
  23520216.816    -4787440.47749  -3687109.48946  23520216.193    23520220.037
  22123259.687   -16370089.77849 -12732504.47547  22123259.346    22123262.509
  20779554.358   -23346141.98349 -18172826.33748  20779553.764    20779555.220
  22555263.002   -12855571.99149  -9998550.88546  22555262.636    22555264.448
  24225187.071    -4076151.37249  -3159370.43145  24225186.692    24225191.756
  23696319.345   -10130213.62249  -7876457.60945  23696318.770    23696323.607
  24133989.798    -7104218.97749  -5511475.84545  24133989.007    24133992.193
  24349223.395    -3390346.61949  -2323225.78145  24349222.854    24349227.231
 03  4 11  2 11 30.0000000  0  8G31G25G14G11G 3G15G18G23
  23533552.637    -4717360.06949  -3632501.40146  23533552.041    23533555.853
  22107874.962   -16450937.18149 -12795502.40447  22107874.597    22107877.732
  20788943.509   -23296801.76949 -18134379.42248  20788942.904    20788944.377
  22540419.287   -12933576.36949 -10059333.50046  22540418.913    22540420.656
  24241342.708    -3991253.91949  -3093216.62345  24241342.148    24241347.290
  23717133.635   -10020833.35649  -7791226.29845  23717133.150    23717138.257
  24148146.156    -7029826.41449  -5453507.61145  24148145.497    24148148.648
  24361167.403    -3327580.24949  -2274316.89145  24361166.845    24361171.500
 03  4 11  2 12  0.0000000  0  8G31G25G14G11G 3G15G18G23
  23546936.076    -4647030.07649  -3577698.83846  23546935.406    23546939.329
  22092549.159   -16531474.35649 -12858258.59847  22092548.837    22092551.965
  20798393.781   -23247140.03849 -18095681.97348  20798393.182    20798394.696
  22525637.156   -13011257.01049 -10119863.84646  22525636.766    22525638.519
  24257501.103    -3906340.96449  -3027050.73145  24257500.541    24257505.745
  23737982.351    -9911273.53349  -7705855.06045  23737981.736    23737986.696
  24162319.989    -6955342.49449  -5395468.17845  24162319.334    24162322.205
  24373127.059    -3264732.31349  -2225344.46545  24373126.475    24373130.986
 03  4 11  2 12 30.0000000  0  8G31G25G14G11G 3G15G18G23
  23560366.462    -4576452.43149  -3522703.27846  23560365.768    23560369.867
  22077283.193   -16611697.66249 -12920770.21647  22077282.815    22077285.965
  20807905.041   -23197157.86349 -18056734.82348  20807904.438    20807905.962
  22510917.173   -13088610.57949 -10180139.32046  22510916.807    22510918.596
  24273662.230    -3821414.17749  -2960874.06845  24273661.594    24273666.824
  23758864.923    -9801535.06949  -7620344.59545  23758864.341    23758869.380
  24176511.278    -6880766.34749  -5337356.90845  24176510.581    24176513.586
  24385102.552    -3201801.44549  -2176307.42345  24385101.886    24385106.223
 03  4 11  2 13  0.0000000  0  8G31G25G14G11G 3G15G18G23
  23573843.868    -4505628.72149  -3467516.00646  23573843.198    23573847.207
  22062077.629   -16691603.22449 -12983034.24547  22062077.262    22062080.388
  20817477.222   -23146855.73549 -18017538.36248  20817476.621    20817478.144
  22496260.217   -13165633.23749 -10240156.94546  22496259.833    22496261.601
  24289825.640    -3736474.84249  -2894687.62545  24289825.034    24289830.343
  23779781.416    -9691618.88449  -7534695.67045  23779780.740    23779785.752
  24190720.565    -6806096.46849  -5279172.58145  24190719.862    24190722.856
  24397093.960    -3138785.75249  -2127204.25745  24397093.344    24397097.720
 03  4 11  2 13 30.0000000  0  8G31G25G14G11G 3G15G18G23
  23587366.854    -4434565.11849  -3412141.79746  23587366.246    23587370.173
  22046932.366   -16771191.85449 -13045051.31547  22046932.027    22046935.122
  20827109.249   -23096238.94149 -17978096.70948  20827108.683    20827110.171
  22481666.111   -13242325.75149 -10299917.31946  22481665.717    22481667.499
  24305990.306    -3651529.02349  -2828496.12245  24305989.724    24305994.994
  23800730.730    -9581530.16149  -7448912.28245  23800730.037    23800734.965
  24204947.032    -6731336.23149  -5220917.85545  24204946.285    24204949.142
  24409101.050    -3075688.21449  -2078037.35145  24409100.441    24409104.933
 03  4 11  2 14  0.0000000  0  8G31G25G14G11G 3G15G18G23
  23600935.225    -4363262.66249  -3356581.46646  23600934.583    23600938.567
  22031848.372   -16850458.85049 -13106817.75447  22031848.009    22031851.036
  20836801.199   -23045307.69849 -17938410.02348  20836800.593    20836802.053
  22467135.670   -13318683.68549 -10359416.98646  22467135.265    22467136.997
  24322156.071    -3566577.67849  -2762300.31845  24322155.552    24322160.658
  23821712.895    -9471268.83249  -7362994.41445  23821712.082    23821717.120
  24219190.858    -6656483.43049  -5162590.99045  24219190.215    24219193.255
  24421124.168    -3012506.46249  -2028804.79745  24421123.548    24421127.849
 03  4 11  2 14 30.0000000  0  8G31G25G14G11G 3G15G18G23
  23614548.579    -4291723.95649  -3300837.03346  23614547.919    23614551.984
  22016826.122   -16929401.12749 -13168331.17047  22016825.759    22016828.769
  20846552.706   -22994063.37449 -17898479.38148  20846552.082    20846553.518
  22452669.343   -13394704.67449 -10418654.08246  22452668.891    22452670.614
  24338322.523    -3481622.96249  -2696101.89145  24338321.990    24338327.121
  23842727.537    -9360836.79249  -7276943.53645  23842726.712    23842731.657
  24233452.635    -6581537.52549  -5104191.58645  24233452.019    24233455.006
  24433163.446    -2949239.70649  -1979506.03945  24433162.863    24433166.950
 03  4 11  2 15  0.0000000  0  8G31G25G14G11G 3G15G18G23
  23628206.435    -4219951.61549  -3244910.55446  23628205.783    23628209.896
  22001866.157   -17008015.85349 -13229589.35547  22001865.825    22001868.826
  20856363.460   -22942507.65749 -17858306.09748  20856362.821    20856364.245
  22438267.764   -13470385.69849 -10477626.29246  22438267.311    22438269.040
  24354489.053    -3396667.42049  -2629902.81845  24354488.519    24354493.719
  23863774.080    -9250235.83449  -7190760.99145  23863773.335    23863778.171
  24247732.231    -6506498.31349  -5045719.45945  24247731.614    24247734.438
  24445218.831    -2885887.19649  -1930140.44945  24445218.248    24445222.468
 03  4 11  2 15 30.0000000  0  8G31G25G14G11G 3G15G18G23
  23641907.769    -4147950.76149  -3188806.02246  23641907.178    23641911.159
  21986968.716   -17086302.45449 -13290591.84947  21986968.369    21986971.351
  20866232.603   -22890644.79449 -17817893.47648  20866231.968    20866233.395
  22423930.732   -13545726.69849 -10536333.52846  22423930.336    22423932.128
  24370654.850    -3311715.79249  -2563706.79245  24370654.158    24370659.556
  23884852.290    -9139469.73149  -7104449.81445  23884851.402    23884856.435
  24262029.027    -6431367.46249  -4987175.92345  24262028.437    24262031.282
  24457290.292    -2822450.72049  -1880709.41845  24457289.670    24457293.879
 03  4 11  2 16  0.0000000  0  8G31G25G14G11G 3G15G18G23
  23655652.273    -4075722.96249  -3132524.65646  23655651.673    23655655.643
  21972134.435   -17164257.19449 -13351335.74747  21972134.038    21972137.013
  20876160.110   -22838475.32849 -17777241.94048  20876159.476    20876160.939
  22409659.293   -13620723.73749 -10594772.76146  22409658.876    22409660.608
  24386819.535    -3226769.41449  -2497514.85845  24386819.046    24386824.331
  23905961.730    -9028539.38749  -7018010.61445  23905960.788    23905965.859
  24276343.664    -6356143.91849  -4928560.17045  24276342.978    24276345.852
  24469378.287    -2758928.55449  -1831211.62945  24469377.672    24469381.606
 03  4 11  2 16 30.0000000  0  8G31G25G14G11G 3G15G18G23
  23669439.191    -4003271.87049  -3076069.27646  23669438.598    23669442.672
  21957363.421   -17241878.20149 -13411819.61147  21957363.204    21957366.131
  20886145.403   -22786001.84449 -17736353.51648  20886144.813    20886146.307
  22395453.510   -13695375.46949 -10652942.92346  22395453.110    22395454.808
  24402982.682    -3141831.75949  -2431329.72545  24402982.166    24402987.437
  23927101.778    -8917447.43349  -6931445.50345  23927100.931    23927105.994
  24290675.716    -6280828.12749  -4869872.52945  24290675.096    24290677.967
  24481482.284    -2695320.87049  -1781647.18645  24481481.693    24481485.786
 03  4 11  2 17  0.0000000  0  8G31G25G14G11G 3G15G18G23
  23683268.402    -3930599.23049  -3019441.28946  23683267.795    23683271.814
  21942656.902   -17319161.63949 -13472040.42347  21942656.615    21942659.551
  20896188.414   -22733225.42849 -17695229.03648  20896187.820    20896189.353
  22381314.214   -13769677.99149 -10710840.96346  22381313.759    22381315.517
  24419144.111    -3056904.40749  -2365152.59845  24419143.489    24419148.464
  23948272.619    -8806194.58749  -6844755.00245  23948271.784    23948276.698
  24305025.637    -6205418.95049  -4811112.12545  24305024.960    24305027.755
  24493603.033    -2631626.10949  -1732014.89045  24493602.441    24493606.652
 03  4 11  2 17 30.0000000  0  8G31G25G14G11G 3G15G18G23
  23697138.907    -3857709.29949  -2962643.96146  23697138.283    23697142.261
  21928014.860   -17396106.20449 -13531997.17747  21928014.511    21928017.470
  20906288.528   -22680149.00449 -17653870.78248  20906287.928    20906289.475
  22367241.481   -13843630.16749 -10768466.01846  22367241.071    22367242.857
  24435302.337    -2971991.28149  -2298986.55845  24435301.793    24435306.826
  23969473.236    -8694784.24949  -6757941.75045  23969472.440    23969477.325
  24319392.930    -6129917.33849  -4752279.69545  24319392.315    24319395.106
  24505740.126    -2567845.01049  -1682315.33145  24505739.539    24505743.761
 03  4 11  2 18  0.0000000  0  8G31G25G14G11G 3G15G18G23
  23711050.243    -3784604.93649  -2905679.55446  23711049.642    23711053.577
  21913437.715   -17472709.10249 -13591687.70047  21913437.403    21913440.389
  20916445.350   -22626774.61149 -17612280.34848  20916444.737    20916446.259
  22353235.935   -13917229.99349 -10825816.50946  22353235.517    22353237.229
  24451457.708    -2887095.01449  -2232833.67545  24451457.138    24451462.067
  23990703.593    -8583218.59549  -6671007.51345  23990702.742    23990707.752
  24333777.897    -6054323.47449  -4693375.38345  24333777.316    24333780.199
  24517893.760    -2503977.26549  -1632548.23645  24517893.156    24517897.376
 03  4 11  2 18 30.0000000  0  8G31G25G14G11G 3G15G18G23
  23725002.075    -3711287.82149  -2848549.36545  23725001.433    23725005.359
  21898926.288   -17548966.92849 -13651109.33447  21898926.009    21898928.972
  20926658.753   -22573102.94349 -17570458.27048  20926658.166    20926659.639
  22339298.081   -13990473.67649 -10882889.48646  22339297.696    22339299.399
  24467609.395    -2802217.05649  -2166695.06345  24467608.817    24467613.941
  24011963.095    -8471498.14449  -6583952.66445  24011962.424    24011967.351
  24348180.768    -5978635.76449  -4634397.92545  24348180.236    24348183.050
  24530064.314    -2440021.06949  -1582712.24845  24530063.671    24530067.752
 03  4 11  2 19  0.0000000  0  8G31G25G14G11G 3G15G18G23
  23738993.378    -3637763.01549  -2791257.34545  23738992.738    23738996.771
  21884480.608   -17624879.20849 -13710261.70747  21884480.320    21884483.284
  20936927.952   -22519138.16749 -17528407.79448  20936927.337    20936928.778
  22325428.139   -14063360.72949 -10939684.56946  22325427.748    22325429.427
  24483756.649    -2717362.09049  -2100574.35445  24483756.178    24483761.334
  24033251.264    -8359627.09749  -6496780.43245  24033250.717    24033255.614
  24362601.142    -5902856.42749  -4575349.11345  24362600.693    24362603.358
  24542251.215    -2375978.15949  -1532808.67545  24542250.605    24542254.541
 03  4 11  2 19 30.0000000  0  8G31G25G14G11G 3G15G18G23
  23753023.896    -3564032.69449  -2733805.18445  23753023.234    23753027.175
  21870101.426   -17700442.31449 -13769142.00347  21870101.114    21870104.042
  20947252.674   -22464881.25149 -17486129.68148  20947252.069    20947253.481
  22311626.694   -14135887.86849 -10996199.20146  22311626.302    22311627.947
  24499899.435    -2632531.82149  -2034472.90445  24499898.894    24499904.031
  24054568.267    -8247606.61049  -6409491.76545  24054567.559    24054572.423
  24377039.205    -5826984.43749  -4516228.09845  24377038.587    24377041.337
  24554455.006    -2311847.17149  -1482836.49045  24554454.275    24554458.493
 03  4 11  2 20  0.0000000  0  8G31G25G14G11G 3G15G18G23
  23767092.733    -3490100.34249  -2676195.59145  23767092.135    23767096.021
  21855788.960   -17775654.47249 -13827748.83247  21855788.673    21855791.591
  20957632.526   -22410334.76149 -17443625.92348  20957631.903    20957633.308
  22297894.030   -14208053.41549 -11052432.06946  22297893.610    22297895.233
  24516036.688    -2547729.59249  -1968393.28945  24516036.182    24516041.373
  24075913.190    -8135439.10149  -6322088.53945  24075912.363    24075917.295
  24391494.516    -5751020.26149  -4457035.23145  24391494.000    24391496.919
  24566675.311    -2247628.26849  -1432795.78645  24566674.714    24566679.105
 03  4 11  2 20 30.0000000  0  8G31G25G14G11G 3G15G18G23
  23781199.685    -3415967.85149  -2618430.04245  23781199.098    23781203.009
  21841543.988   -17850512.16349 -13886079.45147  21841543.694    21841546.627
  20968067.285   -22355499.72049 -17400897.31848  20968066.680    20968068.060
  22284230.839   -14279854.05349 -11108380.60147  22284230.428    22284232.049
  24532168.437    -2462956.88949  -1902336.69045  24532167.993    24532173.299
  24097285.839    -8023125.45749  -6234571.44345  24097284.957    24097289.917
  24405968.070    -5674962.61949  -4397769.54245  24405967.500    24405970.056
  24578912.837    -2183319.99149  -1382685.43845  24578912.273    24578916.576
 03  4 11  2 21  0.0000000  0  8G31G25G14G11G 3G15G18G23
  23795343.936    -3341639.41049  -2560511.80745  23795343.307    23795347.346
  21827366.717   -17925014.07049 -13944132.83947  21827366.379    21827369.319
  20978556.380   -22300379.23749 -17357946.29648  20978555.768    20978557.179
  22270637.159   -14351288.86549 -11164044.06647  22270636.749    22270638.431
  24548293.898    -2378217.75149  -1836306.24445  24548293.440    24548298.696
  24118685.680    -7910669.20049  -6146943.20345  24118684.653    24118689.675
  24420458.820    -5598812.82149  -4338432.03145  24420458.298    24420460.920
  24591167.029    -2118923.37749  -1332506.27345  24591166.430    24591170.721
 03  4 11  2 21 30.0000000  0  8G31G25G14G11G 3G15G18G23
  23809525.020    -3267117.33749  -2502442.69345  23809524.439    23809528.444
  21813257.719   -17999156.76049 -14001906.31647  21813257.456    21813260.377
  20989099.464   -22244974.65149 -17314773.89348  20989098.859    20989100.331
  22257113.750   -14422354.78249 -11219420.07947  22257113.351    22257115.020
  24564412.477    -2293514.15049  -1770303.48345  24564412.031    24564417.303
  24140112.247    -7798071.67049  -6059204.88045  24140111.349    24140116.357
  24434967.302    -5522570.00649  -4279022.03845  24434966.705    24434969.672
  24603438.283    -2054437.30449  -1282257.38645  24603437.635    24603442.025
 03  4 11  2 22  0.0000000  0  8G31G25G14G11G 3G15G18G23
  23823742.754    -3192402.94049  -2444223.71545  23823742.136    23823746.051
  21799217.864   -18072936.52149 -14059396.98647  21799217.576    21799220.474
  20999696.641   -22189286.10249 -17271380.22748  20999696.053    20999697.514
  22243661.323   -14493047.58249 -11274505.35247  22243660.924    22243662.571
  24580524.299    -2208846.87049  -1704329.03945  24580523.658    24580529.051
  24161565.513    -7685333.21449  -5971356.77145  24161564.686    24161569.681
  24449493.909    -5446232.39149  -4219538.20145  24449493.298    24449496.194
  24615727.073    -1989859.53649  -1231937.05745  24615726.327    24615730.909
 03  4 11  2 22 30.0000000  0  8G31G25G14G11G 3G15G18G23
  23837995.540    -3117504.03049  -2385860.95545  23837994.939    23837998.858
  21785246.611   -18146355.95249 -14116606.89047  21785246.288    21785249.170
  21010346.571   -22133320.61249 -17227770.75548  21010345.960    21010347.439
  22230279.475   -14563369.72449 -11329301.80647  22230279.038    22230280.705
  24596627.283    -2124223.67249  -1638388.90545  24596626.810    24596632.257
  24183044.423    -7572460.94749  -5883404.36645  24183043.558    24183048.531
  24464037.595    -5369804.97549  -4159984.38445  24464036.989    24464039.942
  24628032.276    -1925194.69549  -1181548.84945  24628031.519    24628036.220
 03  4 11  2 23  0.0000000  0  8G31G25G14G11G 3G15G18G23
  23852283.468    -3042420.01649  -2327353.96845  23852282.908    23852286.894
  21771345.053   -18219408.82349 -14173531.15747  21771344.762    21771347.657
  21021049.451   -22077076.42449 -17183944.12148  21021048.851    21021050.371
  22216969.181   -14633315.54149 -11383805.02347  22216968.792    22216970.415
  24612722.545    -2039643.32949  -1572482.20145  24612721.996    24612727.384
  24204549.156    -7459453.10849  -5795346.33445  24204548.269    24204553.265
  24478598.952    -5293284.21249  -4100357.83245  24478598.379    24478601.352
  24640355.102    -1860438.75749  -1131089.69545  24640354.407    24640358.946
 03  4 11  2 23 30.0000000  0  8G31G25G14G11G 3G15G18G23
  23866606.151    -2967154.16749  -2268705.26745  23866605.563    23866609.573
  21757513.693   -18292092.90149 -14230168.04947  21757513.377    21757516.284
  21031804.900   -22020555.99349 -17139902.22947  21031804.315    21031805.873
  22203730.954   -14702883.01749 -11438013.42447  22203730.497    22203732.177
  24628808.829    -1955109.06249  -1506611.38345  24628808.350    24628813.686
  24226079.225    -7346312.22149  -5707184.62845  24226078.206    24226083.354
  24493178.153    -5216670.37649  -4040658.74745  24493177.595    24493180.413
  24652695.111    -1795591.72149  -1080559.55845  24652694.445    24652698.975
 03  4 11  2 24  0.0000000  0  8G31G25G14G11G 3G15G18G23
  23880962.593    -2891710.87049  -2209918.31245  23880961.994    23880965.879
  21743752.720   -18364407.14649 -14286516.75647  21743752.394    21743755.321
  21042612.351   -21963762.49349 -17095647.55847  21042611.773    21042613.319
  22190564.855   -14772071.19249 -11491926.26147  22190564.402    22190566.035
  24644885.616    -1870624.93549  -1440779.63845  24644885.191    24644890.425
  24247633.816    -7233041.69049  -5618921.88745  24247632.953    24247637.910
  24507774.701    -5139964.58149  -3980887.98345  24507774.102    24507776.813
  24665052.127    -1730654.52649  -1029959.15345  24665051.420    24665056.169
 03  4 11  2 24 30.0000000  0  8G31G25G14G11G 3G15G18G23
  23895352.432    -2816091.56449  -2150994.20645  23895351.852    23895355.741
  21730062.864   -18436347.45549 -14342574.08747  21730062.571    21730065.460
  21053471.646   -21906696.39349 -17051180.47047  21053471.045    21053472.638
  22177471.590   -14840876.27949 -11545540.59047  22177471.176    22177472.849
  24660952.893    -1786191.69449  -1374987.53345  24660952.437    24660957.665
  24269212.878    -7119642.06749  -5530558.57045  24269212.174    24269217.278
  24522389.196    -5063165.31649  -3921044.41145  24522388.573    24522391.187
  24677426.744    -1665625.27749   -979286.99845  24677426.014    24677430.633
 03  4 11  2 25  0.0000000  0  8G31G25G14G11G 3G15G18G23
  23909775.141    -2740299.89649  -2091935.78945  23909774.627    23909778.443
  21716444.517   -18507912.36149 -14398338.90047  21716444.199    21716447.057
  21064382.281   -21849360.35249 -17006503.04547  21064381.722    21064383.336
  22164451.649   -14909296.71049 -11598855.19947  22164451.240    22164452.807
  24677009.715    -1701812.80849  -1309237.78945  24677009.281    24677014.515
  24290816.018    -7006116.09149  -5442096.77845  24290815.319    24290820.557
  24537021.135    -4986273.28349  -3861128.54645  24537020.554    24537023.445
  24689818.877    -1600504.41649   -928543.46545  24689818.035    24689822.772
 03  4 11  2 25 30.0000000  0  8G31G25G14G11G 3G15G18G23
  23924230.179    -2664338.32549  -2032744.97945  23924229.590    23924233.424
  21702898.107   -18579098.84049 -14453808.82947  21702897.807    21702900.662
  21075344.118   -21791755.79749 -16961616.38147  21075343.543    21075345.112
  22151505.349   -14977329.90149 -11651868.04747  22151504.942    22151506.501
  24693055.831    -1617490.17749  -1243531.88745  24693055.583    24693060.684
  24312443.133    -6892465.05549  -5353537.54345  24312442.386    24312447.780
  24551671.004    -4909287.53449  -3801139.65745  24551670.591    24551673.371
  24702228.614    -1535290.94649   -877727.78645  24702227.734    24702232.545
 03  4 11  2 26  0.0000000  0  8G31G25G14G11G 3G15G18G23
  23938716.801    -2588211.02349  -1973425.03845  23938716.221    23938720.082
  21689423.914   -18649906.01949 -14508983.20947  21689423.605    21689426.453
  21086356.400   -21733885.93949 -16916522.99047  21086355.790    21086357.345
  22138633.020   -15044974.39749 -11704578.01847  22138632.604    22138634.156
  24709090.534    -1533227.86849  -1177872.99345  24709090.152    24709095.432
  24334093.487    -6778692.57049  -5264883.67645  24334092.718    24334097.959
  24566338.639    -4832209.61449  -3741078.95745  24566338.178    24566340.780
  24714655.791    -1469985.64849   -826840.55245  24714655.030    24714659.807
 03  4 11  2 26 30.0000000  0  8G31G25G14G11G 3G15G18G23
  23953234.436    -2511921.12149  -1913978.39945  23953233.801    23953237.570
  21676022.425   -18720331.13449 -14563859.87747  21676022.122    21676024.942
  21097418.796   -21675752.90349 -16871224.52447  21097418.211    21097419.676
  22125835.020   -15112228.24349 -11756983.59447  22125834.614    22125836.195
  24725113.154    -1449028.40549  -1112263.05745  24725112.831    24725118.118
  24355766.400    -6664800.72049  -5176136.79145  24355765.675    24355770.883
  24581023.549    -4755039.33549  -3680946.25745  24581023.092    24581025.714
  24727100.404    -1404588.23649   -775881.51145  24727099.626    24727104.506
 03  4 11  2 27  0.0000000  0  8G31G25G14G11G 3G15G18G23
  23967782.524    -2435469.99549  -1854406.10045  23967781.980    23967785.690
  21662694.276   -18790370.78549 -14618436.17347  21662693.969    21662696.761
  21108531.236   -21617356.95349 -16825721.19147  21108530.618    21108532.041
  22113112.067   -15179087.48649 -11809081.68547  22113111.661    22113113.268
  24741123.527    -1364892.70949  -1046702.81745  24741123.306    24741128.580
  24377461.943    -6550789.90449  -5087297.19145  24377461.165    24377466.444
  24595726.453    -4677775.25249  -3620740.45845  24595725.863    24595728.611
  24739563.126    -1339096.90149   -724849.31345  24739562.317    24739567.005
 03  4 11  2 27 30.0000000  0  7G31G25G14G11G 3G15G23
  23982359.820    -2358865.60649  -1794714.40045  23982359.278    23982363.120
  21649439.035   -18860027.35949 -14672713.97747  21649438.705    21649441.504
  21119692.313   -21558705.12049 -16780018.47047  21119691.682    21119693.111
  22100463.742   -15245554.82149 -11860874.38847  22100463.347    22100464.984
  24757120.559    -1280828.38349   -981198.19045  24757120.252    24757125.547
  24399178.742    -6436667.25649  -4998370.45345  24399178.160    24399183.256
  24752042.650    -1273516.27149   -673747.52645  24752041.998    24752046.565
 03  4 11  2 28  0.0000000  0  6G31G25G14G11G 3G15
  23996966.144    -2282109.44349  -1734904.42545  23996965.567    23996969.449
  21636257.382   -18929297.19349 -14726690.42147  21636257.051    21636259.879
  21130902.017   -21499797.68549 -16734116.58047  21130901.401    21130902.864
  22087890.686   -15311626.67849 -11912358.93247  22087890.282    22087891.923
  24773103.703    -1196836.52049   -915750.02945  24773103.298    24773108.705
  24420916.674    -6322433.42149  -4909357.08045  24420916.092    24420921.269
 03  4 11  2 28 30.0000000  0  6G31G25G14G11G 3G15
  24011601.263    -2205201.25349  -1674975.99645  24011600.734    24011604.557
  21623150.327   -18998174.88649 -14780361.30147  21623150.035    21623152.818
  21142160.570   -21440633.48949 -16688014.61247  21142159.977    21142161.438
  22075393.885   -15377297.48249 -11963530.97047  22075393.513    22075395.092
  24789073.147    -1112916.34149   -850357.72245  24789072.713    24789078.014
  24442675.969    -6208087.38149  -4820256.27045  24442675.297    24442680.583
 03  4 11  2 29  0.0000000  0  6G31G25G14G11G 3G15
  24026265.208    -2128142.37649  -1614930.15345  24026264.593    24026268.462
  21610118.732   -19066656.32849 -14833723.41647  21610118.436    21610121.194
  21153467.930   -21381212.84549 -16641712.82047  21153467.329    21153468.811
  22062974.183   -15442563.49449 -12014387.58947  22062973.781    22062975.375
  24805028.830    -1029068.93949   -785022.12245  24805028.365    24805033.811
  24464456.720    -6093629.43149  -4731068.24845  24464455.880    24464461.131
 03  4 11  2 29 30.0000000  0  6G31G25G14G11G 3G15
  24040956.329    -2050939.12349  -1554771.80945  24040955.773    24040959.756
  21597162.361   -19134742.47149 -14886777.50447  21597162.036    21597164.792
  21164823.113   -21321540.75449 -16595215.08747  21164822.508    21164824.019
  22050631.207   -15507425.77149 -12064929.58947  22050630.826    22050632.520
  24820969.572     -945300.11349   -719747.75945  24820969.090    24820974.525
  24486257.708    -5979064.90649  -4641797.18245  24486256.738    24486262.065
 03  4 11  2 30  0.0000000  0  5G31G25G14G11G15
  24055675.686    -1973588.31849  -1494498.49945  24055675.173    24055679.075
  21584282.727   -19202424.85849 -14939516.98047  21584282.462    21584285.179
  21176226.854   -21261613.26349 -16548518.34747  21176226.284    21176227.854
  22038366.767   -15571875.96549 -12115150.50147  22038366.366    22038368.074
  24508079.579    -5864390.03949  -4552440.11945  24508078.670    24508083.968
 03  4 11  2 30 30.0000000  0  5G31G25G14G11G15
  24070421.551    -1896098.72949  -1434117.03145  24070420.904    24070424.952
  21571479.290   -19269707.08249 -14991944.63947  21571479.046    21571481.742
  21187677.798   -21201437.96049 -16501628.50547  21187677.246    21187678.850
  22026180.119   -15635917.52349 -12165053.00347  22026179.703    22026181.313
  24529920.946    -5749612.55249  -4463003.13445  24529920.170    24529925.310
 03  4 11  2 31  0.0000000  0  5G31G25G14G11G15
  24085193.090    -1818473.43349  -1373629.81745  24085192.448    24085196.557
  21558752.467   -19336587.17049 -15044058.94247  21558752.157    21558754.868
  21199175.517   -21141017.22849 -16454547.41847  21199174.947    21199176.557
  22014071.472   -15699548.48249 -12214635.54947  22014071.076    22014072.691
  24551781.414    -5634734.56149  -4373487.79845  24551780.627    24551785.724
 03  4 11  2 31 30.0000000  0  5G31G25G14G11G15
  24099989.870    -1740716.06649  -1313039.70145  24099989.254    24099993.396
  21546102.345   -19403063.70449 -15095858.79747  21546102.044    21546104.757
  21210719.474   -21080353.43649 -16407276.93447  21210718.885    21210720.501
  22002041.273   -15762767.40549 -12263897.02747  22002040.884    22002042.527
  24573660.413    -5519758.88049  -4283896.32645  24573659.731    24573664.887
 03  4 11  2 32  0.0000000  0  5G31G25G14G11G15
  24114811.025    -1662830.15749  -1252349.40845  24114810.394    24114814.687
  21533529.336   -19469134.78949 -15147342.71447  21533529.108    21533531.755
  21222309.216   -21019449.09249 -16359819.00347  21222308.611    21222310.215
  21990089.871   -15825572.65049 -12312836.16547  21990089.478    21990091.071
  24595557.716    -5404688.20249  -4194230.84445  24595556.880    24595562.017
 03  4 11  2 32 30.0000000  0  5G31G25G14G11G15
  24129656.253    -1584818.03749  -1191560.78845  24129655.707    24129659.905
  21521034.145   -19534797.58949 -15198508.48047  21521033.849    21521036.474
  21233944.544   -20958305.21749 -16312174.43747  21233943.907    21233945.513
  21978217.610   -15887961.44849 -12361450.79947  21978217.197    21978218.779
  24617472.653    -5289524.26149  -4104492.67445  24617472.099    24617476.931
 03  4 11  2 33  0.0000000  0  5G31G25G14G11G15
  24144525.195    -1506681.58249  -1130675.27345  24144524.554    24144528.827
  21508617.142   -19600048.89949 -15249353.61447  21508616.894    21508619.532
  21245625.188   -20896923.01149 -16264344.15547  21245624.580    21245626.172
  21966425.291   -15949930.49349 -12409738.34747  21966424.890    21966426.495
  24639405.022    -5174267.78849  -4014682.40345  24639404.446    24639409.560
 03  4 11  2 33 30.0000000  0  5G31G25G14G11G15
  24159417.174    -1428423.71549  -1069695.15145  24159416.534    24159420.935
  21496278.977   -19664886.21249 -15299876.15447  21496278.706    21496281.365
  21257350.861   -20835304.10949 -16216329.43647  21257350.263    21257351.856
  21954713.272   -16011477.55549 -12457697.08647  21954712.878    21954714.464
  24661354.934    -5058920.85749  -3924801.65845  24661354.100    24661359.378
 03  4 11  2 34  0.0000000  0  4G31G25G14G11
  24174331.379    -1350049.56349  -1008624.42645  24174330.729    24174335.085
  21484019.472   -19729309.98049 -15350076.45347  21484019.213    21484021.897
  21269120.792   -20773452.64549 -16168133.50347  21269120.224    21269121.802
  21943081.534   -16072602.84349 -12505327.16547  21943081.121    21943082.715
 03  4 11  2 34 30.0000000  0  4G31G25G14G11
  24189266.712    -1271563.44049   -947466.45745  24189266.079    24189270.540
  21471838.892   -19793319.00449 -15399953.57047  21471838.656    21471841.319
  21280934.419   -20711371.85649 -16119758.87347  21280933.836    21280935.362
  21931530.207   -16133305.38749 -12552627.84147  21931529.768    21931531.370
 03  4 11  2 35  0.0000000  0  4G31G25G14G11
  24204224.779    -1192958.52349   -886215.91945  24204224.174    24204228.622
  21459739.559   -19856901.72649 -15449498.50847  21459739.242    21459741.916
  21292793.193   -20649053.86849 -16071199.40747  21292792.576    21292794.070
  21920061.527   -16193573.55449 -12599590.03547  21920061.117    21920062.726
 03  4 11  2 35 30.0000000  0  4G31G25G14G11
  24219202.136    -1114252.59849   -824886.66645  24219201.565    24219205.753
  21447718.772   -19920070.65449 -15498721.00447  21447718.533    21447721.203
  21304693.844   -20586515.45449 -16022468.18547  21304693.228    21304694.726
  21908673.122   -16253419.79649 -12646223.45647  21908672.721    21908674.304
 03  4 11  2 36  0.0000000  0  4G31G25G14G11
  24234200.536    -1035435.81649   -763471.04145  24234199.913    24234204.180
  21435779.692   -19982810.94749 -15547609.50647  21435779.429    21435782.086
  21316638.542   -20523745.54149 -15973556.56947  21316637.929    21316639.431
  21897367.940   -16312829.17849 -12692516.46947  21897367.508    21897369.080
 03  4 11  2 36 30.0000000  0  4G31G25G14G11
  24249218.769     -956514.46449   -701973.90545  24249218.136    24249222.485
  21423921.986   -20045123.94349 -15596165.04147  21423921.658    21423924.310
  21328626.236   -20460749.71549 -15924468.92347  21328625.650    21328627.139
  21886145.518   -16371803.20849 -12738470.24847  21886145.127    21886146.685
 03  4 11  2 37  0.0000000  0  4G31G25G14G11
  24264255.920     -877493.72149   -640399.34345  24264255.325    24264259.642
  21412145.387   -20107010.04749 -15644387.94147  21412145.080    21412147.727
  21340656.236   -20397531.76549 -15875208.19047  21340655.671    21340657.135
  21875005.964   -16430341.89549 -12784084.80047  21875005.559    21875007.145
 03  4 11  2 37 30.0000000  0  4G31G25G14G11
  24279311.702     -798375.13349   -578748.52145  24279311.103    24279315.387
  21400450.757   -20168465.41149 -15692275.19847  21400450.466    21400453.099
  21352728.451   -20334092.17649 -15825774.74647  21352727.844    21352729.319
  21863949.915   -16488441.77049 -12829357.42147  21863949.493    21863951.066
 03  4 11  2 38  0.0000000  0  4G31G25G14G11
  24294385.217     -719163.75149   -517025.40945  24294384.537    24294388.854
  21388838.172   -20229490.01049 -15739826.79147  21388837.866    21388840.488
  21364841.980   -20270435.04449 -15776171.79647  21364841.388    21364842.888
  21852977.364   -16546102.71849 -12874288.01547  21852976.979    21852978.543
 03  4 11  2 38 30.0000000  0  4G31G25G14G11
  24309475.719     -639862.63849   -455232.38445  24309475.071    24309479.359
  21377307.797   -20290082.33649 -15787041.55447  21377307.488    21377310.096
  21376996.603   -20206562.17249 -15726400.73047  21376996.013    21376997.532
  21842088.699   -16603323.11849 -12918875.33147  21842088.287    21842089.862
 03  4 11  2 39  0.0000000  0  4G31G25G14G11
  24324583.343     -560471.55049   -393369.24345  24324582.742    24324586.966
  21365860.733   -20350236.74249 -15833915.07747  21365860.453    21365863.056
  21389192.488   -20142472.39549 -15676460.64447  21389191.881    21389193.381
  21831284.788   -16660097.74449 -12963115.28247  21831284.376    21831286.010
 03  4 11  2 39 30.0000000  0  4G31G25G14G11
  24339707.231     -480995.34349   -331439.76645  24339706.711    24339710.884
  21354497.017   -20409953.49949 -15880447.57847  21354496.710    21354499.285
  21401428.965   -20078169.34249 -15626354.37447  21401428.310    21401429.840
  21820565.830   -16716426.38649 -13007007.72447  21820565.437    21820567.050
 03  4 11  2 40  0.0000000  0  4G31G25G14G11
  24354846.712     -401437.46449   -269446.66745  24354846.151    24354850.332
  21343216.812   -20469230.91849 -15926637.73747  21343216.539    21343219.112
  21413705.443   -20013655.62949 -15576083.94647  21413704.801    21413706.383
  21809931.953   -16772307.75249 -13050551.63247  21809931.529    21809933.131
 03  4 11  2 40 30.0000000  0  4G31G25G14G11
  24370000.694     -321803.34149   -207394.12245  24370000.110    24370004.139
  21332020.121   -20528069.65049 -15972486.06347  21332019.850    21332022.405
  21426021.250   -19948935.34449 -15525652.56247  21426020.645    21426022.296
  21799383.091   -16827742.17149 -13093747.27347  21799382.682    21799384.260
 03  4 11  2 41  0.0000000  0  4G31G25G14G11
  24385169.537     -242090.06349   -145279.92045  24385169.079    24385173.162
  21320908.456   -20586461.82549 -16017986.42647  21320908.163    21320910.727
  21438377.076   -19884004.64149 -15475057.21747  21438376.511    21438378.183
  21788920.783   -16882722.02749 -13136588.70147  21788920.374    21788921.970
 03  4 11  2 41 30.0000000  0  4G31G25G14G11
  24400352.187     -162304.80249    -83109.61845  24400351.588    24400355.886
  21309881.196   -20644410.11349 -16063140.90247  21309880.946    21309883.472
  21450771.873   -19818869.58649 -15424302.62847  21450771.300    21450772.968
  21778544.591   -16937249.23349 -13179077.42447  21778544.187    21778545.729
 03  4 11  2 42  0.0000000  0  4G31G25G14G11
  24415548.389      -82449.07449    -20884.43445  24415547.648    24415551.873
  21298939.172   -20701910.87049 -16107946.65247  21298938.891    21298941.414
  21463205.509   -19753530.55949 -15373389.10347  21463204.932    21463206.590
  21768255.136   -16991320.52649 -13221210.89047  21768254.731    21768256.255
 03  4 11  2 42 30.0000000  0  4G31G25G14G11
  24430757.013       -2527.18149     41392.33245  24430756.310    24430760.519
  21288082.427   -20758963.42449 -16152403.14847  21288082.127    21288084.645
  21475677.318   -19687990.84449 -15322319.19247  21475676.738    21475678.389
  21758052.472   -17044935.63149 -13262988.87747  21758052.114    21758053.623
 03  4 11  2 43  0.0000000  0  4G31G25G14G11
  24445978.034       77460.66949    103720.49045  24445977.471    24445981.728
  21277311.738   -20815563.60949 -16196507.15747  21277311.424    21277313.968
  21488187.494   -19622249.46449 -15271092.14547  21488186.928    21488188.580
  21747937.623   -17098089.75249 -13304407.66147  21747937.216    21747938.690
 03  4 11  2 43 30.0000000  0  4G31G25G14G11
  24461210.722      157508.81849    166095.61745  24461210.116    24461214.452
  21266626.983   -20871712.14549 -16240259.22647  21266626.711    21266629.222
  21500735.189   -19556311.02449 -15219711.54447  21500734.611    21500736.245
  21737910.266   -17150783.77349 -13345467.92647  21737909.868    21737911.356
 03  4 11  2 44  0.0000000  0  4G31G25G14G11
  24476454.460      237615.73549    228516.57345  24476453.883    24476458.263
  21256028.864   -20927405.51649 -16283656.62447  21256028.578    21256031.084
  21513320.292   -19490176.12549 -15168177.86247  21513319.689    21513321.293
  21727971.101   -17203014.25849 -13386166.99547  21727970.699    21727972.193
 03  4 11  2 44 30.0000000  0  4G31G25G14G11
  24491708.886      317777.40949    290980.15545  24491708.133    24491712.590
  21245517.418   -20982643.35849 -16326699.06247  21245517.135    21245519.633
  21525942.221   -19423847.60349 -15116493.30347  21525941.601    21525943.195
  21718120.347   -17254780.42649 -13426504.25847  21718119.929    21718121.441
 03  4 11  2 45  0.0000000  0  4G31G25G14G11
  24506973.298      397991.57849    353484.67345  24506972.476    24506976.833
  21235093.050   -21037423.52849 -16369384.87747  21235092.761    21235095.251
  21538600.761   -19357326.48049 -15064658.66847  21538600.147    21538601.703
  21708358.340   -17306079.90749 -13466477.87047  21708357.927    21708359.444
 03  4 11  2 45 30.0000000  0  4G31G25G14G11
  24522246.968      478255.65949    416028.07345  24522246.302    24522250.590
  21224756.193   -21091743.72649 -16411712.26947  21224755.957    21224758.436
  21551295.706   -19290614.10349 -15012674.99347  21551295.099    21551296.639
  21698685.534   -17356910.61749 -13506086.20147  21698685.133    21698686.666
 03  4 11  2 46  0.0000000  0  4G31G25G14G11
  24537529.348      558565.53649    478607.14245  24537528.722    24537533.091
  21214507.023   -21145603.37549 -16453680.79647  21214506.783    21214509.222
  21564026.356   -19223713.74249 -14960544.84547  21564025.766    21564027.287
  21689102.151   -17407271.79849 -13545328.67647  21689101.747    21689103.272
 03  4 11  2 46 30.0000000  0  4G31G25G14G11
  24552819.918      638918.64949    541219.92245  24552819.397    24552823.933
  21204345.928   -21199000.18949 -16495288.66647  21204345.697    21204348.115
  21576792.544   -19156626.78749 -14908269.30347  21576791.978    21576793.505
  21679608.478   -17457161.22749 -13584203.54347  21679608.050    21679609.608
 03  4 11  2 47  0.0000000  0  5G31G25G14G11G20
  24568118.723      719314.17649    603865.74945  24568118.105    24568122.899
  21194273.665   -21251930.22249 -16536532.81347  21194273.400    21194275.860
  21589594.315   -19089352.92749 -14855848.12247  21589593.765    21589595.272
  21670205.341   -17506575.02049 -13622707.79747  21670204.929    21670206.459
  24729834.471    -5915212.13859  -4589715.12145  24729833.653    24729837.680
 03  4 11  2 47 30.0000000  0  5G31G25G14G11G20
  24583423.417      799740.30649    666535.42245  24583422.850    24583427.508
  21184288.811   -21304400.69849 -16577418.86447  21184288.552    21184291.019
  21602429.722   -19021902.74849 -14803289.54547  21602429.130    21602430.657
  21660891.362   -17555520.31949 -13660846.98247  21660890.957    21660892.475
  24713538.688    -6000847.43749  -4656443.87645  24713537.913    24713541.726
 03  4 11  2 48  0.0000000  0  5G31G25G14G11G20
  24598735.276      880204.00649    729234.37045  24598734.630    24598739.380
  21174393.624   -21356400.31149 -16617938.00547  21174393.343    21174395.805
  21615300.072   -18954268.57649 -14750587.59547  21615299.480    21615301.010
  21651668.727   -17603985.59949 -13698612.12847  21651668.332    21651669.870
  24697237.322    -6086512.02949  -4723195.43545  24697236.539    24697240.132
 03  4 11  2 48 30.0000000  0  5G31G25G14G11G20
  24614053.541      960702.08149    791960.10245  24614052.986    24614057.628
  21164588.286   -21407927.50149 -16658089.02447  21164588.011    21164590.469
  21628205.058   -18886452.08449 -14697743.57947  21628204.476    21628206.060
  21642537.720   -17651969.38049 -13736002.08347  21642537.323    21642538.809
  24680930.341    -6172205.15949  -4789969.25145  24680929.638    24680933.156
 03  4 11  2 49  0.0000000  0  5G31G25G14G11G20
  24629377.623     1041230.35449    854709.36545  24629376.878    24629381.634
  21154872.903   -21458981.93649 -16697871.66047  21154872.617    21154875.087
  21641144.091   -18818456.65149 -14644760.12847  21641143.528    21641145.195
  21633498.390   -17699471.14149 -13773016.43447  21633497.991    21633499.524
  24664617.831    -6257927.77949  -4856766.02545  24664617.032    24664620.488
 03  4 11  2 49 30.0000000  0  5G31G25G14G11G20
  24644706.817     1121786.05049    917479.98745  24644706.225    24644710.978
  21145247.763   -21509562.15849 -16737284.78447  21145247.480    21145249.941
  21654116.970   -18750283.59249 -14591638.26747  21654116.427    21654118.086
  21624551.187   -17746489.16749 -13809653.85647  21624550.775    21624552.281
  24648299.509    -6343679.37949  -4923585.41345  24648298.688    24648302.548
 03  4 11  2 50  0.0000000  0  5G31G25G14G11G20
  24660040.820     1202366.09049    980269.57845  24660040.169    24660044.836
  21135713.127   -21559666.85749 -16776327.37047  21135712.841    21135715.300
  21667123.339   -18681935.13549 -14538379.73847  21667122.763    21667124.358
  21615696.228   -17793022.28749 -13845913.42347  21615695.825    21615697.336
  24631976.124    -6429459.70249  -4990427.17645  24631975.258    24631978.986
 03  4 11  2 50 30.0000000  0  5G31G25G14G11G20
  24675378.013     1282963.26249   1043072.52145  24675377.412    24675382.006
  21126268.513   -21609298.39049 -16815001.25147  21126268.259    21126270.716
  21680161.911   -18613417.24749 -14484989.17547  21680161.317    21680162.877
  21606933.155   -17839072.37349 -13881796.59647  21606932.752    21606934.288
  24615646.520    -6515272.28949  -5057294.06845  24615645.713    24615649.337
 03  4 11  2 51  0.0000000  0  5G31G25G14G11G20
  24690718.711     1363579.55649   1105890.37745  24690718.172    24690722.820
  21116915.136   -21658450.62549 -16853301.66347  21116914.894    21116917.326
  21693233.315   -18544726.76749 -14431464.14047  21693232.718    21693234.243
  21598263.232   -17884633.18449 -13917298.52447  21598262.834    21598264.352
  24599311.788    -6601111.85849  -5124181.99045  24599311.041    24599314.509
 03  4 11  2 51 30.0000000  0  5G31G25G14G11G20
  24706062.194     1444210.15649   1168719.36945  24706061.569    24706066.367
  21107652.972   -21707123.81649 -16891228.78247  21107652.666    21107655.073
  21706336.792   -18475867.50849 -14377807.56947  21706336.186    21706337.699
  21589686.315   -17929705.18349 -13952419.55547  21589685.901    21589687.419
  24582971.651    -6686979.98449  -5191092.16045  24582970.804    24582974.256
 03  4 11  2 52  0.0000000  0  5G31G25G14G11G20
  24721408.341     1524854.58549   1231559.15045  24721407.616    24721412.499
  21098482.601   -21755314.04049 -16928779.57348  21098482.315    21098484.709
  21719472.477   -18406838.73549 -14324018.91847  21719471.882    21719473.412
  21581203.184   -17974284.25349 -13987156.48447  21581202.764    21581204.293
  24566626.500    -6772873.49649  -5258022.12045  24566625.749    24566629.266
 03  4 11  2 52 30.0000000  0  5G31G25G14G11G20
  24736755.940     1605506.46949   1294404.73545  24736755.190    24736760.090
  21089403.844   -21803023.20149 -16965955.50748  21089403.550    21089405.938
  21732639.401   -18337645.78749 -14270102.33747  21732638.797    21732640.384
  21572813.502   -18018372.33349 -14021510.82447  21572813.092    21572814.634
  24550276.105    -6858795.37249  -5324974.16445  24550275.208    24550278.585
 03  4 11  2 53  0.0000000  0  5G31G25G14G11G20
  24752104.513     1686163.23749   1357254.13345  24752103.826    24752108.703
  21080416.911   -21850249.66749 -17002755.31448  21080416.631    21080419.006
  21745837.332   -18268289.94049 -14216058.82747  21745836.760    21745838.397
  21564517.607   -18061967.40449 -14055481.00147  21564517.195    21564518.709
  24533920.436    -6944744.92749  -5391947.78045  24533919.641    24533922.926
 03  4 11  2 53 30.0000000  0  5G31G25G14G11G20
  24767453.706     1766823.79549   1420106.45745  24767453.019    24767457.899
  21071522.446   -21896990.14249 -17039176.43248  21071522.179    21071524.530
  21759066.248   -18198771.45649 -14161888.58447  21759065.692    21759067.316
  21556316.172   -18105066.09949 -14089064.39047  21556315.763    21556317.301
  24517559.996    -7030719.90749  -5458941.21245  24517559.267    24517562.496
 03  4 11  2 54  0.0000000  0  5G31G25G14G11G20
  24782803.358     1847486.58749   1482960.55545  24782802.713    24782807.648
  21062721.016   -21943241.81949 -17075216.66848  21062720.732    21062723.087
  21772326.041   -18129090.66349 -14107591.87147  21772325.463    21772327.174
  21548209.701   -18147665.74849 -14122258.91147  21548209.305    21548210.835
  24501195.010    -7116718.13849  -5525952.76845  24501194.237    24501197.380
 03  4 11  2 54 30.0000000  0  5G31G25G14G11G20
  24798152.385     1928146.21549   1545812.16745  24798151.757    24798156.632
  21054012.335   -21989006.21649 -17110877.20548  21054012.071    21054014.381
  21785615.952   -18059251.71149 -14053171.90947  21785615.402    21785617.102
  21540198.019   -18189767.35349 -14155065.35147  21540197.631    21540199.173
  24484825.062    -7202741.70049  -5592984.05245  24484824.459    24484827.614
 03  4 11  2 55  0.0000000  0  5G31G25G14G11G20
  24813500.560     2008800.77649   1608659.83345  24813499.951    24813504.745
  21045396.800   -22034280.82949 -17146156.09348  21045396.525    21045398.855
  21798935.805   -17989255.50849 -13998629.42147  21798935.271    21798936.944
  21532281.601   -18231368.24149 -14187481.61647  21532281.212    21532282.772
  24468450.734    -7288789.03049  -5660033.85245  24468449.965    24468453.424
 03  4 11  2 55 30.0000000  0  5G31G25G14G11G20
  24828846.837     2089446.16449   1671500.35745  24828846.137    24828851.006
  21036874.545   -22079065.40749 -17181053.13848  21036874.295    21036876.631
  21812285.029   -17919104.96749 -13943966.66747  21812284.479    21812286.111
  21524460.513   -18272468.48949 -14219507.77647  21524460.136    21524461.674
  24452071.778    -7374860.90149  -5727102.80245  24452071.024    24452074.499
 03  4 11  2 56  0.0000000  0  5G31G25G14G11G20
  24844191.252     2170080.99949   1734332.66545  24844190.535    24844195.351
  21028446.121   -22123357.19549 -17215566.18748  21028445.830    21028448.146
  21825663.557   -17848800.39649 -13889183.89147  21825662.988    21825664.608
  21516735.250   -18313064.94649 -14251141.36547  21516734.864    21516736.363
  24435688.515    -7460955.50049  -5794189.45745  24435687.715    24435691.154
 03  4 11  2 56 30.0000000  0  5G31G25G14G11G20
  24859532.885     2250701.83649   1797154.05945  24859532.134    24859537.094
  21020111.541   -22167155.33549 -17249694.58048  21020111.290    21020113.577
  21839071.008   -17778343.96049 -13834282.77847  21839070.466    21839072.022
  21509106.037   -18353156.69249 -14282381.67747  21509105.646    21509107.169
  24419300.966    -7547072.58249  -5861293.62745  24419300.071    24419303.637
 03  4 11  2 57  0.0000000  0  5G31G25G14G11G20
  24874871.842     2331308.66249   1859964.52745  24874871.135    24874875.945
  21011871.732   -22210455.94449 -17283435.29148  21011871.454    21011873.736
  21852507.594   -17707734.46949 -13779262.40347  21852507.014    21852508.584
  21501573.625   -18392739.62249 -14313225.51247  21501573.231    21501574.730
  24402909.697    -7633208.58649  -5928412.55145  24402908.837    24402912.342
 03  4 11  2 57 30.0000000  0  5G31G25G14G11G20
  24890206.288     2411892.01749   1922756.70945  24890205.700    24890210.507
  21003725.506   -22253264.35249 -17316792.45948  21003725.224    21003727.517
  21865971.659   -17636980.40149 -13724129.36647  21865971.073    21865972.641
  21494137.117   -18431818.69749 -14343676.72647  21494136.709    21494138.218
  24386513.701    -7719369.85849  -5995551.14945  24386512.809    24386516.359
 03  4 11  2 58  0.0000000  0  5G31G25G14G11G20
  24905537.371     2492457.46549   1985534.95345  24905536.795    24905541.830
  20995674.831   -22295570.64249 -17349758.37448  20995674.587    20995676.866
  21879464.495   -17566075.04449 -13668878.44447  21879463.912    21879465.458
  21486798.339   -18470384.20949 -14373727.76547  21486797.939    21486799.445
  24370114.659    -7805547.25649  -6062702.31345  24370113.871    24370117.247
 03  4 11  2 58 30.0000000  0  5G31G25G14G11G20
  24920863.342     2572995.53049   2048291.83045  24920862.675    24920867.459
  20987718.718   -22337380.30249 -17382337.29748  20987718.455    20987720.721
  21892984.555   -17495026.74049 -13613516.13247  21892983.962    21892985.512
  21479556.267   -18508441.48349 -14403382.77047  21479555.853    21479557.371
  24353711.355    -7891746.84049  -6129870.78445  24353710.547    24353714.024
 03  4 11  2 59  0.0000000  0  4G25G14G11G20
  20979858.690   -22378684.84849 -17414522.63248  20979858.446    20979860.697
  21906532.875   -17423829.81049 -13558038.00847  21906532.283    21906533.834
  21472412.560   -18545981.95849 -14432635.07747  21472412.158    21472413.659
  24337305.361    -7977960.54849  -6197050.25545  24337304.544    24337308.068
 03  4 11  2 59 30.0000000  0  4G25G14G11G20
  20972094.293   -22419486.90649 -17446316.41248  20972094.021    20972096.286
  21920108.371   -17352489.93349 -13502448.50147  21920107.775    21920109.369
  21465366.698   -18583008.03949 -14461486.56047  21465366.306    21465367.830
  24320896.138    -8064191.94949  -6264243.50645  24320895.364    24320898.698
 03  4 11  3  0  0.0000000  0  4G25G14G11G20
  20964425.263   -22459787.72949 -17477719.62748  20964425.011    20964427.266
  21933710.407   -17281010.88349 -13446750.54347  21933709.779    21933711.405
  21458418.572   -18619520.66849 -14489937.95247  21458418.176    21458419.671
  24304483.245    -8150442.52049  -6331451.70245  24304482.477    24304485.793
 03  4 11  3  0 30.0000000  0  4G25G14G11G20
  20956851.725   -22499586.91449 -17508731.94848  20956851.444    20956853.693
  21947338.364   -17209395.17449 -13390946.10747  21947337.784    21947339.427
  21451568.237   -18655519.30949 -14517988.83047  21451567.849    21451569.365
  24288066.547    -8236712.34049  -6398674.90545  24288065.792    24288069.108
 03  4 11  3  1  0.0000000  0  4G25G14G11G20
  20949374.410   -22538880.25349 -17539350.10148  20949374.140    20949376.395
  21960992.650   -17137641.32549 -13335034.01947  21960992.052    21960993.699
  21444816.545   -18690999.74649 -14545635.91547  21444816.133    21444817.639
  24271646.945    -8322997.51349  -6465910.06945  24271646.279    24271649.544
 03  4 11  3  1 30.0000000  0  4G25G14G11G20
  20941993.173   -22577668.87449 -17569574.96948  20941992.890    20941995.145
  21974672.541   -17065753.35149 -13279017.42347  21974671.931    21974673.591
  21438163.216   -18725962.81749 -14572879.85547  21438162.839    21438164.365
  24255224.305    -8409299.91049  -6533158.65245  24255223.529    24255226.685
 03  4 11  3  2  0.0000000  0  4G25G14G11G20
  20934708.578   -22615949.42649 -17599403.94248  20934708.313    20934710.573
  21988378.044   -16993730.52949 -13222895.75047  21988377.433    21988379.076
  21431609.158   -18760404.90549 -14599717.84247  21431608.756    21431610.261
  24238798.630    -8495616.75049  -6600418.48945  24238797.849    24238801.221
 03  4 11  3  2 30.0000000  0  4G25G14G11G20
  20927520.937   -22653720.70849 -17628836.08148  20927520.659    20927522.896
  22002108.864   -16921574.48149 -13166670.26847  22002108.307    22002109.947
  21425154.421   -18794324.84349 -14626148.95547  21425154.005    21425155.502
  24222370.488    -8581947.03049  -6667688.79245  24222369.683    24222372.993
 03  4 11  3  3  0.0000000  0  4G25G14G11G20
  20920429.863   -22690984.56349 -17657872.81948  20920429.568    20920431.815
  22015864.205   -16849289.74649 -13110344.50447  22015863.645    22015865.300
  21418798.678   -18827724.24549 -14652174.45747  21418798.294    21418799.771
  24205939.426    -8668293.00349  -6734971.32845  24205938.608    24205942.044
 03  4 11  3  3 30.0000000  0  4G25G14G11G20
  20913435.909   -22727737.80949 -17686511.69148  20913435.610    20913437.857
  22029644.134   -16776875.89949 -13053918.13247  22029643.565    22029645.174
  21412542.604   -18860600.05849 -14677791.97047  21412542.245    21412543.713
  24189505.912    -8754651.85249  -6802263.88245  24189505.084    24189508.454
 03  4 11  3  4  0.0000000  0  4G25G14G11G20
  20906539.324   -22763979.50749 -17714751.94448  20906539.054    20906541.269
  22043448.378   -16704334.09549 -12997392.05347  22043447.778    22043449.396
  21406386.504   -18892950.57249 -14703000.15447  21406386.127    21406387.656
  24173069.997    -8841022.95449  -6869565.98545  24173069.173    24173072.562
 03  4 11  3  4 30.0000000  0  4G25G14G11G20
  20899740.769   -22799706.23749 -17742590.92748  20899740.451    20899742.648
  22057276.995   -16631664.02949 -12940766.02447  22057276.425    22057278.054
  21400330.965   -18924772.60049 -14727796.53747  21400330.589    21400332.058
  24156632.240    -8927403.34749  -6936875.33945  24156631.313    24156634.838
 03  4 11  3  5  0.0000000  0  4G25G14G11G20
  20893039.613   -22834920.71649 -17770030.75448  20893039.330    20893041.540
  22071129.035   -16558870.94349 -12884044.14747  22071128.476    22071130.110
  21394375.489   -18956068.68749 -14752183.09247  21394375.112    21394376.576
  24140192.206    -9013795.75249  -7004194.03645  24140191.343    24140194.863
 03  4 11  3  5 30.0000000  0  4G25G14G11G20
  20886437.034   -22869617.13249 -17797066.89848  20886436.771    20886438.977
  22085005.141   -16485951.56149 -12827223.85047  22085004.569    22085006.193
  21388521.341   -18986832.78049 -14776155.11347  21388520.965    21388522.407
  24123750.956    -9100194.74949  -7071517.88045  24123750.125    24123753.584
 03  4 11  3  6  0.0000000  0  4G25G14G11G20
  20879932.089   -22903800.98749 -17823703.64448  20879931.814    20879934.000
  22098903.865   -16412913.43349 -12770311.02247  22098903.268    22098904.854
  21382767.339   -19017070.07649 -14799716.64347  21382766.949    21382768.395
  24107307.435    -9186605.86049  -7138851.14145  24107306.549    24107309.971
 03  4 11  3  6 30.0000000  0  4G25G14G11G20
  20873525.892   -22937465.63049 -17849935.80548  20873525.609    20873527.763
  22112825.907   -16339752.49349 -12713302.50447  22112825.320    22112826.912
  21377114.892   -19046773.82649 -14822862.42047  21377114.522    21377115.979
  24090862.843    -9273022.55349  -7206188.76545  24090861.983    24090865.445
 03  4 11  3  7  0.0000000  0  4G25G14G11G20
  20867217.576   -22970615.87649 -17875767.14248  20867217.316    20867219.474
  22126769.877   -16266476.22149 -12656204.11147  22126769.297    22126770.936
  21371563.126   -19075948.78249 -14845596.14947  21371562.735    21371564.185
  24074416.164    -9359450.01249  -7273534.78845  24074415.200    24074418.809
 03  4 11  3  7 30.0000000  0  4G25G14G11G20
  20861008.338   -23003245.61349 -17901192.88648  20861008.065    20861010.198
  22140736.549   -16193080.85149 -12599012.91547  22140735.977    22140737.620
  21366113.194   -19104588.28749 -14867912.64447  21366112.808    21366114.225
  24057968.570    -9445882.06549  -7340884.38645  24057967.636    24057971.228
 03  4 11  3  8  0.0000000  0  4G25G14G11G20
  20854897.860   -23035356.22049 -17926214.11448  20854897.585    20854899.728
  22154725.207   -16119569.95249 -12541731.69847  22154724.633    22154726.260
  21360764.915   -19132693.62449 -14889812.89847  21360764.520    21360766.020
  24041520.009    -9532319.93849  -7408238.53145  24041519.283    24041522.437
 03  4 11  3  8 30.0000000  0  4G25G14G11G20
  20848886.386   -23066946.63149 -17950829.99548  20848886.146    20848888.264
  22168735.584   -16045945.02149 -12484361.62147  22168734.994    22168736.595
  21355518.461   -19160263.71949 -14911296.08847  21355518.082    21355519.555
  24025070.412    -9618763.02849  -7475596.74545  24025069.540    24025072.786
 03  4 11  3  9  0.0000000  0  4G25G14G11G20
  20842974.101   -23098015.81449 -17975039.72248  20842973.830    20842975.967
  22182767.355   -15972207.45749 -12426903.78247  22182766.800    22182768.423
  21350374.090   -19187297.66749 -14932361.50347  21350373.704    21350375.136
  24008620.001    -9705210.46849  -7542958.36045  24008619.168    24008622.335
 03  4 11  3  9 30.0000000  0  4G25G14G11G20
  20837161.333   -23128561.95649 -17998841.88548  20837161.084    20837163.207
  22196820.564   -15898357.51749 -12369358.37647  22196820.011    22196821.604
  21345332.172   -19213793.23649 -14953007.39647  21345331.764    21345333.205
  23992169.180    -9791660.22349  -7610321.77345  23992168.387    23992171.367
 03  4 11  3 10  0.0000000  0  4G25G14G11G20
  20831447.564   -23158588.05749 -18022238.82248  20831447.299    20831449.416
  22210894.086   -15824400.71049 -12311729.69347  22210893.519    22210895.154
  21340392.149   -19239753.08949 -14973235.84947  21340391.754    21340393.240
  23975717.310    -9878115.30849  -7677689.33945  23975716.547    23975719.458
 03  4 11  3 10 30.0000000  0  4G25G14G11G20
  20825833.812   -23188088.38549 -18045226.07248  20825833.565    20825835.673
  22224988.612   -15750333.39549 -12254014.91247  22224988.051    22224989.714
  21335555.286   -19265171.03149 -14993042.04147  21335554.903    21335556.348
  23959265.541    -9964569.74049  -7745056.38745  23959264.756    23959267.773
 03  4 11  3 11  0.0000000  0  4G25G14G11G20
  20820319.578   -23217065.78549 -18067805.83748  20820319.303    20820321.419
  22239103.272   -15676160.51549 -12196217.86247  22239102.679    22239104.338
  21330820.916   -19290050.14049 -15012428.35747  21330820.540    21330822.028
  23942813.304   -10051026.38649  -7812425.18045  23942812.486    23942815.516
 03  4 11  3 11 30.0000000  0  4G25G14G11G20
  20814905.493   -23245516.65449 -18089975.32148  20814905.231    20814907.359
  22253238.255   -15601880.94849 -12138337.68247  22253237.644    22253239.266
  21326189.778   -19314386.96149 -15031392.11447  21326189.396    21326190.872
  23926361.439   -10137481.61449  -7879792.86345  23926360.645    23926363.609
 03  4 11  3 12  0.0000000  0  4G25G14G11G20
  20809591.344   -23273442.66049 -18111735.82148  20809591.100    20809593.199
  22267392.818   -15527498.26449 -12080377.15447  22267392.185    22267393.793
  21321661.614   -19338182.57949 -15049934.15347  21321661.241    21321662.717
  23909909.561   -10223936.82149  -7947160.52145  23909908.704    23909911.649
 03  4 11  3 12 30.0000000  0  4G25G14G11G20
  20804377.610   -23300841.05649 -18133085.19848  20804377.339    20804379.457
  22281567.143   -15453011.61049 -12022335.61147  22281566.543    22281568.142
  21317237.068   -19361433.72049 -15068051.92847  21317236.674    21317238.143
  23893458.289   -10310388.89149  -8014525.72445  23893457.404    23893460.317
 03  4 11  3 13  0.0000000  0  4G25G14G11G20
  20799263.694   -23327714.50549 -18154025.52348  20799263.450    20799265.562
  22295760.343   -15378425.72449 -11964216.74547  22295759.767    22295761.345
  21312915.585   -19384143.07149 -15085747.52547  21312915.206    21312916.719
  23877007.037   -10396840.24349  -8081890.38245  23877006.223    23877009.181
 03  4 11  3 13 30.0000000  0  4G25G14G11G20
  20794250.562   -23354058.57549 -18174553.35348  20794250.310    20794252.419
  22309972.947   -15303738.44549 -11906018.87247  22309972.377    22309973.901
  21308698.157   -19406305.94049 -15103017.30047  21308697.785    21308699.264
  23860556.814   -10483286.27449  -8149250.88745  23860555.991    23860559.024
 03  4 11  3 14  0.0000000  0  4G25G14G11G20
  20789338.101   -23379873.76749 -18194669.05948  20789337.871    20789339.942
  22324204.334   -15228952.39349 -11847744.03147  22324203.715    22324205.242
  21304584.557   -19427922.96849 -15119861.73847  21304584.173    21304585.658
  23844107.560   -10569727.33749  -8216607.52145  23844106.788    23844109.798
 03  4 11  3 14 30.0000000  0  4G25G14G11G20
  20784526.162   -23405160.58749 -18214373.05348  20784525.902    20784527.998
  22338453.921   -15154070.06249 -11789394.17147  22338453.321    22338454.854
  21300574.801   -19448994.35149 -15136280.99847  21300574.419    21300575.928
  23827659.273   -10656163.70649  -8283960.50245  23827658.505    23827661.467
 03  4 11  3 15  0.0000000  0  4G25G14G11G20
  20779814.797   -23429918.72749 -18233665.08548  20779814.544    20779816.644
  22352721.472   -15079093.20449 -11730970.65346  22352720.914    22352722.443
  21296668.956   -19469519.57049 -15152274.67847  21296668.583    21296670.081
  23811212.084   -10742594.76049  -8351309.33545  23811211.271    23811214.169
 03  4 11  3 15 30.0000000  0  5G25G14G11G20G 1
  20775203.767   -23454149.69349 -18252546.33948  20775203.506    20775205.600
  22367006.484   -15004024.92349 -11672475.90446  22367005.924    22367007.466
  21292866.858   -19489499.94049 -15167843.80547  21292866.485    21292867.952
  23794765.626   -10829021.55849  -8418654.86845  23794764.817    23794767.663
  24623507.377    -5347972.17159  -3902229.56645  24623506.851    24623511.737
 03  4 11  3 16  0.0000000  0  5G25G14G11G20G 1
  20770692.124   -23477858.41849 -18271020.64548  20770691.889    20770693.958
  22381307.473   -14928872.37049 -11613915.47946  22381306.934    22381308.518
  21289167.480   -19508940.26749 -15182992.11147  21289167.096    21289168.582
  23778318.995   -10915448.79949  -8486000.73345  23778318.134    23778321.119
  24607962.397    -5429661.48549  -3965883.52545  24607961.733    24607966.906
 03  4 11  3 16 30.0000000  0  5G25G14G11G20G 1
  20766282.705   -23501029.97049 -18289076.38148  20766282.472    20766284.519
  22395627.043   -14853622.38049 -11555279.13346  22395626.510    22395628.185
  21285573.793   -19527825.22649 -15197707.67347  21285573.424    21285574.879
  23761875.248   -11001860.86849  -8553334.78445  23761874.466    23761877.423
  24592447.166    -5511194.00549  -4029415.31645  24592446.514    24592451.939
 03  4 11  3 17  0.0000000  0  5G25G14G11G20G 1
  20761974.957   -23523667.37349 -18306715.88948  20761974.714    20761976.730
  22409964.357   -14778279.60049 -11496570.48746  22409963.785    22409965.485
  21282085.240   -19546157.66749 -15211992.68647  21282084.869    21282086.326
  23745434.012   -11088260.27249  -8620658.95445  23745433.258    23745436.171
  24576961.230    -5592572.80049  -4092827.31745  24576960.664    24576965.788
 03  4 11  3 17 30.0000000  0  5G25G14G11G20G 1
  20757768.843   -23545770.41849 -18323939.02148  20757768.596    20757770.634
  22424318.964   -14702845.79749 -11437790.92046  22424318.397    22424320.064
  21278701.991   -19563936.88149 -15225846.62147  21278701.612    21278703.061
  23728995.329   -11174646.30849  -8687972.70545  23728994.559    23728997.462
  24561504.502    -5673797.86949  -4156119.52845  24561503.935    24561509.029
 03  4 11  3 18  0.0000000  0  5G25G14G11G20G 1
  20753664.337   -23567339.66349 -18340746.20648  20753664.087    20753666.109
  22438690.455   -14627323.51549 -11378942.40546  22438689.858    22438691.456
  21275423.766   -19581164.01349 -15239270.36247  21275423.391    21275424.833
  23712559.002   -11261019.27449  -8755276.29445  23712558.248    23712561.142
  24546076.957    -5754870.15849  -4219292.69345  24546076.285    24546081.380
 03  4 11  3 18 30.0000000  0  5G25G14G11G20G 1
  20749661.203   -23588376.17549 -18357138.27248  20749660.949    20749662.957
  22453078.228   -14551715.22349 -11320026.85746  22453077.608    22453079.259
  21272250.501   -19597839.65949 -15252264.37147  21272250.128    21272251.614
  23696125.108   -11347379.52949  -8822569.95645  23696124.285    23696127.315
  24530678.266    -5835790.79449  -4282347.67345  24530677.725    24530682.594
 03  4 11  3 19  0.0000000  0  5G25G14G11G20G 1
  20745759.884   -23608877.87249 -18373113.59448  20745759.610    20745761.606
  22467482.358   -14476020.53749 -11261043.98746  22467481.726    22467483.479
  21269182.646   -19613961.14949 -15264826.57147  21269182.282    21269183.778
  23679694.196   -11433724.02749  -8889851.34645  23679693.439    23679696.472
  24515308.779    -5916557.31949  -4345282.58545  24515308.245    24515313.390
 03  4 11  3 19 30.0000000  0  5G25G14G11G20G 1
  20741960.006   -23628846.36049 -18388673.43048  20741959.730    20741961.738
  22481902.408   -14400242.93649 -11201996.51646  22481901.783    22481903.457
  21266219.997   -19629530.17449 -15276958.28047  21266219.632    21266221.102
  23663266.124   -11520054.04249  -8957121.46245  23663265.342    23663268.304
  24499968.420    -5997171.58649  -4408098.84645  24499967.885    24499972.998
 03  4 11  3 20  0.0000000  0  5G25G14G11G20G 1
  20738261.793   -23648280.32349 -18403816.75148  20738261.550    20738263.550
  22496338.200   -14324382.58549 -11142884.55946  22496337.580    22496339.201
  21263362.688   -19644545.23949 -15288658.32447  21263362.311    21263363.803
  23646841.196   -11606367.77049  -9024378.87145  23646840.373    23646843.280
  24484657.200    -6077632.35049  -4470795.48645  24484656.645    24484661.518
 03  4 11  3 20 30.0000000  0  5G25G14G11G20G 1
  20734665.466   -23667179.24649 -18418543.15848  20734665.180    20734667.197
  22510789.473   -14248440.65549 -11083709.03946  22510788.835    22510790.459
  21260611.054   -19659005.36749 -15299925.95847  21260610.666    21260612.177
  23630419.552   -11692663.85949  -9091622.54445  23630418.791    23630421.583
  24469375.354    -6157938.89549  -4533371.96145  24469374.944    24469379.706
 03  4 11  3 21  0.0000000  0  5G25G14G11G20G 1
  20731170.664   -23685544.26649 -18432853.53648  20731170.409    20731172.420
  22525255.599   -14172420.16749 -11024472.29746  22525255.011    22525256.675
  21257964.706   -19672911.96349 -15310762.26247  21257964.318    21257965.815
  23614001.108   -11778943.00549  -9158853.01645  23614000.348    23614003.161
  24454122.702    -6238092.60049  -4595829.31945  24454122.094    24454126.945
 03  4 11  3 21 30.0000000  0  5G25G14G11G20G 1
  20727778.111   -23703372.19949 -18446745.40648  20727777.858    20727779.868
  22539737.120   -14096319.28249 -10965172.91546  22539736.585    22539738.188
  21255424.362   -19686261.49049 -15321164.49147  21255423.976    21255425.473
  23597586.770   -11865201.03549  -9226067.02345  23597585.971    23597588.861
  24438899.468    -6318090.03949  -4658164.94645  24438898.773    24438903.794
 03  4 11  3 22  0.0000000  0  5G25G14G11G20G 1
  20724487.088   -23720666.43449 -18460221.41048  20724486.836    20724488.849
  22554233.006   -14020142.82349 -10905814.64446  22554232.440    22554234.059
  21252989.455   -19699057.06349 -15331135.06547  21252989.072    21252990.572
  23581175.888   -11951440.60049  -9293266.64045  23581175.083    23581178.013
  24423705.420    -6397934.66749  -4720381.47745  24423704.840    24423709.644
 03  4 11  3 22 30.0000000  0  5G25G14G11G20G 1
  20721298.146   -23737424.12249 -18473279.32748  20721297.914    20721299.926
  22568743.505   -13943889.55149 -10846396.50946  22568742.925    22568744.613
  21250660.487   -19711295.77249 -15340671.72347  21250660.104    21250661.600
  23564769.099   -12037658.28049  -9360449.20645  23564768.350    23564771.360
  24408541.169    -6477623.76849  -4782476.81145  24408540.539    24408545.381
 03  4 11  3 23  0.0000000  0  5G25G14G11G20G 1
  20718211.221   -23753645.85849 -18485919.61648  20718210.991    20718212.990
  22583268.255   -13867561.59649 -10786920.19246  22583267.659    22583269.365
  21248437.476   -19722977.85649 -15349774.64447  21248437.093    21248438.597
  23548366.700   -12123853.38749  -9427614.19645  23548365.996    23548368.974
  24393406.330    -6557157.52249  -4844451.11145  24393405.707    24393410.599
 03  4 11  3 23 30.0000000  0  5G25G14G11G20G 1
  20715226.443   -23769331.02849 -18498141.80348  20715226.217    20715228.224
  22597807.127   -13791159.54449 -10727386.12446  22597806.544    22597808.144
  21246320.616   -19734102.11649 -15358442.90347  21246320.229    21246321.693
  23531968.893   -12210024.43749  -9494760.44045  23531968.198    23531971.106
  24378301.213    -6636534.98149  -4906303.61445  24378300.634    24378305.497
 03  4 11  3 24  0.0000000  0  5G25G14G11G20G 1
  20712343.587   -23784480.33449 -18509946.43248  20712343.353    20712345.372
  22612359.695   -13714685.60449 -10667796.05746  22612359.089    22612360.693
  21244309.665   -19744669.62549 -15366677.32347  21244309.271    21244310.776
  23515575.608   -12296171.48249  -9561887.97745  23515574.926    23515577.761
  24363225.684    -6715757.11049  -4968035.08245  24363225.020    24363229.967
 03  4 11  3 24 30.0000000  0  5G25G14G11G20G 1
  20709562.842   -23799093.20449 -18521333.06248  20709562.598    20709564.616
  22626925.703   -13638140.69249 -10608150.67646  22626925.076    22626926.695
  21242404.799   -19754679.63749 -15374477.33647  21242404.419    21242405.948
  23499187.206   -12382292.92849  -9628995.57545  23499186.462    23499189.253
  24348179.995    -6794823.20849  -5029644.97045  24348179.276    24348184.267
 03  4 11  3 25  0.0000000  0  5G25G14G11G20G 1
  20706884.481   -23813167.99349 -18532300.40748  20706884.252    20706886.246
  22641505.177   -13561524.72449 -10548449.92546  22641504.563    22641506.222
  21240606.326   -19764130.61849 -15381841.74047  21240605.954    21240607.461
  23482804.096   -12468386.66549  -9696081.58645  23482803.333    23482806.055
  24333164.083    -6873731.87149  -5091132.19245  24333163.382    24333168.360
 03  4 11  3 25 30.0000000  0  5G25G14G11G20G 1
  20704307.870   -23826708.22449 -18542851.20848  20704307.636    20704309.635
  22656097.258   -13484842.36149 -10488697.43246  22656096.711    22656098.368
  21238913.748   -19773025.08949 -15388772.50147  21238913.386    21238914.897
  23466425.823   -12554454.92249  -9763147.73545  23466425.072    23466427.718
  24318177.648    -6952486.11649  -5152499.06345  24318176.937    24318181.917
 03  4 11  3 26  0.0000000  0  5G25G14G11G20G 1
  20701833.805   -23839709.45849 -18552982.02148  20701833.539    20701835.531
  22670702.715   -13408090.34349 -10428890.68346  22670702.149    22670703.843
  21237327.868   -19781359.06249 -15395266.51447  21237327.504    21237329.004
  23450053.469   -12640492.24649  -9830189.77645  23450052.696    23450055.353
  24303221.378    -7031081.42849  -5213742.11745  24303220.681    24303225.838
 03  4 11  3 26 30.0000000  0  5G25G14G11G20G 1
  20699461.689   -23852174.77049 -18562695.22748  20699461.461    20699463.430
  22685320.654   -13331272.69849 -10369032.78346  22685320.050    22685321.772
  21235848.113   -19789135.05349 -15401325.72647  21235847.748    21235849.287
  23433686.712   -12726500.03849  -9897208.80245  23433685.947    23433688.573
  24288294.845    -7109520.26649  -5274863.23645  24288294.194    24288299.249
 03  4 11  3 27  0.0000000  0  5G25G14G11G20G 1
  20697191.798   -23864103.15849 -18571990.05448  20697191.552    20697193.501
  22699950.887   -13254389.85749 -10309124.08646  22699950.341    22699952.088
  21234474.833   -19796351.89749 -15406949.24647  21234474.449    21234475.966
  23417325.871   -12812476.58249  -9964203.48345  23417325.113    23417327.799
  24273398.444    -7187801.53149  -5335861.56845  24273397.796    24273402.623
 03  4 11  3 27 30.0000000  0  5G25G14G11G20G 1
  20695024.170   -23875493.93849 -18580865.96748  20695023.923    20695025.896
  22714593.490   -13177442.46549 -10249165.09446  22714592.935    22714594.675
  21233208.050   -19803008.91649 -15412136.53247  21233207.676    21233209.175
  23400971.314   -12898420.22749 -10031172.53246  23400970.555    23400973.243
  24258532.147    -7265924.60449  -5396736.63045  24258531.538    24258536.315
 03  4 11  3 28  0.0000000  0  5G25G14G11G20G 1
  20692958.772   -23886347.51649 -18589323.28248  20692958.533    20692960.478
  22729248.087   -13100432.06549 -10189157.00446  22729247.569    22729249.345
  21232047.758   -19809106.14849 -15416887.62247  21232047.369    21232048.901
  23384623.131   -12984330.38249 -10098115.47646  23384622.353    23384625.128
  24243695.743    -7343889.53749  -5457488.47145  24243695.249    24243700.003
 03  4 11  3 28 30.0000000  0  5G25G14G11G20G 1
  20690995.572   -23896664.29149 -18597362.30748  20690995.312    20690997.241
  22743914.426   -13023360.39849 -10129101.17346  22743913.886    22743915.631
  21230993.943   -19814644.12849 -15421202.92847  21230993.549    21230995.082
  23368281.529   -13070206.21349 -10165031.68246  23368280.726    23368283.464
  24228889.460    -7421696.81049  -5518117.45745  24228888.979    24228893.714
 03  4 11  3 29  0.0000000  0  5G25G14G11G20G 1
  20689134.502   -23906444.11049 -18604982.92548  20689134.230    20689136.167
  22758592.295   -12946228.11449 -10068998.10346  22758591.725    22758593.433
  21230046.628   -19819622.31849 -15425082.03647  21230046.235    21230047.756
  23351946.746   -13156046.26549 -10231919.99946  23351945.954    23351948.644
  24214113.387    -7499345.76949  -5578623.08045  24214112.819    24214117.580
 03  4 11  3 29 30.0000000  0  5G25G14G11G20G 1
  20687375.822   -23915686.08049 -18612184.44248  20687375.538    20687377.463
  22773281.542   -12869035.54549 -10008848.06146  22773280.936    22773282.705
  21229206.031   -19824039.65749 -15428524.12047  21229205.657    21229207.169
  23335619.204   -13241848.39749 -10298778.77246  23335618.387    23335620.972
  24199367.491    -7576835.15149  -5639004.35745  24199366.997    24199371.636
 03  4 11  3 30  0.0000000  0  5G25G14G11G20G 1
  20685719.273   -23924391.10249 -18618967.55748  20685719.005    20685720.933
  22787981.919   -12791784.23049  -9948652.24046  22787981.339    22787983.157
  21228472.081   -19827896.54949 -15431529.49247  21228471.685    21228473.188
  23319298.899   -13327612.00449 -10365607.52146  23319298.106    23319300.649
  24184652.018    -7654165.35649  -5699261.60245  24184651.565    24184656.277
 03  4 11  3 30 30.0000000  0  5G25G14G11G20G 1
  20684164.749   -23932560.07049 -18625332.96248  20684164.481    20684166.398
  22802693.150   -12714476.27449  -9888412.29146  22802692.564    22802694.402
  21227844.612   -19831193.87249 -15434098.82747  21227844.249    21227845.767
  23302986.020   -13413336.56849 -10432405.84846  23302985.229    23302987.794
  24169966.648    -7731336.81549  -5759395.16745  24169966.160    24169970.960
 03  4 11  3 31  0.0000000  0  5G25G14G11G20G 1
  20682712.539   -23940191.56749 -18631279.56548  20682712.256    20682714.161
  22817415.277   -12637111.45249  -9828128.02346  22817414.663    22817416.448
  21227323.870   -19833930.43749 -15436231.21947  21227323.490    21227324.990
  23286680.949   -13499019.78449 -10499171.94246  23286680.177    23286682.863
  24155311.869    -7808348.27449  -5819404.03245  24155311.236    24155316.006
 03  4 11  3 31 30.0000000  0  5G25G14G11G20G 1
  20681362.309   -23947286.82749 -18636808.31748  20681362.041    20681363.950
  22832147.834   -12559691.81749  -9767801.04646  22832147.163    22832148.847
  21226909.670   -19836107.15449 -15437927.36347  21226909.286    21226910.771
  23270383.797   -13584661.62849 -10565905.80146  23270383.039    23270385.789
  24140687.352    -7885200.65849  -5879288.95445  24140686.621    24140691.517
 03  4 11  3 32  0.0000000  0  5G25G14G11G20G 1
  20680114.113   -23953846.11849 -18641919.42548  20680113.825    20680115.745
  22846890.466   -12482218.59849  -9707432.31846  22846889.847    22846891.506
  21226602.023   -19837723.95749 -15439187.20647  21226601.629    21226603.098
  23254094.825   -13670260.67749 -10632606.31046  23254094.096    23254096.821
  24126093.112    -7961893.60049  -5939049.63245  24126092.394    24126097.311
 03  4 11  3 32 30.0000000  0  5G25G14G11G20G 1
  20678968.034   -23959868.65649 -18646612.29348  20678967.769    20678969.665
  22861643.307   -12404691.54049  -9647021.63146  22861642.724    22861644.386
  21226401.066   -19838779.78849 -15440009.93447  21226400.669    21226402.191
  23237814.468   -13755814.47349 -10699271.54346  23237813.767    23237816.468
  24111529.449    -8038425.88049  -5998685.12345  24111528.826    24111533.604
 03  4 11  3 33  0.0000000  0  5G25G14G11G20G 1
  20677923.956   -23965355.08149 -18650887.41048  20677923.711    20677925.594
  22876406.211   -12327112.64549  -9586570.56446  22876405.604    22876407.260
  21226306.799   -19839275.36149 -15440396.10447  21226306.404    21226307.913
  23221542.772   -13841322.64049 -10765901.23346  23221542.051    23221544.864
  24096996.291    -8114798.10649  -6058195.90045  24096995.707    24097000.369
 03  4 11  3 33 30.0000000  0  5G25G14G11G20G 1
  20676981.717   -23970306.63449 -18654745.73848  20676981.444    20676983.343
  22891178.551   -12249483.72049  -9526080.49246  22891177.977    22891179.608
  21226318.892   -19839211.64649 -15440346.45747  21226318.515    21226320.046
  23205279.832   -13926784.89049 -10832495.12946  23205279.080    23205281.894
  24082493.294    -8191011.07749  -6117582.58845  24082492.787    24082497.444
 03  4 11  3 34  0.0000000  0  5G25G14G11G20G 1
  20676141.567   -23974721.55349 -18658185.91548  20676141.315    20676143.185
  22905960.555   -12171803.81049  -9465550.71846  22905959.954    22905961.601
  21226437.850   -19838586.60349 -15439859.41147  21226437.453    21226438.977
  23189026.253   -14012197.82649 -10899050.61846  23189025.472    23189028.258
  24068021.194    -8267062.48149  -6176843.36745  24068020.716    24068025.276
 03  4 11  3 34 30.0000000  0  5G25G14G11G20G 1
  20675403.337   -23978600.77749 -18661208.66848  20675403.086    20675404.985
  22920751.774   -12094074.81449  -9404982.67946  22920751.214    22920752.890
  21226663.408   -19837401.19849 -15438935.72147  21226663.007    21226664.543
  23172782.227   -14097560.77249 -10965567.15046  23172781.427    23172784.183
  24053579.735    -8342952.65749  -6235978.50945  24053579.264    24053583.885
 03  4 11  3 35  0.0000000  0  5G25G14G11G20G 1
  20674767.102   -23981944.30949 -18663813.99448  20674766.867    20674768.721
  22935552.306   -12016297.29949  -9344376.83546  22935551.758    22935553.418
  21226995.648   -19835655.31949 -15437575.29647  21226995.247    21226996.772
  23156547.908   -14182872.28149 -11032043.60746  23156547.146    23156549.842
  24039169.029    -8418681.22749  -6294987.73945  24039168.599    24039173.146
 03  4 11  3 35 30.0000000  0  5G25G14G11G20G 1
  20674232.174   -23984755.17649 -18666004.25848  20674231.927    20674233.789
  22950361.399   -11938474.98749  -9283736.09646  22950360.886    22950362.525
  21227434.012   -19833351.60849 -15435780.19747  21227433.623    21227435.128
  23140323.226   -14268133.72949 -11098481.05846  23140322.408    23140325.086
  24024788.755    -8494250.77049  -6353873.05045  24024788.245    24024792.676
 03  4 11  3 36  0.0000000  0  5G25G14G11G20G 1
  20673799.229   -23987030.19349 -18667776.97948  20673798.997    20673800.849
  22965179.491   -11860605.17549  -9223058.33046  22965178.978    22965180.677
  21227979.241   -19830486.58449 -15433547.70847  21227978.846    21227980.346
  23124108.932   -14353340.14449 -11164875.61746  23124108.143    23124110.792
  24010439.318    -8569657.49749  -6412631.48345  24010438.739    24010443.201
 03  4 11  3 36 30.0000000  0  5G25G14G11G20G 1
  20673467.786   -23988771.83149 -18669134.08348  20673467.536    20673469.413
  22980005.989   -11782691.26649  -9162346.20246  22980005.413    22980007.242
  21228630.673   -19827063.14749 -15430880.09547  21228630.305    21228631.809
  23107904.942   -14438492.71749 -11231228.23746  23107904.121    23107906.747
  23996120.397    -8644903.64449  -6471264.80845  23996119.802    23996124.319
 03  4 11  3 37  0.0000000  0  5G25G14G11G20G 1
  20673238.141   -23989978.43449 -18670074.27448  20673237.915    20673239.792
  22994841.113   -11704732.30749  -9101598.97446  22994840.543    22994842.317
  21229388.811   -19823079.26049 -15427775.76747  21229388.430    21229389.910
  23091711.773   -14523588.09349 -11297536.27946  23091710.971    23091713.583
  23981832.394    -8719986.86049  -6529771.16145  23981831.864    23981836.360
 03  4 11  3 37 30.0000000  0  5G25G14G11G20G 1
  20673109.795   -23990652.87649 -18670599.79648  20673109.534    20673111.420
  23009684.173   -11626731.56349  -9040819.19146  23009683.578    23009685.403
  21230253.044   -19818537.53149 -15424236.75147  21230252.682    21230254.155
  23075529.296   -14608626.99849 -11363800.32046  23075528.465    23075531.124
  23967575.030    -8794909.32349  -6588152.25645  23967574.573    23967578.973
 03  4 11  3 38  0.0000000  0  5G25G14G11G20G 1
  20673082.742   -23990794.85949 -18670710.40948  20673082.503    20673084.398
  23024534.982   -11548689.45049  -8980007.15046  23024534.407    23024536.274
  21231223.481   -19813437.97949 -15420263.06847  21231223.090    21231224.601
  23059357.919   -14693607.70049 -11430019.00946  23059357.099    23059359.753
  23953348.463    -8869670.66549  -6646407.79945  23953347.942    23953352.405
 03  4 11  3 38 30.0000000  0  5G25G14G11G20G 1
  20673157.250   -23990403.34749 -18670405.31548  20673157.001    20673158.884
  23039393.895   -11470605.13949  -8919162.25646  23039393.330    23039395.273
  21232300.375   -19807778.99449 -15415853.46747  21232299.975    21232301.460
  23043198.321   -14778527.06149 -11496189.89446  23043197.487    23043200.158
  23939152.837    -8944268.84949  -6704536.21145  23939152.360    23939156.785
 03  4 11  3 39  0.0000000  0  5G25G14G11G20G 1
  20673332.812   -23989480.38249 -18669686.10848  20673332.600    20673334.495
  23054260.382   -11392481.32649  -8858286.55846  23054259.808    23054261.786
  21233483.308   -19801562.40449 -15411009.36747  21233482.946    21233484.431
  23027050.285   -14863385.53749 -11562313.35246  23027049.445    23027052.086
  23924987.946    -9018705.45849  -6762538.72945  23924987.446    23924991.904
 03  4 11  3 39 30.0000000  0  5G25G14G11G20G 1
  20673609.657   -23988025.54049 -18668552.44948  20673609.428    20673611.342
  23069134.465   -11314317.94049  -8797380.02846  23069133.881    23069135.837
  21234772.517   -19794787.61049 -15405730.30447  21234772.133    21234773.614
  23010914.306   -14948180.52249 -11628387.33046  23010913.476    23010916.082
  23910854.106    -9092979.30049  -6820414.39345  23910853.600    23910857.967
 03  4 11  3 40  0.0000000  0  5G25G14G11G20G 1
  20673987.039   -23986042.18149 -18667006.95548  20673986.837    20673988.739
  23084015.248   -11236119.02849  -8736445.82746  23084014.689    23084016.525
  21236167.289   -19787457.98949 -15400018.90747  21236166.927    21236168.390
  22994790.016   -15032913.80149 -11694413.22246  22994789.209    22994791.782
  23896750.682    -9167093.35149  -6878165.56945  23896750.124    23896754.544
 03  4 11  3 40 30.0000000  0  5G25G14G11G20G 1
  20674465.829   -23983526.18049 -18665046.42048  20674465.585    20674467.491
  23098903.434   -11157880.96949  -8675481.12046  23098902.862    23098904.764
  21237668.452   -19779569.54249 -15393872.05847  21237668.049    21237669.536
  22978678.672   -15117579.40749 -11760386.38046  22978677.812    22978680.389
  23882678.498    -9241042.96049  -6935788.60845  23882677.976    23882682.271
 03  4 11  3 41  0.0000000  0  5G25G14G11G20G 1
  20675045.360   -23980480.67449 -18662673.28048  20675045.124    20675047.012
  23113798.484   -11079606.85449  -8614488.30946  23113797.940    23113799.903
  21239275.376   -19771124.87649 -15387291.79347  21239275.006    21239276.487
  22962580.000   -15202178.24449 -11826307.51546  22962579.167    22962581.658
  23868637.237    -9314830.44449  -6993285.29445  23868636.667    23868640.845
 03  4 11  3 41 30.0000000  0  5G25G14G11G20G 1
  20675725.675   -23976905.67149 -18659887.54648  20675725.443    20675727.319
  23128700.322   -11001297.19049  -8553467.80146  23128699.824    23128701.762
  21240988.196   -19762124.05649 -15380278.16347  21240987.790    21240989.291
  22946494.369   -15286708.51349 -11892175.22146  22946493.573    22946496.076
  23854626.848    -9388455.26049  -7050655.24645  23854626.266    23854630.569
 03  4 11  3 42  0.0000000  0  5G25G14G11G20G 1
  20676506.501   -23972802.25549 -18656690.06248  20676506.263    20676508.143
  23143608.651   -10922953.54949  -8492420.81746  23143608.163    23143610.000
  21242806.589   -19752568.17849 -15372832.02147  21242806.201    21242807.696
  22930421.946   -15371169.66849 -11957989.06846  22930421.160    22930423.616
  23840647.316    -9461918.07349  -7107898.94445  23840646.724    23840651.016
 03  4 11  3 42 30.0000000  0  5G25G14G11G20G 1
  20677387.980   -23968170.09949 -18653080.57548  20677387.742    20677389.587
  23158523.557   -10844575.71849  -8431347.19046  23158522.998    23158524.827
  21244730.758   -19742456.45649 -15364952.75647  21244730.359    21244731.860
  22914363.184   -15455558.77049 -12023746.77846  22914362.417    22914364.841
  23826698.832    -9535217.65449  -7165015.44845  23826698.220    23826702.437
 03  4 11  3 43  0.0000000  0  5G25G14G11G20G 1
  20678369.672   -23963011.18749 -18649060.62448  20678369.423    20678371.265
  23173444.492   -10766165.92449  -8370248.65546  23173443.909    23173445.696
  21246760.315   -19731790.94449 -15356641.96447  21246759.924    21246761.459
  22898318.164   -15539875.88049 -12089448.38746  22898317.325    22898319.776
  23812781.175    -9608355.05049  -7222005.56345  23812780.595    23812784.865
 03  4 11  3 43 30.0000000  0  5G25G14G11G20G 1
  20679451.816   -23957324.34849 -18644629.30548  20679451.594    20679453.441
  23188371.560   -10687723.22549  -8309124.48846  23188371.045    23188372.802
  21248895.525   -19720570.37449 -15347898.66347  21248895.126    21248896.645
  22882287.386   -15624117.96949 -12155091.53346  22882286.583    22882289.007
  23798894.686    -9681328.63849  -7278868.04745  23798894.109    23798898.512
 03  4 11  3 44  0.0000000  0  5G25G14G11G20G 1
  20680634.115   -23951111.34049 -18639787.98248  20680633.865    20680635.696
  23203304.725   -10609249.44749  -8247976.10446  23203304.177    23203305.921
  21251136.020   -19708796.31049 -15338724.06247  21251135.645    21251137.209
  22866271.036   -15708284.12449 -12220675.51646  22866270.231    22866272.672
  23785039.187    -9754139.15549  -7335603.45945  23785038.621    23785043.079
 03  4 11  3 44 30.0000000  0  5G25G14G11G20G 1
  20681916.377   -23944372.98049 -18634537.29648  20681916.127    20681917.945
  23218243.432   -10530745.83549  -8186804.46246  23218242.836    23218244.618
  21253481.756   -19696469.58049 -15329118.82147  21253481.351    21253482.888
  22850269.209   -15792373.57849 -12286199.72146  22850268.439    22850270.864
  23771214.749    -9826786.82149  -7392211.96545  23771214.221    23771218.604
 03  4 11  3 45  0.0000000  0  5G25G14G11G20G 1
  20683298.438   -23937110.24449 -18628878.00548  20683298.181    20683299.998
  23233187.565   -10452213.38349  -8125610.34746  23233187.029    23233188.879
  21255932.476   -19683590.92149 -15319083.49947  21255932.084    21255933.637
  22834282.362   -15876384.73049 -12351662.92246  22834281.586    22834284.036
  23757421.366    -9899271.82249  -7448693.70745  23757420.780    23757425.175
 03  4 11  3 45 30.0000000  0  5G25G14G11G20G 1
  20684780.339   -23929322.74749 -18622809.80548  20684780.065    20684781.901
  23248137.457   -10373651.89749  -8064393.61446  23248136.889    23248138.683
  21258488.311   -19670160.06449 -15308617.88747  21258487.905    21258489.434
  22818310.876   -15960315.45449 -12417063.45446  22818310.102    22818312.461
  23743658.934    -9971593.23249  -7505047.99345  23743658.328    23743662.841
 03  4 11  3 46  0.0000000  0  5G25G14G11G20G 1
  20686361.752   -23921012.13749 -18616333.98748  20686361.510    20686363.328
  23263092.453   -10295063.37449  -8003155.81846  23263091.877    23263093.615
  21261148.887   -19656178.67849 -15297723.29347  21261148.503    21261149.980
  22802354.833   -16044164.94249 -12482400.67946  22802354.069    22802356.416
  23729927.534   -10043751.92249  -7561275.48445  23729926.924    23729931.343
 03  4 11  3 46 30.0000000  0  5G25G14G11G20G 1
  20688042.661   -23912178.78449 -18609450.83848  20688042.406    20688044.226
  23278052.309   -10216448.26649  -7941897.31146  23278051.760    23278053.514
  21263914.208   -19641646.74849 -15286399.70647  21263913.829    21263915.297
  22786414.581   -16127931.35849 -12547673.17746  22786413.754    22786416.177
  23716227.262   -10115747.26849  -7617375.68645  23716226.638    23716231.063
 03  4 11  3 47  0.0000000  0  5G25G14G11G20G 1
  20689823.035   -23902822.91949 -18602160.53448  20689822.764    20689824.580
  23293017.438   -10137806.21649  -7880617.79946  23293016.930    23293018.583
  21266784.278   -19626564.40049 -15274647.21947  21266783.882    21266785.369
  22770490.549   -16211612.59649 -12612879.30246  22770489.728    22770492.194
  23702558.170   -10187578.54249  -7673348.04445  23702557.591    23702562.090
 03  4 11  3 47 30.0000000  0  5G25G14G11G20G 1
  20691702.404   -23892946.48949 -18594464.59648  20691702.133    20691703.955
  23307987.398   -10059139.25249  -7819318.87846  23307986.807    23307988.396
  21269758.727   -19610933.51949 -15262467.31147  21269758.333    21269759.820
  22754582.795   -16295208.03149 -12678018.56046  22754582.020    22754584.514
  23688920.020   -10259246.99349  -7729193.52345  23688919.452    23688923.867
 03  4 11  3 48  0.0000000  0  5G25G14G11G20G 1
  20693680.793   -23882549.88249 -18586363.32748  20693680.553    20693682.363
  23322961.723    -9980448.04249  -7758001.05746  23322961.160    23322962.836
  21272837.488   -19594754.54249 -15249860.32047  21272837.091    21272838.556
  22738691.772   -16378715.99049 -12743089.65246  22738690.972    22738693.507
  23675313.026   -10330752.11249  -7784911.72545  23675312.492    23675316.770
 03  4 11  3 48 30.0000000  0  5G25G14G11G20G 1
  20695757.945   -23871634.32949 -18577857.68148  20695757.685    20695759.517
  23337940.550    -9901733.69749  -7696665.21646  23337939.990    23337941.680
  21276020.329   -19578028.61649 -15236827.13047  21276019.918    21276021.394
  22722817.528   -16462135.60249 -12808091.90246  22722816.741    22722819.326
  23661737.005   -10402094.48649  -7840503.13545  23661736.521    23661740.820
 03  4 11  3 49  0.0000000  0  5G25G14G11G20G 1
  20697933.720   -23860200.46749 -18568948.16048  20697933.489    20697935.299
  23352923.798    -9822996.62149  -7635311.65846  23352923.218    23352924.875
  21279307.147   -19560756.27949 -15223368.16447  21279306.752    21279308.206
  22706960.576   -16545464.39049 -12873023.39446  22706959.769    22706962.342
  23648192.092   -10473273.39849  -7895967.16545  23648191.618    23648195.907
 03  4 11  3 49 30.0000000  0  5G25G14G11G20G 1
  20700208.275   -23848247.67649 -18559634.27648  20700208.014    20700209.791
  23367911.359    -9744236.47449  -7573940.12646  23367910.712    23367912.487
  21282698.105   -19542936.78549 -15209482.84247  21282697.695    21282699.152
  22691121.343   -16628699.95249 -12937882.23546  22691120.554    22691123.077
  23634678.384   -10544287.97349  -7951303.13245  23634677.933    23634682.090
 03  4 11  3 50  0.0000000  0  5G25G14G11G20G 1
  20702580.855   -23835779.52549 -18549918.81648  20702580.612    20702582.397
  23382902.621    -9665456.48549  -7512553.12546  23382902.033    23382903.810
  21286192.426   -19524573.75949 -15195173.98547  21286192.036    21286193.509
  22675299.729   -16711843.32749 -13002669.23946  22675298.937    22675301.340
  23621195.525   -10615140.65849  -8006512.95945  23621195.127    23621199.150
 03  4 11  3 50 30.0000000  0  5G25G14G11G20G 1
  20705051.890   -23822794.11349 -18539800.29748  20705051.641    20705053.408
  23397898.189    -9586654.37349  -7451148.88446  23397897.552    23397899.364
  21289790.687   -19505664.97749 -15180439.86747  21289790.295    21289791.736
  22659496.579   -16794889.66649 -13067380.63046  22659495.758    22659498.107
  23607744.145   -10685828.46549  -8061594.30045  23607743.739    23607747.577
 03  4 11  3 51  0.0000000  0  5G25G14G11G20G 1
  20707620.767   -23809294.63249 -18529281.19548  20707620.503    20707622.259
  23412897.345    -9507833.28649  -7389729.86846  23412896.779    23412898.530
  21293492.135   -19486213.73449 -15165283.04847  21293491.713    21293493.171
  22643711.620   -16877839.67249 -13132016.95746  22643710.835    22643713.192
  23594323.624   -10756353.80849  -8116549.06045  23594323.070    23594327.017
 03  4 11  3 51 30.0000000  0  5G25G14G11G20G 1
  20710287.323   -23795281.60549 -18518361.94148  20710287.087    20710288.822
  23427900.006    -9428993.40749  -7328296.20846  23427899.433    23427901.244
  21297296.736   -19466220.26949 -15149703.72047  21297296.348    21297297.822
  22627945.446   -16960691.34949 -13196576.65146  22627944.620    22627947.036
  23580933.977   -10826715.95949  -8171376.65445  23580933.549    23580937.528
 03  4 11  3 52  0.0000000  0  5G25G14G11G20G 1
  20713051.538   -23780755.56649 -18507042.92748  20713051.313    20713053.037
  23442906.276    -9350134.95649  -7266848.06246  23442905.714    23442907.590
  21301204.443   -19445685.20149 -15133702.35947  21301204.023    21301205.512
  22612198.234   -17043442.85849 -13261058.29546  22612197.412    22612199.888
  23567575.573   -10896914.54649  -8226076.79345  23567575.147    23567579.104
 03  4 11  3 52 30.0000000  0  5G25G14G11G20G 1
  20715913.229   -23765717.08649 -18495324.61548  20715912.982    20715914.703
  23457915.998    -9271258.58549  -7205385.97046  23457915.403    23457917.374
  21305215.022   -19424609.29549 -15117279.57447  21305214.637    21305216.129
  22596470.524   -17126092.27249 -13325460.40646  22596469.719    22596472.169
  23554248.407   -10966949.32149  -8280649.28545  23554247.914    23554251.894
 03  4 11  3 53  0.0000000  0  5G25G14G11G20G 1
  20718872.110   -23750168.08549 -18483208.48348  20718871.864    20718873.590
  23472928.744    -9192366.16449  -7143911.36546  23472928.190    23472930.139
  21309328.170   -19402994.55949 -15100436.91647  21309327.759    21309329.273
  22580762.393   -17208639.15849 -13389782.60946  22580761.584    22580763.957
  23540952.135   -11036821.50949  -8335095.07845  23540951.599    23540955.542
 03  4 11  3 53 30.0000000  0  5G25G14G11G20G 1
  20721928.075   -23734108.85049 -18470694.77648  20721927.808    20721929.556
  23487944.710    -9113457.40649  -7082424.03746  23487944.065    23487946.024
  21313543.812   -19380841.13649 -15083174.50547  21313543.431    21313544.916
  22565074.235   -17291080.78749 -13454022.79546  22565073.415    22565075.820
  23527686.914   -11106530.29449  -8389413.54545  23527686.382    23527690.295
 03  4 11  3 54  0.0000000  0  5G25G14G11G20G 1
  20725081.021   -23717539.79349 -18457783.80448  20725080.755    20725082.486
  23502963.590    -9034532.19249  -7020923.86746  23502963.077    23502965.004
  21317862.053   -19358148.92049 -15065492.25347  21317861.632    21317863.137
  22549406.589   -17373414.64749 -13518179.00746  22549405.771    22549408.168
  23514453.018   -11176074.70049  -8443603.92946  23514452.493    23514456.402
 03  4 11  3 54 30.0000000  0  5G25G14G11G20G 1
  20728330.561   -23700463.23749 -18444477.37648  20728330.296    20728332.027
  23517985.381    -8955592.29749  -6959412.28846  23517984.828    23517986.732
  21322282.188   -19334920.53849 -15047392.20247  21322281.792    21322283.312
  22533759.489   -17455640.45949 -13582251.03346  22533758.703    22533761.091
  23501250.173   -11245456.07649  -8497667.26846  23501249.544    23501253.562
 03  4 11  3 55  0.0000000  0  5G25G14G11G20G 1
  20731676.579   -23682879.42249 -18430775.68548  20731676.339    20731678.099
  23533009.764    -8876638.05849  -6897889.50146  23533009.247    23533011.148
  21326804.361   -19311156.44349 -15028874.71447  21326803.991    21326805.444
  22518133.359   -17537756.26749 -13646237.34646  22518132.551    22518134.980
  23488078.293   -11314674.13649  -8551603.35346  23488077.722    23488081.715
 03  4 11  3 55 30.0000000  0  5G25G14G11G20G 1
  20735118.740   -23664790.67749 -18416680.54048  20735118.506    20735120.269
  23548036.883    -8797670.90049  -6836356.67046  23548036.223    23548038.103
  21331428.074   -19286858.63449 -15009941.34847  21331427.680    21331429.162
  22502528.329   -17619760.85249 -13710136.97346  22502527.555    22502530.018
  23474937.410   -11383729.56949  -8605412.71546  23474936.829    23474940.859
 03  4 11  3 56  0.0000000  0  5G25G14G11G20G 1
  20738656.856   -23646197.77649 -18402192.54648  20738656.617    20738658.363
  23563066.264    -8718691.36149  -6774814.17646  23563065.580    23563067.416
  21336153.171   -19262027.98149 -14990592.78147  21336152.789    21336154.298
  22486944.814   -17701652.59249 -13773948.66746  22486944.053    22486946.482
  23461827.511   -11452622.22849  -8659095.23146  23461827.025    23461831.002
 03  4 11  3 56 30.0000000  0  5G25G14G11G20G 1
  20742290.723   -23627101.60449 -18387312.39648  20742290.471    20742292.215
  23578097.846    -8639700.04249  -6713262.50345  23578097.133    23578099.015
  21340979.515   -19236665.45949 -14970829.77147  21340979.108    21340980.576
  22471383.119   -17783429.88649 -13837671.19946  22471382.376    22471384.718
  23448748.662   -11521352.06049  -8712650.88746  23448748.100    23448752.098
 03  4 11  3 57  0.0000000  0  5G25G14G11G20G 1
  20746020.283   -23607502.56149 -18372040.39548  20746020.039    20746021.770
  23593131.542    -8560696.64449  -6651701.42245  23593130.915    23593132.945
  21345907.028   -19210771.25949 -14950652.46847  21345906.627    21345908.079
  22455843.785   -17865089.89749 -13901302.34246  22455842.993    22455845.269
  23435700.899   -11589918.28649  -8766079.03546  23435700.293    23435704.294
 03  4 11  3 57 30.0000000  0  5G25G14G11G20G 1
  20749845.325   -23587401.81949 -18356377.46448  20749845.061    20749846.800
  23608167.551    -8481682.00349  -6590131.58145  23608166.976    23608168.920
  21350935.442   -19184346.68349 -14930061.88847  21350935.055    21350936.517
  22440326.970   -17946631.11949 -13964840.91346  22440326.136    22440328.391
  23422684.134   -11658321.29449  -8819380.00846  23422683.564    23422687.570
 03  4 11  3 58  0.0000000  0  5G25G14G11G20G 1
  20753765.276   -23566802.22749 -18340325.81648  20753765.037    20753766.772
  23623205.417    -8402658.00649  -6528554.44545  23623204.825    23623206.601
  21356064.249   -19157394.44749 -14909060.13547  21356063.855    21356065.348
  22424832.876   -18028053.13649 -14028286.60346  22424832.062    22424834.212
  23409698.198   -11726562.30449  -8872554.76646  23409697.623    23409701.676
 03  4 11  3 58 30.0000000  0  5G25G14G11G20G 1
  20757780.329   -23545703.08049 -18323884.91048  20757780.088    20757781.788
  23638245.223    -8323623.51949  -6466969.13045  23638244.614    23638246.310
  21361293.609   -19129913.95249 -14887646.75747  21361293.234    21361294.747
  22409362.032   -18109352.84749 -14091636.98446  22409361.222    22409363.433
  23396743.578   -11794639.57249  -8925601.91046  23396743.012    23396746.938
 03  4 11  3 59  0.0000000  0  5G25G14G11G20G 1
  20761889.958   -23524106.94149 -18307056.73248  20761889.683    20761891.390
  23653286.575    -8244580.45549  -6405377.13945  23653285.960    23653287.693
  21366622.998   -19101907.70349 -14865823.70447  21366622.595    21366624.099
  22393914.587   -18190529.33949 -14154891.34346  22393913.806    22393916.100
  23383819.753   -11862554.36249  -8978522.46046  23383819.239    23383823.091
 03  4 11  3 59 30.0000000  0  5G25G14G11G20G 1
  20766093.969   -23502014.59949 -18289841.90348  20766093.693    20766095.374
  23668329.604    -8165528.90849  -6343778.54045  23668328.917    23668330.718
  21372052.268   -19073376.64249 -14843591.71547  21372051.886    21372053.396
  22378490.903   -18271580.75749 -14218048.25046  22378490.144    22378492.510
  23370926.900   -11930306.54249  -9031316.29546  23370926.354    23370930.231
 03  4 11  4  0  0.0000000  0  5G25G14G11G20G 1
  20770391.896   -23479428.59349 -18272242.40348  20770391.657    20770393.327
  23683373.846    -8086471.23149  -6282175.16545  23683373.102    23683374.875
  21377580.871   -19044323.75249 -14820953.10247  21377580.499    21377582.004
  22363091.215   -18352506.70049 -14281107.38446  22363090.415    22363092.753
  23358064.651   -11997897.67449  -9083984.63546  23358064.149    23358068.047
 03  4 11  4  0 30.0000000  0  5G25G14G11G20G 1
  20774784.341   -23456346.20949 -18254256.11248  20774784.086    20774785.765
  23698419.885    -8007403.56349  -6220564.00845  23698419.205    23698420.889
  21383209.490   -19014745.15149 -14797904.83747  21383209.092    21383210.590
  22347716.562   -18433301.10349 -14344064.02546  22347715.738    22347718.050
  23345233.828   -12065323.56549  -9136524.23046  23345233.331    23345237.245
 03  4 11  4  1  0.0000000  0  5G25G14G11G20G 1
  20779270.202   -23432772.90449 -18235887.28948  20779269.921    20779271.610
  23713467.032    -7928330.75149  -6158948.82645  23713466.309    23713467.921
  21388936.940   -18984646.98049 -14774451.71147  21388936.547    21388938.072
  22332366.363   -18513966.68349 -14406920.28146  22332365.545    22332367.857
  23332433.733   -12132588.45749  -9188938.37846  23332433.193    23332437.057
 03  4 11  4  1 30.0000000  0  5G25G14G11G20G 1
  20783849.409   -23408708.87949 -18217136.08748  20783849.151    20783850.813
  23728515.095    -7849252.39449  -6097329.32545  23728514.441    23728516.155
  21394763.246   -18954029.80649 -14750594.18247  21394762.844    21394764.315
  22317041.121   -18594500.66349 -14469673.99446  22317040.335    22317042.679
  23319664.385   -12199691.61949  -9241226.50246  23319663.853    23319667.722
 03  4 11  4  2  0.0000000  0  5G25G14G11G20G 1
  20788521.845   -23384155.01649 -18198003.19348  20788521.556    20788523.215
  23743564.151    -7770168.66249  -6035705.64045  23743563.553    23743565.325
  21400688.120   -18922894.34949 -14726332.79947  21400687.712    21400689.240
  22301741.454   -18674900.70549 -14532323.34946  22301740.666    22301742.992
  23306925.882   -12266632.75749  -9293388.35946  23306925.391    23306929.136
 03  4 11  4  2 30.0000000  0  5G25G14G11G20G 1
  20793287.326   -23359112.03749 -18178489.16848  20793287.087    20793288.758
  23758614.580    -7691079.13149  -5974077.44845  23758613.893    23758615.583
  21406711.538   -18891241.14449 -14701667.96747  21406711.112    21406712.626
  22286467.784   -18755164.27749 -14594866.35446  22286467.010    22286469.278
  23294218.455   -12333410.88249  -9345423.19446  23294217.939    23294221.630
 03  4 11  4  3  0.0000000  0  5G25G14G11G20G 1
  20798145.363   -23333582.90549 -18158596.32148  20798145.104    20798146.761
  23773665.291    -7611986.80149  -5912447.06845  23773664.665    23773666.431
  21412832.742   -18859073.67349 -14676602.40947  21412832.355    21412833.885
  22271220.068   -18835291.68149 -14657303.25847  22271219.296    22271221.564
  23281541.532   -12400028.24449  -9397332.77846  23281541.015    23281544.713
 03  4 11  4  3 30.0000000  0  5G25G14G11G20G 1
  20803096.108   -23307566.58149 -18138323.84448  20803095.836    20803097.483
  23788716.979    -7532888.88649  -5850812.35545  23788716.424    23788718.320
  21419052.221   -18826390.34849 -14651134.88947  21419051.829    21419053.343
  22255999.104   -18915278.20349 -14719630.38347  22255998.353    22256000.622
  23268895.700   -12466482.22549  -9449115.04946  23268895.159    23268898.876
 03  4 11  4  4  0.0000000  0  5G25G14G11G20G 1
  20808138.830   -23281066.66349 -18117674.54548  20808138.585    20808140.219
  23803769.372    -7453788.40949  -5789175.62645  23803768.854    23803770.633
  21425369.073   -18793195.09949 -14625268.46747  21425368.656    21425370.227
  22240804.839   -18995124.43349 -14781848.19147  22240804.102    22240806.332
  23256280.589   -12532775.10249  -9500771.77846  23256279.982    23256283.712
 03  4 11  4  4 30.0000000  0  5G25G14G11G20G 1
  20813273.487   -23254084.02449 -18096649.10148  20813273.211    20813274.836
  23818822.233    -7374685.37949  -5727536.90745  23818821.633    23818823.536
  21431783.100   -18759489.00649 -14599003.98447  21431782.706    21431784.280
  22225637.686   -19074827.98249 -14843954.82647  22225636.952    22225639.202
  23243696.052   -12598906.62949  -9552302.78846  23243695.474    23243699.220
 03  4 11  4  5  0.0000000  0  5G25G14G11G20G 1
  20818499.761   -23226619.65349 -18075248.27848  20818499.493    20818501.121
  23833875.279    -7295580.19549  -5665896.51745  23833874.733    23833876.635
  21438294.247   -18725272.97349 -14572342.14747  21438293.848    21438295.370
  22210498.181   -19154386.65549 -14905948.56147  22210497.433    22210499.664
  23231142.365   -12664876.59849  -9603707.90446  23231141.825    23231145.480
 03  4 11  4  5 30.0000000  0  5G25G14G11G20G 1
  20823817.472   -23198674.65849 -18053472.94548  20823817.211    20823818.850
  23848928.990    -7216472.90849  -5604254.49245  23848928.321    23848930.084
  21444902.176   -18690548.18449 -14545283.87447  21444901.763    21444903.295
  22195386.646   -19233798.37249 -14967827.78047  22195385.894    22195388.077
  23218619.479   -12730684.71149  -9654986.87646  23218618.935    23218622.496
 03  4 11  4  6  0.0000000  0  5G25G14G11G20G 1
  20829226.282   -23170251.12349 -18031324.72748  20829226.027    20829227.665
  23863982.846    -7137364.89549  -5542611.92145  23863982.139    23863984.016
  21451606.379   -18655317.20449 -14517831.16847  21451605.982    21451607.515
  22180303.165   -19313062.30049 -15029591.83647  22180302.406    22180304.584
  23206127.082   -12796331.91049  -9706140.48846  23206126.543    23206130.109
 03  4 11  4  6 30.0000000  0  6G16G25G14G11G20G 1
                  -1571320.27059   -973371.04543
  20834725.767   -23141351.17849 -18008805.27148  20834725.480    20834727.106
  23879036.488    -7058256.89549  -5480969.32245  23879035.868    23879037.770
  21458406.638   -18619581.65649 -14489985.29147  21458406.234    21458407.786
  22165248.179   -19392176.49249 -15091239.20947  22165247.458    22165249.632
  23193665.347   -12861818.57949  -9757169.00746  23193664.880    23193668.373
 03  4 11  4  7  0.0000000  0  6G16G25G14G11G20G 1
                  -1659563.10149  -1042131.59643
  20840315.719   -23111975.48049 -17985915.11248  20840315.460    20840317.099
  23894090.141    -6979148.54249  -5419326.45345  23894089.605    23894091.563
  21465302.730   -18583342.36849 -14461746.89647  21465302.330    21465303.885
  22150222.158   -19471138.56249 -15152768.06247  22150221.441    22150223.596
  23181234.321   -12927143.95749  -9808071.83246  23181233.806    23181237.371
 03  4 11  4  7 30.0000000  0  6G16G25G14G11G20G 1
                  -1747865.48849  -1110938.58844                  24654112.079
  20845995.991   -23082125.51249 -17962655.38848  20845995.747    20845997.381
  23909144.305    -6900040.36849  -5357683.73745  23909143.575    23909145.331
  21472294.381   -18546600.97849 -14433117.25947  21472294.010    21472295.539
  22135225.408   -19549946.70849 -15214176.97047  22135224.683    22135226.839
  23168833.780   -12992308.37549  -9858849.26646  23168833.310    23168836.976
 03  4 11  4  8  0.0000000  0  6G16G25G14G11G20G 1
  24637295.319    -1836223.56349  -1179789.00845  24637293.577    24637297.729
  20851766.457   -23051801.70149 -17939026.43448  20851766.183    20851767.798
  23924198.082    -6820931.86649  -5296040.75745  23924197.363    23924199.206
  21479381.502   -18509358.02049 -14404096.78147  21479381.124    21479382.675
  22120258.533   -19628597.99749 -15275463.65947  22120257.814    22120259.971
  23156464.198   -13057310.85949  -9909500.50346  23156463.714    23156467.327
 03  4 11  4  8 30.0000000  0  6G16G25G14G11G20G 1
  24620470.745    -1924636.57649  -1248682.23445  24620468.574    24620472.943
  20857626.376   -23021007.44049 -17915030.89648  20857626.096    20857627.730
  23939251.382    -6741825.44749  -5234399.39545  23939250.732    23939252.743
  21486563.373   -18471616.97849 -14374688.17747  21486563.002    21486564.559
  22105321.512   -19707092.42249 -15336628.11147  22105320.795    22105322.938
  23144125.080   -13122153.51649  -9960027.18746  23144124.536    23144128.120
 03  4 11  4  9  0.0000000  0  6G16G25G14G11G20G 1
  24603636.640    -2013099.62249  -1317614.46045  24603635.419    24603638.760
  20863575.901   -22989742.27349 -17890668.42148  20863575.677    20863577.308
  23954305.011    -6662719.65449  -5172758.52945  23954304.210    23954306.109
  21493840.061   -18433377.75449 -14344891.38447  21493839.684    21493841.229
  22090415.048   -19785426.22649 -15397667.40047  22090414.334    22090416.495
  23131816.628   -13186834.53149 -10010427.92546  23131816.107    23131819.718
 03  4 11  4  9 30.0000000  0  6G16G25G14G11G20G 1
  24586793.306    -2101611.59349  -1386584.78445  24586792.238    24586795.376
  20869614.532   -22958009.12649 -17865941.28848  20869614.287    20869615.884
  23969357.863    -6583616.30849  -5111119.54745  23969357.070    23969358.872
  21501210.975   -18394643.32949 -14314708.72147  21501210.592    21501212.177
  22075539.215   -19863598.88649 -15458581.11947  22075538.493    22075540.671
  23119538.620   -13251355.53149 -10060703.98946  23119538.107    23119541.729
 03  4 11  4 10  0.0000000  0  6G16G25G14G11G20G 1
  24569941.066    -2190169.68049  -1455591.03245  24569940.244    24569943.367
  20875741.885   -22925809.78549 -17840850.88348  20875741.625    20875743.220
  23984409.877    -6504515.85749  -5049482.84445  23984409.249    23984411.214
  21508675.837   -18355415.38349 -14284141.49747  21508675.424    21508677.023
  22060694.481   -19941608.61249 -15519367.86747  22060693.769    22060695.909
  23107291.149   -13315716.74149 -10110855.53946  23107290.606    23107294.124
 03  4 11  4 10 30.0000000  0  6G16G25G14G11G20G 1
  24553080.814    -2278769.77649  -1524630.02245  24553080.156    24553083.324
  20881957.832   -22893144.72149 -17815397.57748  20881957.582    20881959.160
  23999461.732    -6425417.69049  -4987847.92745  23999461.129    23999463.171
  21516234.434   -18315694.74349 -14253190.35247  21516234.011    21516235.598
  22045881.339   -20019452.48349 -15580025.39547  22045880.554    22045882.650
  23095074.166   -13379917.28249 -10160881.89846  23095073.663    23095077.213
 03  4 11  4 11  0.0000000  0  6G16G25G14G11G20G 1
  24536212.961    -2367409.57749  -1593699.97945  24536212.763    24536215.714
  20888262.063   -22860015.78749 -17789582.81448  20888261.777    20888263.386
  24014513.172    -6346322.63049  -4926215.42145  24014512.509    24014514.406
  21523886.425   -18275483.28849 -14221856.75347  21523886.014    21523887.570
  22031099.952   -20097128.77549 -15640552.33647  22031099.168    22031101.268
  23082887.625   -13443957.49749 -10210783.33846  23082887.110    23082890.772
 03  4 11  4 11 30.0000000  0  6G16G25G14G11G20G 1
  24519337.967    -2456087.83449  -1662799.86145  24519337.885    24519340.755
  20894653.996   -22826425.66649 -17763408.68748  20894653.752    20894655.370
  24029563.452    -6267232.50249  -4864586.74345  24029562.850    24029564.734
  21531631.244   -18234784.06649 -14190143.06947  21531630.832    21531632.417
  22016350.494   -20174637.09249 -15700948.39347  22016349.738    22016351.874
  23070731.328   -13507838.84749 -10260560.98046  23070730.826    23070734.488
 03  4 11  4 12  0.0000000  0  6G16G25G14G11G20G 1
  24502456.459    -2544800.22549  -1731926.34645  24502456.411    24502459.374
  20901133.613   -22792374.96349 -17736875.66448  20901133.376    20901135.001
  24044612.944    -6188146.52749  -4802961.32245  24044612.421    24044614.248
  21539468.758   -18193597.49149 -14158049.63147  21539468.336    21539469.935
  22001633.736   -20251974.21449 -15761211.05347  22001633.016    22001635.091
  23058605.541   -13571560.42949 -10310214.12846  23058605.010    23058608.596
 03  4 11  4 12 30.0000000  0  6G16G25G14G11G20G 1
  24485569.206    -2633543.52649  -1801076.93745  24485569.173    24485572.095
  20907700.657   -22757865.00949 -17709984.77848  20907700.400    20907702.023
  24059661.734    -6109064.56649  -4741339.03245  24059661.263    24059663.062
  21547398.703   -18151925.50149 -14125577.94547  21547398.307    21547399.860
  21986950.004   -20329137.89449 -15821338.56647  21986949.242    21986951.324
  23046510.187   -13635122.07049 -10359742.64446  23046509.613    23046513.175
 03  4 11  4 13  0.0000000  0  6G16G25G14G11G20G 1
  24468676.414    -2722316.59549  -1870250.72345  24468676.228    24468678.962
  20914354.465   -22722899.05249 -17682738.57048  20914354.184    20914355.792
  24074709.307    -6029988.77949  -4679721.52145  24074708.836    24074710.679
  21555420.373   -18109771.20949 -14092730.44947  21555419.953    21555421.550
  21972299.342   -20406127.73649 -15881330.62447  21972298.534    21972300.657
  23034444.948   -13698525.35449 -10409147.76346  23034444.376    23034447.911
